Time,TemperatureF,DewpointF,PressureIn,WindDirection,WindDirectionDegrees,WindSpeedMPH,WindSpeedGustMPH,Humidity,HourlyPrecipIn,Conditions,Clouds,dailyrainin,SoftwareType,DateUTC
2013-06-27 00:00:00,60.1,0.0,29.84,North,10,6.6,7.8,0,0.00,,---,0.00,VWS V14.00,2013-06-27 04:00:00,
2013-06-27 00:01:00,60.1,0.0,29.84,NE,56,0.0,7.8,0,0.00,,---,0.00,VWS V14.00,2013-06-27 04:01:00,
2013-06-27 00:02:00,60.3,0.0,29.82,North,359,0.0,11.2,0,0.00,,---,0.70,VWS V14.00,2013-06-27 04:02:00,
2013-06-27 00:03:00,60.2,0.0,29.84,NW,315,4.7,7.8,0,0.00,,---,0.00,VWS V14.00,2013-06-27 04:03:00,
2013-06-27 00:04:00,60.1,0.0,29.83,NNE,30,0.0,7.8,0,0.00,,---,0.00,VWS V14.00,2013-06-27 04:04:00,
2013-06-27 00:05:00,60.1,0.0,29.84,NNE,27,5.1,9.9,0,0.00,,---,0.00,VWS V14.00,2013-06-27 04:05:00,
2013-06-27 00:06:00,60.1,0.0,29.84,NE,38,3.4,9.9,0,0.00,,---,0.00,VWS V14.00,2013-06-27 04:06:00,
2013-06-27 00:07:00,60.2,0.0,29.82,NE,34,5.6,10.9,0,0.00,,---,0.70,VWS V14.00,2013-06-27 04:07:00,
2013-06-27 00:08:00,60.1,0.0,29.84,NE,55,0.0,9.9,0,0.00,,---,0.00,VWS V14.00,2013-06-27 04:08:00,
2013-06-27 00:09:00,60.1,0.0,29.84,NNE,25,6.5,9.9,0,0.00,,---,0.00,VWS V14.00,2013-06-27 04:09:00,
2013-06-27 00:10:00,60.1,0.0,29.84,North,10,6.3,9.3,0,0.00,,---,0.00,VWS V14.00,2013-06-27 04:10:00,
2013-06-27 00:11:00,60.1,0.0,29.84,NNE,27,0.0,9.3,0,0.00,,---,0.00,VWS V14.00,2013-06-27 04:11:00,
2013-06-27 00:12:00,60.2,0.0,29.82,NNE,22,0.0,10.5,0,0.00,,---,0.70,VWS V14.00,2013-06-27 04:12:00,
2013-06-27 00:13:00,60.0,0.0,29.84,NE,48,5.7,9.3,0,0.00,,---,0.00,VWS V14.00,2013-06-27 04:13:00,
2013-06-27 00:14:00,59.9,0.0,29.84,North,8,0.0,9.3,0,0.00,,---,0.00,VWS V14.00,2013-06-27 04:14:00,
2013-06-27 00:15:00,59.8,0.0,29.84,North,8,0.0,8.5,0,0.00,,---,0.00,VWS V14.00,2013-06-27 04:15:00,
2013-06-27 00:16:00,59.8,0.0,29.84,NE,39,6.3,8.5,0,0.00,,---,0.00,VWS V14.00,2013-06-27 04:16:00,
2013-06-27 00:17:00,60.2,0.0,29.83,NE,34,0.0,10.8,0,0.00,,---,0.70,VWS V14.00,2013-06-27 04:17:00,
2013-06-27 00:18:00,59.7,0.0,29.84,North,8,5.2,8.5,0,0.00,,---,0.00,VWS V14.00,2013-06-27 04:18:00,
2013-06-27 00:19:00,59.6,0.0,29.84,NE,41,7.2,8.5,0,0.00,,---,0.00,VWS V14.00,2013-06-27 04:19:00,
2013-06-27 00:20:00,59.6,0.0,29.84,NNE,20,5.5,11.7,0,0.00,,---,0.00,VWS V14.00,2013-06-27 04:20:00,
2013-06-27 00:21:00,59.5,0.0,29.84,NNE,15,8.2,11.7,0,0.00,,---,0.00,VWS V14.00,2013-06-27 04:21:00,
2013-06-27 00:22:00,60.1,0.0,29.82,East,87,4.2,9.2,0,0.00,,---,0.70,VWS V14.00,2013-06-27 04:22:00,
2013-06-27 00:23:00,59.4,0.0,29.84,NW,308,8.3,11.7,0,0.00,,---,0.00,VWS V14.00,2013-06-27 04:23:00,
2013-06-27 00:24:00,59.3,0.0,29.84,NE,48,8.8,11.7,0,0.00,,---,0.00,VWS V14.00,2013-06-27 04:24:00,
2013-06-27 00:25:00,59.3,0.0,29.84,NE,39,11.1,11.9,0,0.00,,---,0.00,VWS V14.00,2013-06-27 04:25:00,
2013-06-27 00:26:00,59.3,0.0,29.84,NNW,336,5.2,11.9,0,0.00,,---,0.00,VWS V14.00,2013-06-27 04:26:00,
2013-06-27 00:27:00,60.1,0.0,29.83,NNE,21,0.0,9.4,0,0.00,,---,0.70,VWS V14.00,2013-06-27 04:27:00,
2013-06-27 00:28:00,59.2,0.0,29.83,NE,46,6.8,11.9,0,0.00,,---,0.00,VWS V14.00,2013-06-27 04:28:00,
2013-06-27 00:29:00,59.1,0.0,29.84,North,7,8.3,11.9,0,0.00,,---,0.00,VWS V14.00,2013-06-27 04:29:00,
2013-06-27 00:30:00,59.1,0.0,29.84,NE,46,9.6,12.4,0,0.00,,---,0.00,VWS V14.00,2013-06-27 04:30:00,
2013-06-27 00:31:00,59.1,0.0,29.84,NW,323,6.4,12.4,0,0.00,,---,0.00,VWS V14.00,2013-06-27 04:31:00,
2013-06-27 00:32:00,60.3,0.0,29.84,North,7,0.0,6.5,0,0.00,,---,0.70,VWS V14.00,2013-06-27 04:32:00,
2013-06-27 00:33:00,59.0,0.0,29.84,NE,52,2.9,12.4,0,0.00,,---,0.00,VWS V14.00,2013-06-27 04:33:00,
2013-06-27 00:34:00,59.0,0.0,29.84,North,357,0.0,12.4,0,0.00,,---,0.00,VWS V14.00,2013-06-27 04:34:00,
2013-06-27 00:35:00,59.1,0.0,29.84,NE,51,4.9,10.0,0,0.00,,---,0.00,VWS V14.00,2013-06-27 04:35:00,
2013-06-27 00:36:00,59.1,0.0,29.84,North,359,5.0,10.0,0,0.00,,---,0.00,VWS V14.00,2013-06-27 04:36:00,
2013-06-27 00:37:00,60.1,0.0,29.84,North,6,0.0,3.0,0,0.00,,---,0.70,VWS V14.00,2013-06-27 04:37:00,
2013-06-27 00:38:00,59.1,0.0,29.84,NNW,335,0.0,10.0,0,0.00,,---,0.00,VWS V14.00,2013-06-27 04:38:00,
2013-06-27 00:39:00,59.1,0.0,29.84,North,359,4.2,10.0,0,0.00,,---,0.00,VWS V14.00,2013-06-27 04:39:00,
2013-06-27 00:40:00,59.1,0.0,29.84,NNE,13,9.9,11.5,0,0.00,,---,0.00,VWS V14.00,2013-06-27 04:40:00,
2013-06-27 00:41:00,59.1,0.0,29.84,NNE,31,9.3,11.5,0,0.00,,---,0.00,VWS V14.00,2013-06-27 04:41:00,
2013-06-27 00:42:00,60.1,0.0,29.84,NE,37,0.0,8.0,0,0.00,,---,0.70,VWS V14.00,2013-06-27 04:42:00,
2013-06-27 00:43:00,59.1,0.0,29.84,North,359,0.0,11.5,0,0.00,,---,0.00,VWS V14.00,2013-06-27 04:43:00,
2013-06-27 00:44:00,59.1,0.0,29.84,NE,51,7.0,11.5,0,0.00,,---,0.00,VWS V14.00,2013-06-27 04:44:00,
2013-06-27 00:45:00,59.1,0.0,29.84,NE,35,10.3,10.7,0,0.00,,---,0.00,VWS V14.00,2013-06-27 04:45:00,
2013-06-27 00:46:00,59.1,0.0,29.84,NNE,22,8.7,10.7,0,0.00,,---,0.00,VWS V14.00,2013-06-27 04:46:00,
2013-06-27 00:47:00,60.2,0.0,29.84,NE,44,0.0,7.5,0,0.00,,---,0.70,VWS V14.00,2013-06-27 04:47:00,
2013-06-27 00:48:00,59.1,0.0,29.84,NNE,21,7.8,10.7,0,0.00,,---,0.00,VWS V14.00,2013-06-27 04:48:00,
2013-06-27 00:49:00,59.1,0.0,29.84,NE,55,5.7,10.7,0,0.00,,---,0.00,VWS V14.00,2013-06-27 04:49:00,
2013-06-27 00:50:00,59.1,0.0,29.84,NE,44,0.0,11.1,0,0.00,,---,0.00,VWS V14.00,2013-06-27 04:50:00,
2013-06-27 00:51:00,59.1,0.0,29.84,North,4,8.5,11.1,0,0.00,,---,0.00,VWS V14.00,2013-06-27 04:51:00,
2013-06-27 00:52:00,59.1,0.0,29.84,NE,35,6.9,11.1,0,0.00,,---,0.00,VWS V14.00,2013-06-27 04:52:00,
2013-06-27 00:53:00,59.1,0.0,29.84,NE,38,8.6,11.1,0,0.00,,---,0.00,VWS V14.00,2013-06-27 04:53:00,
2013-06-27 00:54:00,59.1,0.0,29.84,NNE,25,1.9,11.1,0,0.00,,---,0.00,VWS V14.00,2013-06-27 04:54:00,
2013-06-27 00:55:00,59.1,0.0,29.84,NNE,31,7.0,11.1,0,0.00,,---,0.00,VWS V14.00,2013-06-27 04:55:00,
2013-06-27 00:56:00,59.1,0.0,29.84,NNE,18,0.0,11.4,0,0.00,,---,0.00,VWS V14.00,2013-06-27 04:56:00,
2013-06-27 00:57:00,59.0,0.0,29.84,NNE,18,4.5,11.4,0,0.00,,---,0.00,VWS V14.00,2013-06-27 04:57:00,
2013-06-27 00:58:00,59.0,0.0,29.84,NE,46,8.2,11.4,0,0.00,,---,0.00,VWS V14.00,2013-06-27 04:58:00,
2013-06-27 00:59:00,59.0,0.0,29.84,NNE,22,5.3,11.4,0,0.00,,---,0.00,VWS V14.00,2013-06-27 04:59:00,
2013-06-27 01:00:00,58.9,0.0,29.84,NE,55,4.5,11.4,0,0.00,,---,0.00,VWS V14.00,2013-06-27 05:00:00,
2013-06-27 01:01:00,59.0,0.0,29.84,NNE,20,0.0,9.9,0,0.00,,---,0.00,VWS V14.00,2013-06-27 05:01:00,
2013-06-27 01:02:00,59.0,0.0,29.84,North,3,5.9,9.9,0,0.00,,---,0.00,VWS V14.00,2013-06-27 05:02:00,
2013-06-27 01:03:00,59.1,0.0,29.84,North,359,0.0,9.9,0,0.00,,---,0.00,VWS V14.00,2013-06-27 05:03:00,
2013-06-27 01:04:00,59.1,0.0,29.84,North,4,0.0,9.9,0,0.00,,---,0.00,VWS V14.00,2013-06-27 05:04:00,
2013-06-27 01:05:00,59.1,0.0,29.84,North,6,0.0,9.1,0,0.00,,---,0.00,VWS V14.00,2013-06-27 05:05:00,
2013-06-27 01:06:00,59.1,0.0,29.84,North,6,0.0,9.1,0,0.00,,---,0.00,VWS V14.00,2013-06-27 05:06:00,
2013-06-27 01:07:00,59.1,0.0,29.84,NE,45,4.8,9.1,0,0.00,,---,0.00,VWS V14.00,2013-06-27 05:07:00,
2013-06-27 01:08:00,59.2,0.0,29.85,NW,315,5.0,9.1,0,0.00,,---,0.00,VWS V14.00,2013-06-27 05:08:00,
2013-06-27 01:09:00,59.1,0.0,29.84,NE,46,4.7,9.1,0,0.00,,---,0.00,VWS V14.00,2013-06-27 05:09:00,
2013-06-27 01:10:00,59.0,0.0,29.84,NE,34,5.0,9.0,0,0.00,,---,0.00,VWS V14.00,2013-06-27 05:10:00,
2013-06-27 01:11:00,59.0,0.0,29.84,NNW,333,0.0,9.0,0,0.00,,---,0.00,VWS V14.00,2013-06-27 05:11:00,
2013-06-27 01:12:00,59.1,0.0,29.84,NE,42,0.0,9.0,0,0.00,,---,0.00,VWS V14.00,2013-06-27 05:12:00,
2013-06-27 01:13:00,59.1,0.0,29.84,North,8,0.0,9.0,0,0.00,,---,0.00,VWS V14.00,2013-06-27 05:13:00,
2013-06-27 01:14:00,59.1,0.0,29.84,North,8,0.0,9.0,0,0.00,,---,0.00,VWS V14.00,2013-06-27 05:14:00,
2013-06-27 01:15:00,59.1,0.0,29.84,North,8,0.0,7.6,0,0.00,,---,0.00,VWS V14.00,2013-06-27 05:15:00,
2013-06-27 01:16:00,59.2,0.0,29.84,North,8,0.0,7.6,0,0.00,,---,0.00,VWS V14.00,2013-06-27 05:16:00,
2013-06-27 01:17:00,59.2,0.0,29.84,North,8,0.0,7.6,0,0.00,,---,0.00,VWS V14.00,2013-06-27 05:17:00,
2013-06-27 01:18:00,59.2,0.0,29.84,NE,53,3.5,7.6,0,0.00,,---,0.00,VWS V14.00,2013-06-27 05:18:00,
2013-06-27 01:19:00,59.2,0.0,29.84,ENE,59,5.7,7.6,0,0.00,,---,0.00,VWS V14.00,2013-06-27 05:19:00,
2013-06-27 01:20:00,59.1,0.0,29.84,North,10,3.4,10.4,0,0.00,,---,0.00,VWS V14.00,2013-06-27 05:20:00,
2013-06-27 01:21:00,59.1,0.0,29.84,North,359,4.2,10.4,0,0.00,,---,0.00,VWS V14.00,2013-06-27 05:21:00,
2013-06-27 01:22:00,59.0,0.0,29.84,NNW,330,3.2,10.4,0,0.00,,---,0.00,VWS V14.00,2013-06-27 05:22:00,
2013-06-27 01:23:00,59.0,0.0,29.84,North,6,4.2,10.4,0,0.00,,---,0.00,VWS V14.00,2013-06-27 05:23:00,
2013-06-27 01:24:00,59.0,0.0,29.83,NE,35,0.0,10.4,0,0.00,,---,0.00,VWS V14.00,2013-06-27 05:24:00,
2013-06-27 01:25:00,59.0,0.0,29.83,NE,46,4.3,10.9,0,0.00,,---,0.00,VWS V14.00,2013-06-27 05:25:00,
2013-06-27 01:26:00,59.0,0.0,29.83,NNE,30,0.0,10.9,0,0.00,,---,0.00,VWS V14.00,2013-06-27 05:26:00,
2013-06-27 01:27:00,59.0,0.0,29.83,NNE,30,0.0,10.9,0,0.00,,---,0.00,VWS V14.00,2013-06-27 05:27:00,
2013-06-27 01:28:00,59.0,0.0,29.83,NNE,14,2.6,10.9,0,0.00,,---,0.00,VWS V14.00,2013-06-27 05:28:00,
2013-06-27 01:29:00,59.0,0.0,29.83,NE,42,9.4,10.9,0,0.00,,---,0.00,VWS V14.00,2013-06-27 05:29:00,
2013-06-27 01:30:00,58.9,0.0,29.83,NNE,21,0.0,9.8,0,0.00,,---,0.00,VWS V14.00,2013-06-27 05:30:00,
2013-06-27 01:31:00,58.9,0.0,29.83,NNE,21,3.4,9.8,0,0.00,,---,0.00,VWS V14.00,2013-06-27 05:31:00,
2013-06-27 01:32:00,59.0,0.0,29.83,NNE,13,6.8,9.8,0,0.00,,---,0.00,VWS V14.00,2013-06-27 05:32:00,
2013-06-27 01:33:00,58.8,0.0,29.83,North,11,0.0,9.8,0,0.00,,---,0.00,VWS V14.00,2013-06-27 05:33:00,
2013-06-27 01:34:00,58.9,0.0,29.83,North,11,0.0,9.8,0,0.00,,---,0.00,VWS V14.00,2013-06-27 05:34:00,
2013-06-27 01:35:00,58.8,0.0,29.84,NNW,339,0.0,8.9,0,0.00,,---,0.00,VWS V14.00,2013-06-27 05:35:00,
2013-06-27 01:36:00,58.9,0.0,29.84,NW,326,3.3,8.9,0,0.00,,---,0.00,VWS V14.00,2013-06-27 05:36:00,
2013-06-27 01:37:00,58.9,0.0,29.84,NNE,32,7.3,8.9,0,0.00,,---,0.00,VWS V14.00,2013-06-27 05:37:00,
2013-06-27 01:38:00,58.9,0.0,29.84,NNE,20,7.3,8.9,0,0.00,,---,0.00,VWS V14.00,2013-06-27 05:38:00,
2013-06-27 01:39:00,58.9,0.0,29.83,NE,49,6.2,8.9,0,0.00,,---,0.00,VWS V14.00,2013-06-27 05:39:00,
2013-06-27 01:40:00,58.9,0.0,29.83,North,359,5.6,8.3,0,0.00,,---,0.00,VWS V14.00,2013-06-27 05:40:00,
2013-06-27 01:41:00,58.8,0.0,29.83,North,359,0.0,8.3,0,0.00,,---,0.00,VWS V14.00,2013-06-27 05:41:00,
2013-06-27 01:42:00,58.8,0.0,29.83,NE,46,0.0,8.3,0,0.00,,---,0.00,VWS V14.00,2013-06-27 05:42:00,
2013-06-27 01:43:00,58.8,0.0,29.83,North,359,4.7,8.3,0,0.00,,---,0.00,VWS V14.00,2013-06-27 05:43:00,
2013-06-27 01:44:00,58.7,0.0,29.83,North,359,4.3,8.3,0,0.00,,---,0.00,VWS V14.00,2013-06-27 05:44:00,
2013-06-27 01:45:00,58.8,0.0,29.83,North,10,0.0,9.8,0,0.00,,---,0.00,VWS V14.00,2013-06-27 05:45:00,
2013-06-27 01:46:00,58.8,0.0,29.83,NE,45,0.0,9.8,0,0.00,,---,0.00,VWS V14.00,2013-06-27 05:46:00,
2013-06-27 01:47:00,58.9,0.0,29.83,North,359,2.3,9.8,0,0.00,,---,0.00,VWS V14.00,2013-06-27 05:47:00,
2013-06-27 01:48:00,58.9,0.0,29.83,North,359,7.2,9.8,0,0.00,,---,0.00,VWS V14.00,2013-06-27 05:48:00,
2013-06-27 01:49:00,58.8,0.0,29.83,NNE,24,0.0,9.8,0,0.00,,---,0.00,VWS V14.00,2013-06-27 05:49:00,
2013-06-27 01:50:00,58.8,0.0,29.83,NNE,21,0.0,9.7,0,0.00,,---,0.00,VWS V14.00,2013-06-27 05:50:00,
2013-06-27 01:51:00,58.8,0.0,29.82,NNE,21,0.0,9.7,0,0.00,,---,0.00,VWS V14.00,2013-06-27 05:51:00,
2013-06-27 01:52:00,58.8,0.0,29.82,NNE,14,0.0,9.7,0,0.00,,---,0.00,VWS V14.00,2013-06-27 05:52:00,
2013-06-27 01:53:00,58.8,0.0,29.82,North,6,0.0,9.7,0,0.00,,---,0.00,VWS V14.00,2013-06-27 05:53:00,
2013-06-27 01:54:00,58.8,0.0,29.82,NE,42,4.7,9.7,0,0.00,,---,0.00,VWS V14.00,2013-06-27 05:54:00,
2013-06-27 01:55:00,58.9,0.0,29.82,NE,42,0.0,9.3,0,0.00,,---,0.00,VWS V14.00,2013-06-27 05:55:00,
2013-06-27 01:56:00,58.8,0.0,29.82,NE,42,0.0,9.3,0,0.00,,---,0.00,VWS V14.00,2013-06-27 05:56:00,
2013-06-27 01:57:00,58.9,0.0,29.82,East,84,0.0,9.3,0,0.00,,---,0.00,VWS V14.00,2013-06-27 05:57:00,
2013-06-27 01:58:00,58.9,0.0,29.82,East,84,0.0,9.3,0,0.00,,---,0.00,VWS V14.00,2013-06-27 05:58:00,
2013-06-27 01:59:00,58.9,0.0,29.82,NE,34,0.0,9.3,0,0.00,,---,0.00,VWS V14.00,2013-06-27 05:59:00,
2013-06-27 02:00:00,58.9,0.0,29.82,NNE,25,5.1,9.3,0,0.00,,---,0.00,VWS V14.00,2013-06-27 06:00:00,
2013-06-27 02:01:00,58.9,0.0,29.82,NE,34,0.0,5.9,0,0.00,,---,0.00,VWS V14.00,2013-06-27 06:01:00,
2013-06-27 02:02:00,58.8,0.0,29.82,NNE,24,3.5,5.9,0,0.00,,---,0.00,VWS V14.00,2013-06-27 06:02:00,
2013-06-27 02:03:00,58.8,0.0,29.82,NNE,17,3.4,5.9,0,0.00,,---,0.00,VWS V14.00,2013-06-27 06:03:00,
2013-06-27 02:04:00,58.9,0.0,29.82,NNE,17,0.0,5.9,0,0.00,,---,0.00,VWS V14.00,2013-06-27 06:04:00,
2013-06-27 02:05:00,58.8,0.0,29.82,NNE,17,0.0,7.0,0,0.00,,---,0.00,VWS V14.00,2013-06-27 06:05:00,
2013-06-27 02:06:00,58.9,0.0,29.83,ENE,68,0.0,7.0,0,0.00,,---,0.00,VWS V14.00,2013-06-27 06:06:00,
2013-06-27 02:07:00,59.0,0.0,29.83,North,11,0.0,7.0,0,0.00,,---,0.00,VWS V14.00,2013-06-27 06:07:00,
2013-06-27 02:08:00,58.9,0.0,29.83,North,11,0.0,7.0,0,0.00,,---,0.00,VWS V14.00,2013-06-27 06:08:00,
2013-06-27 02:09:00,58.9,0.0,29.83,North,11,2.3,7.0,0,0.00,,---,0.00,VWS V14.00,2013-06-27 06:09:00,
2013-06-27 02:10:00,58.9,0.0,29.83,NW,315,0.0,5.8,0,0.00,,---,0.00,VWS V14.00,2013-06-27 06:10:00,
2013-06-27 02:11:00,58.9,0.0,29.83,NW,315,0.0,5.8,0,0.00,,---,0.00,VWS V14.00,2013-06-27 06:11:00,
2013-06-27 02:12:00,59.0,0.0,29.83,NW,315,0.0,5.8,0,0.00,,---,0.00,VWS V14.00,2013-06-27 06:12:00,
2013-06-27 02:13:00,59.0,0.0,29.83,NW,315,0.0,5.8,0,0.00,,---,0.00,VWS V14.00,2013-06-27 06:13:00,
2013-06-27 02:14:00,59.0,0.0,29.83,NW,315,0.0,5.8,0,0.00,,---,0.00,VWS V14.00,2013-06-27 06:14:00,
2013-06-27 02:15:00,59.0,0.0,29.83,NNE,28,0.0,4.8,0,0.00,,---,0.00,VWS V14.00,2013-06-27 06:15:00,
2013-06-27 02:16:00,58.9,0.0,29.82,NNE,31,6.5,6.5,0,0.00,,---,0.00,VWS V14.00,2013-06-27 06:16:00,
2013-06-27 02:17:00,58.9,0.0,29.82,ENE,65,3.0,4.8,0,0.00,,---,0.00,VWS V14.00,2013-06-27 06:17:00,
2013-06-27 02:18:00,58.9,0.0,29.82,NE,46,5.0,5.0,0,0.00,,---,0.00,VWS V14.00,2013-06-27 06:18:00,
2013-06-27 02:19:00,58.8,0.0,29.82,NE,46,0.0,4.8,0,0.00,,---,0.00,VWS V14.00,2013-06-27 06:19:00,
2013-06-27 02:20:00,58.9,0.0,29.82,North,359,0.0,9.8,0,0.00,,---,0.00,VWS V14.00,2013-06-27 06:20:00,
2013-06-27 02:21:00,58.9,0.0,29.82,NNE,28,0.0,9.8,0,0.00,,---,0.00,VWS V14.00,2013-06-27 06:21:00,
2013-06-27 02:22:00,58.9,0.0,29.82,ENE,60,0.0,9.8,0,0.00,,---,0.00,VWS V14.00,2013-06-27 06:22:00,
2013-06-27 02:23:00,58.9,0.0,29.82,NE,35,0.0,9.8,0,0.00,,---,0.00,VWS V14.00,2013-06-27 06:23:00,
2013-06-27 02:24:00,58.9,0.0,29.82,NE,35,0.0,9.8,0,0.00,,---,0.00,VWS V14.00,2013-06-27 06:24:00,
2013-06-27 02:25:00,58.9,0.0,29.82,NE,35,0.0,6.8,0,0.00,,---,0.00,VWS V14.00,2013-06-27 06:25:00,
2013-06-27 02:26:00,59.0,0.0,29.82,North,6,0.0,6.8,0,0.00,,---,0.00,VWS V14.00,2013-06-27 06:26:00,
2013-06-27 02:27:00,59.0,0.0,29.82,NE,35,0.0,6.8,0,0.00,,---,0.00,VWS V14.00,2013-06-27 06:27:00,
2013-06-27 02:28:00,59.0,0.0,29.82,North,8,0.0,6.8,0,0.00,,---,0.00,VWS V14.00,2013-06-27 06:28:00,
2013-06-27 02:29:00,59.0,0.0,29.82,NE,45,5.5,6.8,0,0.00,,---,0.00,VWS V14.00,2013-06-27 06:29:00,
2013-06-27 02:30:00,59.0,0.0,29.82,NNE,25,0.0,11.0,0,0.00,,---,0.00,VWS V14.00,2013-06-27 06:30:00,
2013-06-27 02:31:00,59.0,0.0,29.82,NE,49,0.0,11.0,0,0.00,,---,0.00,VWS V14.00,2013-06-27 06:31:00,
2013-06-27 02:32:00,59.0,0.0,29.82,NNE,20,0.0,11.0,0,0.00,,---,0.00,VWS V14.00,2013-06-27 06:32:00,
2013-06-27 02:33:00,59.0,0.0,29.82,NNE,20,0.0,11.0,0,0.00,,---,0.00,VWS V14.00,2013-06-27 06:33:00,
2013-06-27 02:34:00,58.9,0.0,29.82,North,359,0.0,11.0,0,0.00,,---,0.00,VWS V14.00,2013-06-27 06:34:00,
2013-06-27 02:35:00,58.9,0.0,29.82,NNE,28,4.7,8.9,0,0.00,,---,0.00,VWS V14.00,2013-06-27 06:35:00,
2013-06-27 02:36:00,58.8,0.0,29.82,North,359,0.0,8.9,0,0.00,,---,0.00,VWS V14.00,2013-06-27 06:36:00,
2013-06-27 02:37:00,58.8,0.0,29.82,North,7,0.0,8.9,0,0.00,,---,0.00,VWS V14.00,2013-06-27 06:37:00,
2013-06-27 02:38:00,58.8,0.0,29.82,NE,39,5.3,8.9,0,0.00,,---,0.00,VWS V14.00,2013-06-27 06:38:00,
2013-06-27 02:39:00,58.8,0.0,29.82,North,359,0.0,8.9,0,0.00,,---,0.00,VWS V14.00,2013-06-27 06:39:00,
2013-06-27 02:40:00,58.8,0.0,29.82,NNE,20,0.0,9.4,0,0.00,,---,0.00,VWS V14.00,2013-06-27 06:40:00,
2013-06-27 02:41:00,58.9,0.0,29.82,North,7,5.0,9.4,0,0.00,,---,0.00,VWS V14.00,2013-06-27 06:41:00,
2013-06-27 02:42:00,58.9,0.0,29.82,North,4,4.5,9.4,0,0.00,,---,0.00,VWS V14.00,2013-06-27 06:42:00,
2013-06-27 02:43:00,58.9,0.0,29.83,NE,42,0.0,9.4,0,0.00,,---,0.00,VWS V14.00,2013-06-27 06:43:00,
2013-06-27 02:44:00,58.9,0.0,29.83,North,11,4.2,9.4,0,0.00,,---,0.00,VWS V14.00,2013-06-27 06:44:00,
2013-06-27 02:45:00,58.9,0.0,29.83,NNE,17,3.2,7.3,0,0.00,,---,0.00,VWS V14.00,2013-06-27 06:45:00,
2013-06-27 02:46:00,58.9,0.0,29.83,North,359,0.0,7.3,0,0.00,,---,0.00,VWS V14.00,2013-06-27 06:46:00,
2013-06-27 02:47:00,58.9,0.0,29.82,North,359,0.0,7.3,0,0.00,,---,0.00,VWS V14.00,2013-06-27 06:47:00,
2013-06-27 02:48:00,58.8,0.0,29.82,NE,52,0.0,7.3,0,0.00,,---,0.00,VWS V14.00,2013-06-27 06:48:00,
2013-06-27 02:49:00,58.9,0.0,29.82,NE,46,0.0,7.3,0,0.00,,---,0.00,VWS V14.00,2013-06-27 06:49:00,
2013-06-27 02:50:00,58.8,0.0,29.82,NNE,13,0.0,8.8,0,0.00,,---,0.00,VWS V14.00,2013-06-27 06:50:00,
2013-06-27 02:51:00,58.8,0.0,29.82,NNE,32,0.0,8.8,0,0.00,,---,0.00,VWS V14.00,2013-06-27 06:51:00,
2013-06-27 02:52:00,58.8,0.0,29.82,North,3,0.0,8.8,0,0.00,,---,0.00,VWS V14.00,2013-06-27 06:52:00,
2013-06-27 02:53:00,58.8,0.0,29.82,NNE,22,0.0,8.8,0,0.00,,---,0.00,VWS V14.00,2013-06-27 06:53:00,
2013-06-27 02:54:00,58.8,0.0,29.82,NNE,22,0.0,8.8,0,0.00,,---,0.00,VWS V14.00,2013-06-27 06:54:00,
2013-06-27 02:55:00,58.8,0.0,29.82,NNE,27,0.0,4.9,0,0.00,,---,0.00,VWS V14.00,2013-06-27 06:55:00,
2013-06-27 02:56:00,58.8,0.0,29.82,NW,315,4.2,4.9,0,0.00,,---,0.00,VWS V14.00,2013-06-27 06:56:00,
2013-06-27 02:57:00,58.7,0.0,29.82,NE,44,0.0,4.9,0,0.00,,---,0.00,VWS V14.00,2013-06-27 06:57:00,
2013-06-27 02:58:00,58.7,0.0,29.82,NE,44,0.0,4.9,0,0.00,,---,0.00,VWS V14.00,2013-06-27 06:58:00,
2013-06-27 02:59:00,58.7,0.0,29.83,NNE,30,0.0,4.9,0,0.00,,---,0.00,VWS V14.00,2013-06-27 06:59:00,
2013-06-27 03:00:00,58.7,0.0,29.83,NNE,32,0.0,6.6,0,0.00,,---,0.00,VWS V14.00,2013-06-27 07:00:00,
2013-06-27 03:01:00,58.7,0.0,29.83,NNE,32,0.0,6.6,0,0.00,,---,0.00,VWS V14.00,2013-06-27 07:01:00,
2013-06-27 03:02:00,58.8,0.0,29.83,NNE,32,0.0,6.6,0,0.00,,---,0.00,VWS V14.00,2013-06-27 07:02:00,
2013-06-27 03:03:00,58.7,0.0,29.83,NNE,32,0.0,6.6,0,0.00,,---,0.00,VWS V14.00,2013-06-27 07:03:00,
2013-06-27 03:04:00,58.7,0.0,29.82,NNE,32,0.0,6.6,0,0.00,,---,0.00,VWS V14.00,2013-06-27 07:04:00,
2013-06-27 03:05:00,58.7,0.0,29.82,NNE,32,0.0,6.6,0,0.00,,---,0.00,VWS V14.00,2013-06-27 07:05:00,
2013-06-27 03:06:00,58.8,0.0,29.82,NNE,15,0.0,0.0,0,0.00,,---,0.00,VWS V14.00,2013-06-27 07:06:00,
2013-06-27 03:07:00,58.8,0.0,29.82,NNE,15,0.0,0.0,0,0.00,,---,0.00,VWS V14.00,2013-06-27 07:07:00,
2013-06-27 03:08:00,58.8,0.0,29.82,NNE,15,0.0,0.0,0,0.00,,---,0.00,VWS V14.00,2013-06-27 07:08:00,
2013-06-27 03:09:00,58.8,0.0,29.83,NNE,15,0.0,0.0,0,0.00,,---,0.00,VWS V14.00,2013-06-27 07:09:00,
2013-06-27 03:10:00,58.8,0.0,29.83,NE,44,0.0,4.7,0,0.00,,---,0.00,VWS V14.00,2013-06-27 07:10:00,
2013-06-27 03:11:00,58.8,0.0,29.83,NE,44,0.0,4.7,0,0.00,,---,0.00,VWS V14.00,2013-06-27 07:11:00,
2013-06-27 03:12:00,58.8,0.0,29.83,NE,44,0.0,4.7,0,0.00,,---,0.00,VWS V14.00,2013-06-27 07:12:00,
2013-06-27 03:13:00,58.8,0.0,29.83,NE,44,0.0,4.7,0,0.00,,---,0.00,VWS V14.00,2013-06-27 07:13:00,
2013-06-27 03:14:00,58.7,0.0,29.82,NE,44,0.0,4.7,0,0.00,,---,0.00,VWS V14.00,2013-06-27 07:14:00,
2013-06-27 03:15:00,58.8,0.0,29.82,NE,44,0.0,0.0,0,0.00,,---,0.00,VWS V14.00,2013-06-27 07:15:00,
2013-06-27 03:16:00,58.8,0.0,29.82,NE,44,0.0,0.0,0,0.00,,---,0.00,VWS V14.00,2013-06-27 07:16:00,
2013-06-27 03:17:00,58.8,0.0,29.82,NE,44,0.0,0.0,0,0.00,,---,0.00,VWS V14.00,2013-06-27 07:17:00,
2013-06-27 03:18:00,58.8,0.0,29.82,NE,35,4.8,0.0,0,0.00,,---,0.00,VWS V14.00,2013-06-27 07:18:00,
2013-06-27 03:19:00,58.9,0.0,29.82,NE,49,0.0,0.0,0,0.00,,---,0.00,VWS V14.00,2013-06-27 07:19:00,
2013-06-27 03:20:00,58.8,0.0,29.82,NE,49,0.0,5.5,0,0.00,,---,0.00,VWS V14.00,2013-06-27 07:20:00,
2013-06-27 03:21:00,58.8,0.0,29.82,NE,49,0.0,5.5,0,0.00,,---,0.00,VWS V14.00,2013-06-27 07:21:00,
2013-06-27 03:22:00,58.8,0.0,29.82,NE,49,0.0,5.5,0,0.00,,---,0.00,VWS V14.00,2013-06-27 07:22:00,
2013-06-27 03:23:00,58.8,0.0,29.82,NE,49,0.0,5.5,0,0.00,,---,0.00,VWS V14.00,2013-06-27 07:23:00,
2013-06-27 03:24:00,58.7,0.0,29.82,NE,52,4.4,5.5,0,0.00,,---,0.00,VWS V14.00,2013-06-27 07:24:00,
2013-06-27 03:25:00,58.8,0.0,29.82,NNE,30,3.4,6.2,0,0.00,,---,0.00,VWS V14.00,2013-06-27 07:25:00,
2013-06-27 03:26:00,58.8,0.0,29.82,NNE,21,0.0,6.2,0,0.00,,---,0.00,VWS V14.00,2013-06-27 07:26:00,
2013-06-27 03:27:00,58.7,0.0,29.82,NNE,21,0.0,6.2,0,0.00,,---,0.00,VWS V14.00,2013-06-27 07:27:00,
2013-06-27 03:28:00,58.7,0.0,29.82,North,11,3.5,6.2,0,0.00,,---,0.00,VWS V14.00,2013-06-27 07:28:00,
2013-06-27 03:29:00,58.7,0.0,29.81,NE,35,0.0,6.2,0,0.00,,---,0.00,VWS V14.00,2013-06-27 07:29:00,
2013-06-27 03:30:00,58.7,0.0,29.81,NNE,24,5.1,6.6,0,0.00,,---,0.00,VWS V14.00,2013-06-27 07:30:00,
2013-06-27 03:31:00,58.7,0.0,29.82,NE,39,0.0,6.6,0,0.00,,---,0.00,VWS V14.00,2013-06-27 07:31:00,
2013-06-27 03:32:00,58.7,0.0,29.82,NE,39,0.0,6.6,0,0.00,,---,0.00,VWS V14.00,2013-06-27 07:32:00,
2013-06-27 03:33:00,58.6,0.0,29.82,NE,39,0.0,6.6,0,0.00,,---,0.00,VWS V14.00,2013-06-27 07:33:00,
2013-06-27 03:34:00,58.6,0.0,29.82,ENE,58,0.0,6.6,0,0.00,,---,0.00,VWS V14.00,2013-06-27 07:34:00,
2013-06-27 03:35:00,58.6,0.0,29.82,NNE,13,0.0,6.0,0,0.00,,---,0.00,VWS V14.00,2013-06-27 07:35:00,
2013-06-27 03:36:00,58.6,0.0,29.82,NE,55,0.0,6.0,0,0.00,,---,0.00,VWS V14.00,2013-06-27 07:36:00,
2013-06-27 03:37:00,58.7,0.0,29.82,NE,55,0.0,6.0,0,0.00,,---,0.00,VWS V14.00,2013-06-27 07:37:00,
2013-06-27 03:38:00,58.6,0.0,29.82,NE,55,0.0,6.0,0,0.00,,---,0.00,VWS V14.00,2013-06-27 07:38:00,
2013-06-27 03:39:00,58.7,0.0,29.82,NE,55,0.0,6.0,0,0.00,,---,0.00,VWS V14.00,2013-06-27 07:39:00,
2013-06-27 03:40:00,58.7,0.0,29.82,NE,55,0.0,5.2,0,0.00,,---,0.00,VWS V14.00,2013-06-27 07:40:00,
2013-06-27 03:41:00,58.8,0.0,29.82,NE,37,0.0,5.2,0,0.00,,---,0.00,VWS V14.00,2013-06-27 07:41:00,
2013-06-27 03:42:00,58.8,0.0,29.82,NNE,15,4.3,5.2,0,0.00,,---,0.00,VWS V14.00,2013-06-27 07:42:00,
2013-06-27 03:43:00,58.8,0.0,29.83,NNE,15,0.0,5.2,0,0.00,,---,0.00,VWS V14.00,2013-06-27 07:43:00,
2013-06-27 03:44:00,58.7,0.0,29.83,NNE,15,0.0,5.2,0,0.00,,---,0.00,VWS V14.00,2013-06-27 07:44:00,
2013-06-27 03:45:00,58.7,0.0,29.83,NNE,15,0.0,6.9,0,0.00,,---,0.00,VWS V14.00,2013-06-27 07:45:00,
2013-06-27 03:46:00,58.7,0.0,29.83,NNE,32,0.0,6.9,0,0.00,,---,0.00,VWS V14.00,2013-06-27 07:46:00,
2013-06-27 03:47:00,58.6,0.0,29.83,NNE,32,0.0,6.9,0,0.00,,---,0.00,VWS V14.00,2013-06-27 07:47:00,
2013-06-27 03:48:00,58.6,0.0,29.83,NNE,32,0.0,6.9,0,0.00,,---,0.00,VWS V14.00,2013-06-27 07:48:00,
2013-06-27 03:49:00,58.7,0.0,29.83,NNE,32,0.0,6.9,0,0.00,,---,0.00,VWS V14.00,2013-06-27 07:49:00,
2013-06-27 03:50:00,58.5,0.0,29.83,NNE,32,0.0,2.8,0,0.00,,---,0.00,VWS V14.00,2013-06-27 07:50:00,
2013-06-27 03:51:00,58.5,0.0,29.83,NNE,32,0.0,2.8,0,0.00,,---,0.00,VWS V14.00,2013-06-27 07:51:00,
2013-06-27 03:52:00,58.7,0.0,29.83,NNE,32,0.0,2.8,0,0.00,,---,0.00,VWS V14.00,2013-06-27 07:52:00,
2013-06-27 03:53:00,58.7,0.0,29.83,NNE,32,0.0,2.8,0,0.00,,---,0.00,VWS V14.00,2013-06-27 07:53:00,
2013-06-27 03:54:00,58.7,0.0,29.83,NNE,32,0.0,2.8,0,0.00,,---,0.00,VWS V14.00,2013-06-27 07:54:00,
2013-06-27 03:55:00,58.6,0.0,29.83,NNE,32,0.0,0.0,0,0.00,,---,0.00,VWS V14.00,2013-06-27 07:55:00,
2013-06-27 03:56:00,58.5,0.0,29.83,NNE,32,0.0,0.0,0,0.00,,---,0.00,VWS V14.00,2013-06-27 07:56:00,
2013-06-27 03:57:00,58.5,0.0,29.83,NNE,32,0.0,0.0,0,0.00,,---,0.00,VWS V14.00,2013-06-27 07:57:00,
2013-06-27 03:58:00,58.6,0.0,29.83,NNE,32,0.0,0.0,0,0.00,,---,0.00,VWS V14.00,2013-06-27 07:58:00,
2013-06-27 03:59:00,58.7,0.0,29.83,NNE,32,0.0,0.0,0,0.00,,---,0.00,VWS V14.00,2013-06-27 07:59:00,
2013-06-27 04:00:00,58.8,0.0,29.83,NNE,32,0.0,0.0,0,0.00,,---,0.00,VWS V14.00,2013-06-27 08:00:00,
2013-06-27 04:01:00,58.7,0.0,29.83,NNE,22,0.0,0.0,0,0.00,,---,0.00,VWS V14.00,2013-06-27 08:01:00,
2013-06-27 04:02:00,58.7,0.0,29.83,NNE,24,0.0,0.0,0,0.00,,---,0.00,VWS V14.00,2013-06-27 08:02:00,
2013-06-27 04:03:00,58.7,0.0,29.83,NNE,24,0.0,0.0,0,0.00,,---,0.00,VWS V14.00,2013-06-27 08:03:00,
2013-06-27 04:04:00,58.7,0.0,29.83,North,356,0.0,0.0,0,0.00,,---,0.00,VWS V14.00,2013-06-27 08:04:00,
2013-06-27 04:05:00,58.6,0.0,29.82,North,356,0.0,0.0,0,0.00,,---,0.00,VWS V14.00,2013-06-27 08:05:00,
2013-06-27 04:06:00,58.6,0.0,29.82,NNE,21,0.0,6.3,0,0.00,,---,0.00,VWS V14.00,2013-06-27 08:06:00,
2013-06-27 04:07:00,58.5,0.0,29.82,North,4,5.9,6.3,0,0.00,,---,0.00,VWS V14.00,2013-06-27 08:07:00,
2013-06-27 04:08:00,58.5,0.0,29.82,NNE,21,0.0,6.3,0,0.00,,---,0.00,VWS V14.00,2013-06-27 08:08:00,
2013-06-27 04:09:00,58.6,0.0,29.82,NNE,21,3.4,6.3,0,0.00,,---,0.00,VWS V14.00,2013-06-27 08:09:00,
2013-06-27 04:10:00,58.5,0.0,29.82,NNE,21,0.0,6.3,0,0.00,,---,0.00,VWS V14.00,2013-06-27 08:10:00,
2013-06-27 04:11:00,58.6,0.0,29.82,NNE,21,0.0,7.7,0,0.00,,---,0.00,VWS V14.00,2013-06-27 08:11:00,
2013-06-27 04:12:00,58.6,0.0,29.82,North,359,0.0,7.7,0,0.00,,---,0.00,VWS V14.00,2013-06-27 08:12:00,
2013-06-27 04:13:00,58.6,0.0,29.82,NE,37,6.0,7.7,0,0.00,,---,0.00,VWS V14.00,2013-06-27 08:13:00,
2013-06-27 04:14:00,58.5,0.0,29.82,NE,35,5.7,7.7,0,0.00,,---,0.00,VWS V14.00,2013-06-27 08:14:00,
2013-06-27 04:15:00,58.5,0.0,29.82,North,1,0.0,9.5,0,0.00,,---,0.00,VWS V14.00,2013-06-27 08:15:00,
2013-06-27 04:16:00,58.4,0.0,29.82,NNE,24,0.0,9.5,0,0.00,,---,0.00,VWS V14.00,2013-06-27 08:16:00,
2013-06-27 04:17:00,58.4,0.0,29.82,NNE,24,0.0,9.5,0,0.00,,---,0.00,VWS V14.00,2013-06-27 08:17:00,
2013-06-27 04:18:00,58.5,0.0,29.82,NNE,24,0.0,9.5,0,0.00,,---,0.00,VWS V14.00,2013-06-27 08:18:00,
2013-06-27 04:19:00,58.6,0.0,29.82,NE,39,0.0,9.5,0,0.00,,---,0.00,VWS V14.00,2013-06-27 08:19:00,
2013-06-27 04:20:00,58.6,0.0,29.82,NE,44,0.0,8.4,0,0.00,,---,0.00,VWS V14.00,2013-06-27 08:20:00,
2013-06-27 04:21:00,58.5,0.0,29.82,NE,44,0.0,8.4,0,0.00,,---,0.00,VWS V14.00,2013-06-27 08:21:00,
2013-06-27 04:22:00,58.5,0.0,29.82,NE,44,0.0,8.4,0,0.00,,---,0.00,VWS V14.00,2013-06-27 08:22:00,
2013-06-27 04:23:00,58.5,0.0,29.82,NE,44,0.0,8.4,0,0.00,,---,0.00,VWS V14.00,2013-06-27 08:23:00,
2013-06-27 04:24:00,58.6,0.0,29.82,NE,44,0.0,8.4,0,0.00,,---,0.00,VWS V14.00,2013-06-27 08:24:00,
2013-06-27 04:25:00,58.7,0.0,29.82,ENE,63,4.2,5.8,0,0.00,,---,0.00,VWS V14.00,2013-06-27 08:25:00,
2013-06-27 04:26:00,58.7,0.0,29.83,NNE,28,0.0,5.8,0,0.00,,---,0.00,VWS V14.00,2013-06-27 08:26:00,
2013-06-27 04:27:00,58.7,0.0,29.83,NE,39,4.2,5.8,0,0.00,,---,0.00,VWS V14.00,2013-06-27 08:27:00,
2013-06-27 04:28:00,58.7,0.0,29.83,ENE,76,0.0,5.8,0,0.00,,---,0.00,VWS V14.00,2013-06-27 08:28:00,
2013-06-27 04:29:00,58.6,0.0,29.83,North,1,3.2,5.8,0,0.00,,---,0.00,VWS V14.00,2013-06-27 08:29:00,
2013-06-27 04:30:00,58.6,0.0,29.83,North,1,0.0,7.3,0,0.00,,---,0.00,VWS V14.00,2013-06-27 08:30:00,
2013-06-27 04:31:00,58.5,0.0,29.83,North,1,0.0,7.3,0,0.00,,---,0.00,VWS V14.00,2013-06-27 08:31:00,
2013-06-27 04:32:00,58.6,0.0,29.83,NNW,346,3.4,7.3,0,0.00,,---,0.00,VWS V14.00,2013-06-27 08:32:00,
2013-06-27 04:33:00,58.5,0.0,29.83,NNW,346,0.0,7.3,0,0.00,,---,0.00,VWS V14.00,2013-06-27 08:33:00,
2013-06-27 04:34:00,58.6,0.0,29.83,NNW,346,0.0,7.3,0,0.00,,---,0.00,VWS V14.00,2013-06-27 08:34:00,
2013-06-27 04:35:00,58.6,0.0,29.83,NNW,346,0.0,3.4,0,0.00,,---,0.00,VWS V14.00,2013-06-27 08:35:00,
2013-06-27 04:36:00,58.7,0.0,29.83,NNW,346,0.0,3.4,0,0.00,,---,0.00,VWS V14.00,2013-06-27 08:36:00,
2013-06-27 04:37:00,58.6,0.0,29.84,NNW,346,0.0,3.4,0,0.00,,---,0.00,VWS V14.00,2013-06-27 08:37:00,
2013-06-27 04:38:00,58.6,0.0,29.84,NNW,346,0.0,3.4,0,0.00,,---,0.00,VWS V14.00,2013-06-27 08:38:00,
2013-06-27 04:39:00,58.5,0.0,29.83,NE,46,0.0,3.4,0,0.00,,---,0.00,VWS V14.00,2013-06-27 08:39:00,
2013-06-27 04:40:00,58.5,0.0,29.83,North,0,3.4,8.6,0,0.00,,---,0.00,VWS V14.00,2013-06-27 08:40:00,
2013-06-27 04:41:00,58.5,0.0,29.83,North,0,0.0,8.6,0,0.00,,---,0.00,VWS V14.00,2013-06-27 08:41:00,
2013-06-27 04:42:00,58.6,0.0,29.83,NE,53,5.3,8.6,0,0.00,,---,0.00,VWS V14.00,2013-06-27 08:42:00,
2013-06-27 04:43:00,58.5,0.0,29.83,NNE,32,0.0,8.6,0,0.00,,---,0.00,VWS V14.00,2013-06-27 08:43:00,
2013-06-27 04:44:00,58.5,0.0,29.83,NNE,13,0.0,8.6,0,0.00,,---,0.00,VWS V14.00,2013-06-27 08:44:00,
2013-06-27 04:45:00,58.6,0.0,29.83,NNE,13,0.0,8.1,0,0.00,,---,0.00,VWS V14.00,2013-06-27 08:45:00,
2013-06-27 04:46:00,58.6,0.0,29.83,NNE,13,0.0,8.1,0,0.00,,---,0.00,VWS V14.00,2013-06-27 08:46:00,
2013-06-27 04:47:00,58.5,0.0,29.84,ENE,59,7.0,8.1,0,0.00,,---,0.00,VWS V14.00,2013-06-27 08:47:00,
2013-06-27 04:48:00,58.6,0.0,29.83,ENE,68,3.5,8.1,0,0.00,,---,0.00,VWS V14.00,2013-06-27 08:48:00,
2013-06-27 04:49:00,58.5,0.0,29.83,ENE,68,0.0,8.1,0,0.00,,---,0.00,VWS V14.00,2013-06-27 08:49:00,
2013-06-27 04:50:00,58.5,0.0,29.83,North,359,0.0,8.0,0,0.00,,---,0.00,VWS V14.00,2013-06-27 08:50:00,
2013-06-27 04:51:00,58.6,0.0,29.84,NNE,25,7.6,8.0,0,0.00,,---,0.00,VWS V14.00,2013-06-27 08:51:00,
2013-06-27 04:52:00,58.5,0.0,29.83,NE,52,0.0,8.0,0,0.00,,---,0.00,VWS V14.00,2013-06-27 08:52:00,
2013-06-27 04:53:00,58.5,0.0,29.83,NE,39,5.6,8.0,0,0.00,,---,0.00,VWS V14.00,2013-06-27 08:53:00,
2013-06-27 04:54:00,58.5,0.0,29.83,NNE,27,0.0,8.0,0,0.00,,---,0.00,VWS V14.00,2013-06-27 08:54:00,
2013-06-27 04:55:00,58.4,0.0,29.83,NNE,20,7.1,8.9,0,0.00,,---,0.00,VWS V14.00,2013-06-27 08:55:00,
2013-06-27 04:56:00,58.4,0.0,29.83,NNE,24,0.0,8.9,0,0.00,,---,0.00,VWS V14.00,2013-06-27 08:56:00,
2013-06-27 04:57:00,58.4,0.0,29.83,NNE,24,0.0,8.9,0,0.00,,---,0.00,VWS V14.00,2013-06-27 08:57:00,
2013-06-27 04:58:00,58.4,0.0,29.83,NNE,24,0.0,8.9,0,0.00,,---,0.00,VWS V14.00,2013-06-27 08:58:00,
2013-06-27 04:59:00,58.4,0.0,29.83,NNE,25,0.0,8.9,0,0.00,,---,0.00,VWS V14.00,2013-06-27 08:59:00,
2013-06-27 05:00:00,58.4,0.0,29.83,NNE,22,4.1,7.8,0,0.00,,---,0.00,VWS V14.00,2013-06-27 09:00:00,
2013-06-27 05:01:00,58.3,0.0,29.83,NNE,22,0.0,7.8,0,0.00,,---,0.00,VWS V14.00,2013-06-27 09:01:00,
2013-06-27 05:02:00,58.3,0.0,29.83,NE,55,0.0,7.8,0,0.00,,---,0.00,VWS V14.00,2013-06-27 09:02:00,
2013-06-27 05:03:00,58.4,0.0,29.83,ENE,68,0.0,7.8,0,0.00,,---,0.00,VWS V14.00,2013-06-27 09:03:00,
2013-06-27 05:04:00,58.4,0.0,29.83,ENE,68,0.0,7.8,0,0.00,,---,0.00,VWS V14.00,2013-06-27 09:04:00,
2013-06-27 05:05:00,58.5,0.0,29.83,ENE,68,0.0,4.6,0,0.00,,---,0.00,VWS V14.00,2013-06-27 09:05:00,
2013-06-27 05:06:00,58.6,0.0,29.83,ENE,68,0.0,4.6,0,0.00,,---,0.00,VWS V14.00,2013-06-27 09:06:00,
2013-06-27 05:07:00,58.7,0.0,29.83,NE,44,0.0,4.6,0,0.00,,---,0.00,VWS V14.00,2013-06-27 09:07:00,
2013-06-27 05:08:00,58.6,0.0,29.83,NE,37,0.0,4.6,0,0.00,,---,0.00,VWS V14.00,2013-06-27 09:08:00,
2013-06-27 05:09:00,58.6,0.0,29.83,North,6,4.1,4.6,0,0.00,,---,0.00,VWS V14.00,2013-06-27 09:09:00,
2013-06-27 05:10:00,58.6,0.0,29.83,NNE,20,0.0,4.6,0,0.00,,---,0.00,VWS V14.00,2013-06-27 09:10:00,
2013-06-27 05:11:00,58.5,0.0,29.83,North,359,0.0,5.7,0,0.00,,---,0.00,VWS V14.00,2013-06-27 09:11:00,
2013-06-27 05:12:00,58.4,0.0,29.83,NE,38,4.3,5.7,0,0.00,,---,0.00,VWS V14.00,2013-06-27 09:12:00,
2013-06-27 05:13:00,58.4,0.0,29.83,NNE,25,4.8,5.7,0,0.00,,---,0.00,VWS V14.00,2013-06-27 09:13:00,
2013-06-27 05:14:00,58.5,0.0,29.83,NNE,25,0.0,5.7,0,0.00,,---,0.00,VWS V14.00,2013-06-27 09:14:00,
2013-06-27 05:15:00,58.6,0.0,29.82,NE,53,0.0,5.7,0,0.00,,---,0.00,VWS V14.00,2013-06-27 09:15:00,
2013-06-27 05:16:00,58.6,0.0,29.82,NNE,24,3.3,7.8,0,0.00,,---,0.00,VWS V14.00,2013-06-27 09:16:00,
2013-06-27 05:17:00,58.5,0.0,29.82,NNE,17,0.0,7.8,0,0.00,,---,0.00,VWS V14.00,2013-06-27 09:17:00,
2013-06-27 05:18:00,58.5,0.0,29.82,NNE,17,0.0,7.8,0,0.00,,---,0.00,VWS V14.00,2013-06-27 09:18:00,
2013-06-27 05:19:00,58.4,0.0,29.83,NNE,32,0.0,7.8,0,0.00,,---,0.00,VWS V14.00,2013-06-27 09:19:00,
2013-06-27 05:20:00,58.4,0.0,29.83,NNE,32,0.0,7.5,0,0.00,,---,0.00,VWS V14.00,2013-06-27 09:20:00,
2013-06-27 05:21:00,58.4,0.0,29.83,ENE,58,2.4,7.5,0,0.00,,---,0.00,VWS V14.00,2013-06-27 09:21:00,
2013-06-27 05:22:00,58.4,0.0,29.83,NE,49,0.0,7.5,0,0.00,,---,0.00,VWS V14.00,2013-06-27 09:22:00,
2013-06-27 05:23:00,58.5,0.0,29.83,NE,49,0.0,7.5,0,0.00,,---,0.00,VWS V14.00,2013-06-27 09:23:00,
2013-06-27 05:24:00,58.7,0.0,29.83,NE,49,0.0,7.5,0,0.00,,---,0.00,VWS V14.00,2013-06-27 09:24:00,
2013-06-27 05:25:00,58.8,0.0,29.83,NE,45,0.0,7.0,0,0.00,,---,0.00,VWS V14.00,2013-06-27 09:25:00,
2013-06-27 05:26:00,58.6,0.0,29.83,NNE,20,0.0,7.0,0,0.00,,---,0.00,VWS V14.00,2013-06-27 09:26:00,
2013-06-27 05:27:00,58.5,0.0,29.83,NNE,18,0.0,7.0,0,0.00,,---,0.00,VWS V14.00,2013-06-27 09:27:00,
2013-06-27 05:28:00,58.6,0.0,29.83,NNE,18,0.0,7.0,0,0.00,,---,0.00,VWS V14.00,2013-06-27 09:28:00,
2013-06-27 05:29:00,58.6,0.0,29.82,NNE,18,0.0,7.0,0,0.00,,---,0.00,VWS V14.00,2013-06-27 09:29:00,
2013-06-27 05:30:00,58.6,0.0,29.82,NNE,18,0.0,4.7,0,0.00,,---,0.00,VWS V14.00,2013-06-27 09:30:00,
2013-06-27 05:31:00,58.7,0.0,29.82,NE,42,7.2,7.2,0,0.00,,---,0.00,VWS V14.00,2013-06-27 09:31:00,
2013-06-27 05:32:00,58.8,0.0,29.82,NNE,27,0.0,4.7,0,0.00,,---,0.00,VWS V14.00,2013-06-27 09:32:00,
2013-06-27 05:33:00,58.8,0.0,29.82,NE,38,4.3,4.7,0,0.00,,---,0.00,VWS V14.00,2013-06-27 09:33:00,
2013-06-27 05:34:00,58.8,0.0,29.82,NNE,14,0.0,4.7,0,0.00,,---,0.00,VWS V14.00,2013-06-27 09:34:00,
2013-06-27 05:35:00,58.8,0.0,29.82,NE,53,0.0,7.7,0,0.00,,---,0.00,VWS V14.00,2013-06-27 09:35:00,
2013-06-27 05:36:00,58.8,0.0,29.82,NE,46,5.5,7.7,0,0.00,,---,0.00,VWS V14.00,2013-06-27 09:36:00,
2013-06-27 05:37:00,58.7,0.0,29.82,NE,55,5.8,7.7,0,0.00,,---,0.00,VWS V14.00,2013-06-27 09:37:00,
2013-06-27 05:38:00,58.7,0.0,29.83,North,359,0.0,7.7,0,0.00,,---,0.00,VWS V14.00,2013-06-27 09:38:00,
2013-06-27 05:39:00,58.7,0.0,29.83,NNE,25,0.0,7.7,0,0.00,,---,0.00,VWS V14.00,2013-06-27 09:39:00,
2013-06-27 05:40:00,58.7,0.0,29.83,NE,53,6.2,8.0,0,0.00,,---,0.00,VWS V14.00,2013-06-27 09:40:00,
2013-06-27 05:41:00,58.8,0.0,29.83,NE,35,0.0,8.0,0,0.00,,---,0.00,VWS V14.00,2013-06-27 09:41:00,
2013-06-27 05:42:00,58.8,0.0,29.84,NNE,20,0.0,8.0,0,0.00,,---,0.00,VWS V14.00,2013-06-27 09:42:00,
2013-06-27 05:43:00,58.8,0.0,29.84,NNE,20,0.0,8.0,0,0.00,,---,0.00,VWS V14.00,2013-06-27 09:43:00,
2013-06-27 05:44:00,58.8,0.0,29.84,NE,44,3.4,8.0,0,0.00,,---,0.00,VWS V14.00,2013-06-27 09:44:00,
2013-06-27 05:45:00,58.8,0.0,29.84,NE,44,0.0,8.1,0,0.00,,---,0.00,VWS V14.00,2013-06-27 09:45:00,
2013-06-27 05:46:00,58.8,0.0,29.84,NE,44,0.0,8.1,0,0.00,,---,0.00,VWS V14.00,2013-06-27 09:46:00,
2013-06-27 05:47:00,58.8,0.0,29.84,NE,44,0.0,8.1,0,0.00,,---,0.00,VWS V14.00,2013-06-27 09:47:00,
2013-06-27 05:48:00,58.9,0.0,29.84,NE,44,0.0,8.1,0,0.00,,---,0.00,VWS V14.00,2013-06-27 09:48:00,
2013-06-27 05:49:00,58.9,0.0,29.84,NE,44,0.0,8.1,0,0.00,,---,0.00,VWS V14.00,2013-06-27 09:49:00,
2013-06-27 05:50:00,59.0,0.0,29.84,NE,44,0.0,0.0,0,0.00,,---,0.00,VWS V14.00,2013-06-27 09:50:00,
2013-06-27 05:51:00,58.9,0.0,29.85,NE,44,0.0,0.0,0,0.00,,---,0.00,VWS V14.00,2013-06-27 09:51:00,
2013-06-27 05:52:00,59.0,0.0,29.85,NE,44,0.0,0.0,0,0.00,,---,0.00,VWS V14.00,2013-06-27 09:52:00,
2013-06-27 05:53:00,59.0,0.0,29.85,NE,44,0.0,0.0,0,0.00,,---,0.00,VWS V14.00,2013-06-27 09:53:00,
2013-06-27 05:54:00,59.1,0.0,29.85,NE,44,0.0,0.0,0,0.00,,---,0.00,VWS V14.00,2013-06-27 09:54:00,
2013-06-27 05:55:00,59.1,0.0,29.85,NE,44,0.0,0.0,0,0.00,,---,0.00,VWS V14.00,2013-06-27 09:55:00,
2013-06-27 05:56:00,59.1,0.0,29.85,NE,44,0.0,0.0,0,0.00,,---,0.00,VWS V14.00,2013-06-27 09:56:00,
2013-06-27 05:57:00,59.1,0.0,29.85,NE,44,0.0,0.0,0,0.00,,---,0.00,VWS V14.00,2013-06-27 09:57:00,
2013-06-27 05:58:00,59.1,0.0,29.85,NE,44,0.0,0.0,0,0.00,,---,0.00,VWS V14.00,2013-06-27 09:58:00,
2013-06-27 05:59:00,59.1,0.0,29.85,NE,44,0.0,0.0,0,0.00,,---,0.00,VWS V14.00,2013-06-27 09:59:00,
2013-06-27 06:00:00,59.1,0.0,29.85,NE,44,0.0,0.0,0,0.00,,---,0.00,VWS V14.00,2013-06-27 10:00:00,
2013-06-27 06:01:00,59.2,0.0,29.85,NE,44,0.0,0.0,0,0.00,,---,0.00,VWS V14.00,2013-06-27 10:01:00,
2013-06-27 06:02:00,59.2,0.0,29.86,NE,44,0.0,0.0,0,0.00,,---,0.00,VWS V14.00,2013-06-27 10:02:00,
2013-06-27 06:03:00,59.2,0.0,29.86,NE,44,0.0,0.0,0,0.00,,---,0.00,VWS V14.00,2013-06-27 10:03:00,
2013-06-27 06:04:00,59.2,0.0,29.86,NE,44,0.0,0.0,0,0.00,,---,0.00,VWS V14.00,2013-06-27 10:04:00,
2013-06-27 06:05:00,59.2,0.0,29.86,NE,44,0.0,0.0,0,0.00,,---,0.00,VWS V14.00,2013-06-27 10:05:00,
2013-06-27 06:06:00,59.2,0.0,29.86,NE,44,0.0,0.0,0,0.00,,---,0.00,VWS V14.00,2013-06-27 10:06:00,
2013-06-27 06:07:00,59.2,0.0,29.86,NE,44,0.0,0.0,0,0.00,,---,0.00,VWS V14.00,2013-06-27 10:07:00,
2013-06-27 06:08:00,59.2,0.0,29.86,NE,44,0.0,0.0,0,0.00,,---,0.00,VWS V14.00,2013-06-27 10:08:00,
2013-06-27 06:09:00,59.2,0.0,29.86,NE,44,0.0,0.0,0,0.00,,---,0.00,VWS V14.00,2013-06-27 10:09:00,
2013-06-27 06:10:00,59.2,0.0,29.86,NE,44,0.0,0.0,0,0.00,,---,0.00,VWS V14.00,2013-06-27 10:10:00,
2013-06-27 06:11:00,59.2,0.0,29.86,NE,44,0.0,0.0,0,0.00,,---,0.00,VWS V14.00,2013-06-27 10:11:00,
2013-06-27 06:12:00,59.2,0.0,29.86,NE,44,0.0,0.0,0,0.00,,---,0.00,VWS V14.00,2013-06-27 10:12:00,
2013-06-27 06:13:00,59.2,0.0,29.86,NE,44,0.0,0.0,0,0.00,,---,0.00,VWS V14.00,2013-06-27 10:13:00,
2013-06-27 06:14:00,59.2,0.0,29.86,NE,44,0.0,0.0,0,0.00,,---,0.00,VWS V14.00,2013-06-27 10:14:00,
2013-06-27 06:15:00,59.2,0.0,29.86,NE,44,0.0,0.0,0,0.00,,---,0.00,VWS V14.00,2013-06-27 10:15:00,
2013-06-27 06:16:00,59.3,0.0,29.86,NE,44,0.0,0.0,0,0.00,,---,0.00,VWS V14.00,2013-06-27 10:16:00,
2013-06-27 06:17:00,59.3,0.0,29.86,NE,44,0.0,0.0,0,0.00,,---,0.00,VWS V14.00,2013-06-27 10:17:00,
2013-06-27 06:18:00,59.3,0.0,29.86,NE,44,0.0,0.0,0,0.00,,---,0.00,VWS V14.00,2013-06-27 10:18:00,
2013-06-27 06:19:00,59.3,0.0,29.86,NE,44,0.0,0.0,0,0.00,,---,0.00,VWS V14.00,2013-06-27 10:19:00,
2013-06-27 06:20:00,59.3,0.0,29.86,NE,44,0.0,0.0,0,0.00,,---,0.00,VWS V14.00,2013-06-27 10:20:00,
2013-06-27 06:21:00,59.4,0.0,29.86,NE,44,0.0,0.0,0,0.00,,---,0.00,VWS V14.00,2013-06-27 10:21:00,
2013-06-27 06:22:00,59.3,0.0,29.87,NE,44,0.0,0.0,0,0.00,,---,0.00,VWS V14.00,2013-06-27 10:22:00,
2013-06-27 06:23:00,59.2,0.0,29.87,NE,44,0.0,0.0,0,0.00,,---,0.00,VWS V14.00,2013-06-27 10:23:00,
2013-06-27 06:24:00,59.2,0.0,29.87,NE,44,0.0,0.0,0,0.00,,---,0.00,VWS V14.00,2013-06-27 10:24:00,
2013-06-27 06:25:00,59.1,0.0,29.87,NE,44,0.0,0.0,0,0.00,,---,0.00,VWS V14.00,2013-06-27 10:25:00,
2013-06-27 06:26:00,59.2,0.0,29.87,NE,44,0.0,0.0,0,0.00,,---,0.00,VWS V14.00,2013-06-27 10:26:00,
2013-06-27 06:27:00,59.3,0.0,29.87,NE,44,0.0,0.0,0,0.00,,---,0.00,VWS V14.00,2013-06-27 10:27:00,
2013-06-27 06:28:00,59.4,0.0,29.87,NE,44,0.0,0.0,0,0.00,,---,0.00,VWS V14.00,2013-06-27 10:28:00,
2013-06-27 06:29:00,59.4,0.0,29.87,NE,44,0.0,0.0,0,0.00,,---,0.00,VWS V14.00,2013-06-27 10:29:00,
2013-06-27 06:30:00,59.4,0.0,29.87,NE,44,0.0,0.0,0,0.00,,---,0.00,VWS V14.00,2013-06-27 10:30:00,
2013-06-27 06:31:00,59.4,0.0,29.86,NE,44,0.0,0.0,0,0.00,,---,0.00,VWS V14.00,2013-06-27 10:31:00,
2013-06-27 06:32:00,59.4,0.0,29.86,NE,44,0.0,0.0,0,0.00,,---,0.00,VWS V14.00,2013-06-27 10:32:00,
2013-06-27 06:33:00,59.4,0.0,29.86,NE,44,0.0,0.0,0,0.00,,---,0.00,VWS V14.00,2013-06-27 10:33:00,
2013-06-27 06:34:00,59.4,0.0,29.86,NE,44,0.0,0.0,0,0.00,,---,0.00,VWS V14.00,2013-06-27 10:34:00,
2013-06-27 06:35:00,59.4,0.0,29.86,NE,44,0.0,0.0,0,0.00,,---,0.00,VWS V14.00,2013-06-27 10:35:00,
2013-06-27 06:36:00,59.4,0.0,29.86,NE,44,0.0,0.0,0,0.00,,---,0.00,VWS V14.00,2013-06-27 10:36:00,
2013-06-27 06:37:00,59.4,0.0,29.86,NE,44,0.0,0.0,0,0.00,,---,0.00,VWS V14.00,2013-06-27 10:37:00,
2013-06-27 06:38:00,59.3,0.0,29.86,NE,44,0.0,0.0,0,0.00,,---,0.00,VWS V14.00,2013-06-27 10:38:00,
2013-06-27 06:39:00,59.4,0.0,29.86,NE,44,0.0,0.0,0,0.00,,---,0.00,VWS V14.00,2013-06-27 10:39:00,
2013-06-27 06:40:00,59.5,0.0,29.86,NE,44,0.0,0.0,0,0.00,,---,0.00,VWS V14.00,2013-06-27 10:40:00,
2013-06-27 06:41:00,59.5,0.0,29.86,NE,44,0.0,0.0,0,0.00,,---,0.00,VWS V14.00,2013-06-27 10:41:00,
2013-06-27 06:42:00,59.5,0.0,29.86,NE,44,0.0,0.0,0,0.00,,---,0.00,VWS V14.00,2013-06-27 10:42:00,
2013-06-27 06:43:00,59.4,0.0,29.86,NE,44,0.0,0.0,0,0.00,,---,0.00,VWS V14.00,2013-06-27 10:43:00,
2013-06-27 06:44:00,59.5,0.0,29.86,NE,44,0.0,0.0,0,0.00,,---,0.00,VWS V14.00,2013-06-27 10:44:00,
2013-06-27 06:45:00,59.4,0.0,29.86,NE,44,0.0,0.0,0,0.00,,---,0.00,VWS V14.00,2013-06-27 10:45:00,
2013-06-27 06:46:00,59.5,0.0,29.85,NE,44,0.0,0.0,0,0.00,,---,0.00,VWS V14.00,2013-06-27 10:46:00,
2013-06-27 06:47:00,59.5,0.0,29.86,NE,44,0.0,0.0,0,0.00,,---,0.00,VWS V14.00,2013-06-27 10:47:00,
2013-06-27 06:48:00,59.6,0.0,29.86,NE,44,0.0,0.0,0,0.00,,---,0.00,VWS V14.00,2013-06-27 10:48:00,
2013-06-27 06:49:00,59.6,0.0,29.86,NE,44,0.0,0.0,0,0.00,,---,0.00,VWS V14.00,2013-06-27 10:49:00,
2013-06-27 06:50:00,59.6,0.0,29.86,NE,44,0.0,0.0,0,0.00,,---,0.00,VWS V14.00,2013-06-27 10:50:00,
2013-06-27 06:51:00,59.6,0.0,29.85,NE,44,0.0,0.0,0,0.00,,---,0.00,VWS V14.00,2013-06-27 10:51:00,
2013-06-27 06:52:00,59.7,0.0,29.85,NE,44,0.0,0.0,0,0.00,,---,0.00,VWS V14.00,2013-06-27 10:52:00,
2013-06-27 06:53:00,59.7,0.0,29.85,NE,44,0.0,0.0,0,0.00,,---,0.00,VWS V14.00,2013-06-27 10:53:00,
2013-06-27 06:54:00,59.7,0.0,29.85,NE,44,0.0,0.0,0,0.00,,---,0.00,VWS V14.00,2013-06-27 10:54:00,
2013-06-27 06:55:00,59.6,0.0,29.85,NE,44,0.0,0.0,0,0.00,,---,0.00,VWS V14.00,2013-06-27 10:55:00,
2013-06-27 06:56:00,59.6,0.0,29.85,NE,44,0.0,0.0,0,0.00,,---,0.00,VWS V14.00,2013-06-27 10:56:00,
2013-06-27 06:57:00,59.6,0.0,29.85,NE,44,0.0,0.0,0,0.00,,---,0.00,VWS V14.00,2013-06-27 10:57:00,
2013-06-27 06:58:00,59.7,0.0,29.85,NE,44,0.0,0.0,0,0.00,,---,0.00,VWS V14.00,2013-06-27 10:58:00,
2013-06-27 06:59:00,59.6,0.0,29.85,NE,44,0.0,0.0,0,0.00,,---,0.00,VWS V14.00,2013-06-27 10:59:00,
2013-06-27 07:00:00,59.5,0.0,29.85,NE,44,0.0,0.0,0,0.00,,---,0.00,VWS V14.00,2013-06-27 11:00:00,
2013-06-27 07:01:00,59.6,0.0,29.85,NE,44,0.0,0.0,0,0.00,,---,0.00,VWS V14.00,2013-06-27 11:01:00,
2013-06-27 07:02:00,59.6,0.0,29.85,NE,44,0.0,0.0,0,0.00,,---,0.00,VWS V14.00,2013-06-27 11:02:00,
2013-06-27 07:03:00,59.6,0.0,29.85,NE,44,0.0,0.0,0,0.00,,---,0.00,VWS V14.00,2013-06-27 11:03:00,
2013-06-27 07:04:00,59.6,0.0,29.85,NE,44,0.0,0.0,0,0.00,,---,0.00,VWS V14.00,2013-06-27 11:04:00,
2013-06-27 07:05:00,59.6,0.0,29.85,NE,44,0.0,0.0,0,0.00,,---,0.00,VWS V14.00,2013-06-27 11:05:00,
2013-06-27 07:06:00,59.5,0.0,29.85,NE,44,0.0,0.0,0,0.00,,---,0.00,VWS V14.00,2013-06-27 11:06:00,
2013-06-27 07:07:00,59.4,0.0,29.85,NE,44,0.0,0.0,0,0.00,,---,0.00,VWS V14.00,2013-06-27 11:07:00,
2013-06-27 07:08:00,59.5,0.0,29.85,ENE,70,0.0,0.0,0,0.00,,---,0.00,VWS V14.00,2013-06-27 11:08:00,
2013-06-27 07:09:00,59.5,0.0,29.85,ENE,70,0.0,0.0,0,0.00,,---,0.00,VWS V14.00,2013-06-27 11:09:00,
2013-06-27 07:10:00,59.4,0.0,29.85,ENE,70,0.0,1.9,0,0.00,,---,0.00,VWS V14.00,2013-06-27 11:10:00,
2013-06-27 07:11:00,59.5,0.0,29.85,ENE,70,0.0,1.9,0,0.00,,---,0.00,VWS V14.00,2013-06-27 11:11:00,
2013-06-27 07:12:00,59.5,0.0,29.85,ENE,70,0.0,1.9,0,0.00,,---,0.00,VWS V14.00,2013-06-27 11:12:00,
2013-06-27 07:13:00,59.5,0.0,29.85,ENE,70,0.0,1.9,0,0.00,,---,0.00,VWS V14.00,2013-06-27 11:13:00,
2013-06-27 07:14:00,59.5,0.0,29.85,ENE,70,0.0,1.9,0,0.00,,---,0.00,VWS V14.00,2013-06-27 11:14:00,
2013-06-27 07:15:00,59.5,0.0,29.85,ENE,70,0.0,1.9,0,0.00,,---,0.00,VWS V14.00,2013-06-27 11:15:00,
2013-06-27 07:16:00,59.6,0.0,29.85,ENE,70,0.0,0.0,0,0.00,,---,0.00,VWS V14.00,2013-06-27 11:16:00,
2013-06-27 07:17:00,59.6,0.0,29.85,ENE,70,0.0,0.0,0,0.00,,---,0.00,VWS V14.00,2013-06-27 11:17:00,
2013-06-27 07:18:00,59.6,0.0,29.85,ENE,70,0.0,0.0,0,0.00,,---,0.00,VWS V14.00,2013-06-27 11:18:00,
2013-06-27 07:19:00,59.7,0.0,29.85,ENE,70,0.0,0.0,0,0.00,,---,0.00,VWS V14.00,2013-06-27 11:19:00,
2013-06-27 07:20:00,59.5,0.0,29.85,ENE,70,0.0,0.0,0,0.00,,---,0.00,VWS V14.00,2013-06-27 11:20:00,
2013-06-27 07:21:00,59.4,0.0,29.85,ENE,70,0.0,0.0,0,0.00,,---,0.00,VWS V14.00,2013-06-27 11:21:00,
2013-06-27 07:22:00,59.5,0.0,29.85,ENE,70,0.0,0.0,0,0.00,,---,0.00,VWS V14.00,2013-06-27 11:22:00,
2013-06-27 07:23:00,59.7,0.0,29.85,ENE,70,0.0,0.0,0,0.00,,---,0.00,VWS V14.00,2013-06-27 11:23:00,
2013-06-27 07:24:00,59.7,0.0,29.85,ENE,70,0.0,0.0,0,0.00,,---,0.00,VWS V14.00,2013-06-27 11:24:00,
2013-06-27 07:25:00,59.8,0.0,29.85,ENE,70,0.0,0.0,0,0.00,,---,0.00,VWS V14.00,2013-06-27 11:25:00,
2013-06-27 07:26:00,59.8,0.0,29.85,ENE,70,0.0,0.0,0,0.00,,---,0.00,VWS V14.00,2013-06-27 11:26:00,
2013-06-27 07:27:00,59.7,0.0,29.85,ENE,70,0.0,0.0,0,0.00,,---,0.00,VWS V14.00,2013-06-27 11:27:00,
2013-06-27 07:28:00,59.7,0.0,29.85,ENE,70,0.0,0.0,0,0.00,,---,0.00,VWS V14.00,2013-06-27 11:28:00,
2013-06-27 07:29:00,59.8,0.0,29.85,ENE,70,0.0,0.0,0,0.00,,---,0.00,VWS V14.00,2013-06-27 11:29:00,
2013-06-27 07:30:00,60.1,0.0,29.85,ENE,70,0.0,0.0,0,0.00,,---,0.00,VWS V14.00,2013-06-27 11:30:00,
2013-06-27 07:31:00,60.3,0.0,29.85,ENE,70,0.0,0.0,0,0.00,,---,0.00,VWS V14.00,2013-06-27 11:31:00,
2013-06-27 07:32:00,60.3,0.0,29.84,ENE,70,0.0,0.0,0,0.00,,---,0.00,VWS V14.00,2013-06-27 11:32:00,
2013-06-27 07:33:00,60.5,0.0,29.84,ENE,70,0.0,0.0,0,0.00,,---,0.00,VWS V14.00,2013-06-27 11:33:00,
2013-06-27 07:34:00,60.6,0.0,29.84,ENE,70,0.0,0.0,0,0.00,,---,0.00,VWS V14.00,2013-06-27 11:34:00,
2013-06-27 07:35:00,60.8,0.0,29.84,ENE,70,0.0,0.0,0,0.00,,---,0.00,VWS V14.00,2013-06-27 11:35:00,
2013-06-27 07:36:00,61.1,0.0,29.84,ENE,63,5.5,0.0,0,0.00,,---,0.00,VWS V14.00,2013-06-27 11:36:00,
2013-06-27 07:37:00,61.0,0.0,29.84,NE,35,0.0,0.0,0,0.00,,---,0.00,VWS V14.00,2013-06-27 11:37:00,
2013-06-27 07:38:00,61.1,0.0,29.84,NE,35,0.0,0.0,0,0.00,,---,0.00,VWS V14.00,2013-06-27 11:38:00,
2013-06-27 07:39:00,61.3,0.0,29.84,NE,35,0.0,0.0,0,0.00,,---,0.00,VWS V14.00,2013-06-27 11:39:00,
2013-06-27 07:40:00,61.5,0.0,29.84,NE,35,0.0,6.9,0,0.00,,---,0.00,VWS V14.00,2013-06-27 11:40:00,
2013-06-27 07:41:00,61.5,0.0,29.84,NE,35,0.0,6.9,0,0.00,,---,0.00,VWS V14.00,2013-06-27 11:41:00,
2013-06-27 07:42:00,61.5,0.0,29.84,NNE,17,0.0,6.9,0,0.00,,---,0.00,VWS V14.00,2013-06-27 11:42:00,
2013-06-27 07:43:00,61.5,0.0,29.84,NNE,14,0.0,6.9,0,0.00,,---,0.00,VWS V14.00,2013-06-27 11:43:00,
2013-06-27 07:44:00,61.5,0.0,29.84,NE,46,4.5,6.9,0,0.00,,---,0.00,VWS V14.00,2013-06-27 11:44:00,
2013-06-27 07:45:00,61.7,0.0,29.84,NNE,28,0.0,6.6,0,0.00,,---,0.00,VWS V14.00,2013-06-27 11:45:00,
2013-06-27 07:46:00,61.8,0.0,29.84,North,7,2.1,6.6,0,0.00,,---,0.00,VWS V14.00,2013-06-27 11:46:00,
2013-06-27 07:47:00,61.6,0.0,29.84,NNE,22,2.9,6.6,0,0.00,,---,0.00,VWS V14.00,2013-06-27 11:47:00,
2013-06-27 07:48:00,61.5,0.0,29.84,North,359,0.0,6.6,0,0.00,,---,0.00,VWS V14.00,2013-06-27 11:48:00,
2013-06-27 07:49:00,61.3,0.0,29.84,North,359,0.0,6.6,0,0.00,,---,0.00,VWS V14.00,2013-06-27 11:49:00,
2013-06-27 07:50:00,61.6,0.0,29.84,North,359,0.0,4.5,0,0.00,,---,0.00,VWS V14.00,2013-06-27 11:50:00,
2013-06-27 07:51:00,61.8,0.0,29.84,North,359,0.0,4.5,0,0.00,,---,0.00,VWS V14.00,2013-06-27 11:51:00,
2013-06-27 07:52:00,62.0,0.0,29.84,NE,48,6.3,6.3,0,0.00,,---,0.00,VWS V14.00,2013-06-27 11:52:00,
2013-06-27 07:53:00,62.2,0.0,29.84,NE,44,6.3,6.3,0,0.00,,---,0.00,VWS V14.00,2013-06-27 11:53:00,
2013-06-27 07:54:00,62.3,0.0,29.84,NNE,31,6.3,6.3,0,0.00,,---,0.00,VWS V14.00,2013-06-27 11:54:00,
2013-06-27 07:55:00,62.5,0.0,29.84,NE,56,0.0,7.8,0,0.00,,---,0.00,VWS V14.00,2013-06-27 11:55:00,
2013-06-27 07:56:00,62.5,0.0,29.84,NE,56,0.0,7.8,0,0.00,,---,0.00,VWS V14.00,2013-06-27 11:56:00,
2013-06-27 07:57:00,62.4,0.0,29.84,NE,51,4.8,7.8,0,0.00,,---,0.00,VWS V14.00,2013-06-27 11:57:00,
2013-06-27 07:58:00,62.5,0.0,29.84,ENE,76,0.0,7.8,0,0.00,,---,0.00,VWS V14.00,2013-06-27 11:58:00,
2013-06-27 07:59:00,62.5,0.0,29.84,NNE,25,2.9,7.8,0,0.00,,---,0.00,VWS V14.00,2013-06-27 11:59:00,
2013-06-27 08:00:00,62.7,0.0,29.84,NNE,17,5.7,7.8,0,0.00,,---,0.00,VWS V14.00,2013-06-27 12:00:00,
2013-06-27 08:01:00,62.7,0.0,29.84,NE,35,0.0,7.8,0,0.00,,---,0.00,VWS V14.00,2013-06-27 12:01:00,
2013-06-27 08:02:00,62.4,0.0,29.84,ENE,77,4.8,7.8,0,0.00,,---,0.00,VWS V14.00,2013-06-27 12:02:00,
2013-06-27 08:03:00,62.2,0.0,29.84,NE,49,3.2,7.8,0,0.00,,---,0.00,VWS V14.00,2013-06-27 12:03:00,
2013-06-27 08:04:00,62.1,0.0,29.84,NE,38,0.0,7.8,0,0.00,,---,0.00,VWS V14.00,2013-06-27 12:04:00,
2013-06-27 08:05:00,62.0,0.0,29.84,North,0,1.2,7.3,0,0.00,,---,0.00,VWS V14.00,2013-06-27 12:05:00,
2013-06-27 08:06:00,62.0,0.0,29.84,NE,39,6.0,7.3,0,0.00,,---,0.00,VWS V14.00,2013-06-27 12:06:00,
2013-06-27 08:07:00,62.1,0.0,29.84,NE,45,5.6,7.3,0,0.00,,---,0.00,VWS V14.00,2013-06-27 12:07:00,
2013-06-27 08:08:00,62.1,0.0,29.84,NE,34,0.0,7.3,0,0.00,,---,0.00,VWS V14.00,2013-06-27 12:08:00,
2013-06-27 08:09:00,62.2,0.0,29.84,NE,46,0.0,7.3,0,0.00,,---,0.00,VWS V14.00,2013-06-27 12:09:00,
2013-06-27 08:10:00,62.2,0.0,29.84,NE,44,0.0,8.2,0,0.00,,---,0.00,VWS V14.00,2013-06-27 12:10:00,
2013-06-27 08:11:00,62.2,0.0,29.84,NE,44,0.0,8.2,0,0.00,,---,0.00,VWS V14.00,2013-06-27 12:11:00,
2013-06-27 08:12:00,62.2,0.0,29.84,NNE,28,4.7,8.2,0,0.00,,---,0.00,VWS V14.00,2013-06-27 12:12:00,
2013-06-27 08:13:00,62.4,0.0,29.84,NNE,32,0.0,8.2,0,0.00,,---,0.00,VWS V14.00,2013-06-27 12:13:00,
2013-06-27 08:14:00,62.4,0.0,29.84,North,7,0.0,8.2,0,0.00,,---,0.00,VWS V14.00,2013-06-27 12:14:00,
2013-06-27 08:15:00,62.4,0.0,29.84,ENE,59,4.7,6.0,0,0.00,,---,0.00,VWS V14.00,2013-06-27 12:15:00,
2013-06-27 08:16:00,62.7,0.0,29.84,North,359,0.0,6.0,0,0.00,,---,0.00,VWS V14.00,2013-06-27 12:16:00,
2013-06-27 08:17:00,62.9,0.0,29.84,NE,37,5.3,6.0,0,0.00,,---,0.00,VWS V14.00,2013-06-27 12:17:00,
2013-06-27 08:18:00,62.9,0.0,29.84,North,11,0.0,6.0,0,0.00,,---,0.00,VWS V14.00,2013-06-27 12:18:00,
2013-06-27 08:19:00,62.7,0.0,29.84,NNE,25,0.0,6.0,0,0.00,,---,0.00,VWS V14.00,2013-06-27 12:19:00,
2013-06-27 08:20:00,62.8,0.0,29.84,NNE,15,0.0,6.0,0,0.00,,---,0.00,VWS V14.00,2013-06-27 12:20:00,
2013-06-27 08:21:00,63.1,0.0,29.84,NE,37,7.8,7.8,0,0.00,,---,0.00,VWS V14.00,2013-06-27 12:21:00,
2013-06-27 08:22:00,63.2,0.0,29.84,NE,41,6.8,6.8,0,0.00,,---,0.00,VWS V14.00,2013-06-27 12:22:00,
2013-06-27 08:23:00,63.1,0.0,29.84,North,359,3.4,6.2,0,0.00,,---,0.00,VWS V14.00,2013-06-27 12:23:00,
2013-06-27 08:24:00,63.1,0.0,29.84,NE,55,0.0,6.2,0,0.00,,---,0.00,VWS V14.00,2013-06-27 12:24:00,
2013-06-27 08:25:00,63.1,0.0,29.84,NE,41,0.0,6.2,0,0.00,,---,0.00,VWS V14.00,2013-06-27 12:25:00,
2013-06-27 08:26:00,62.7,0.0,29.84,ENE,69,6.3,8.4,0,0.00,,---,0.00,VWS V14.00,2013-06-27 12:26:00,
2013-06-27 08:27:00,62.8,0.0,29.84,NNE,30,6.2,8.4,0,0.00,,---,0.00,VWS V14.00,2013-06-27 12:27:00,
2013-06-27 08:28:00,62.9,0.0,29.84,ENE,73,3.5,8.4,0,0.00,,---,0.00,VWS V14.00,2013-06-27 12:28:00,
2013-06-27 08:29:00,63.0,0.0,29.84,NNE,13,0.0,8.4,0,0.00,,---,0.00,VWS V14.00,2013-06-27 12:29:00,
2013-06-27 08:30:00,62.9,0.0,29.84,NNE,27,0.0,6.8,0,0.00,,---,0.00,VWS V14.00,2013-06-27 12:30:00,
2013-06-27 08:31:00,62.8,0.0,29.84,NE,38,6.9,6.9,0,0.00,,---,0.00,VWS V14.00,2013-06-27 12:31:00,
2013-06-27 08:32:00,62.9,0.0,29.84,NE,39,0.0,6.8,0,0.00,,---,0.00,VWS V14.00,2013-06-27 12:32:00,
2013-06-27 08:33:00,63.0,0.0,29.84,NNE,31,3.3,6.8,0,0.00,,---,0.00,VWS V14.00,2013-06-27 12:33:00,
2013-06-27 08:34:00,63.3,0.0,29.84,North,359,0.0,6.8,0,0.00,,---,0.00,VWS V14.00,2013-06-27 12:34:00,
2013-06-27 08:35:00,63.4,0.0,29.84,ENE,70,4.3,8.9,0,0.00,,---,0.00,VWS V14.00,2013-06-27 12:35:00,
2013-06-27 08:36:00,63.7,0.0,29.84,North,359,4.8,8.9,0,0.00,,---,0.00,VWS V14.00,2013-06-27 12:36:00,
2013-06-27 08:37:00,63.7,0.0,29.84,NNE,18,3.5,8.9,0,0.00,,---,0.00,VWS V14.00,2013-06-27 12:37:00,
2013-06-27 08:38:00,63.7,0.0,29.84,NE,44,6.9,8.9,0,0.00,,---,0.00,VWS V14.00,2013-06-27 12:38:00,
2013-06-27 08:39:00,63.7,0.0,29.84,NE,38,7.2,8.9,0,0.00,,---,0.00,VWS V14.00,2013-06-27 12:39:00,
2013-06-27 08:40:00,63.5,0.0,29.84,North,7,4.2,10.2,0,0.00,,---,0.00,VWS V14.00,2013-06-27 12:40:00,
2013-06-27 08:41:00,63.3,0.0,29.84,NNE,15,4.8,10.2,0,0.00,,---,0.00,VWS V14.00,2013-06-27 12:41:00,
2013-06-27 08:42:00,63.4,0.0,29.84,NNE,24,5.8,10.2,0,0.00,,---,0.00,VWS V14.00,2013-06-27 12:42:00,
2013-06-27 08:43:00,63.3,0.0,29.84,NNE,15,4.8,10.2,0,0.00,,---,0.00,VWS V14.00,2013-06-27 12:43:00,
2013-06-27 08:44:00,63.2,0.0,29.84,NE,46,7.0,10.2,0,0.00,,---,0.00,VWS V14.00,2013-06-27 12:44:00,
2013-06-27 08:45:00,63.1,0.0,29.84,NNE,31,6.2,9.9,0,0.00,,---,0.00,VWS V14.00,2013-06-27 12:45:00,
2013-06-27 08:46:00,63.3,0.0,29.84,North,3,6.6,9.9,0,0.00,,---,0.00,VWS V14.00,2013-06-27 12:46:00,
2013-06-27 08:47:00,63.1,0.0,29.83,North,359,4.2,9.9,0,0.00,,---,0.00,VWS V14.00,2013-06-27 12:47:00,
2013-06-27 08:48:00,63.1,0.0,29.83,ENE,69,6.5,9.9,0,0.00,,---,0.00,VWS V14.00,2013-06-27 12:48:00,
2013-06-27 08:49:00,63.1,0.0,29.84,NE,53,7.9,9.9,0,0.00,,---,0.00,VWS V14.00,2013-06-27 12:49:00,
2013-06-27 08:50:00,63.1,0.0,29.83,NE,35,6.9,9.7,0,0.00,,---,0.00,VWS V14.00,2013-06-27 12:50:00,
2013-06-27 08:51:00,62.9,0.0,29.83,NNE,13,7.6,9.7,0,0.00,,---,0.00,VWS V14.00,2013-06-27 12:51:00,
2013-06-27 08:52:00,62.9,0.0,29.83,North,4,8.1,9.7,0,0.00,,---,0.00,VWS V14.00,2013-06-27 12:52:00,
2013-06-27 08:53:00,62.7,0.0,29.83,NNE,27,7.5,9.7,0,0.00,,---,0.00,VWS V14.00,2013-06-27 12:53:00,
2013-06-27 08:54:00,62.7,0.0,29.83,ENE,62,7.7,9.7,0,0.00,,---,0.00,VWS V14.00,2013-06-27 12:54:00,
2013-06-27 08:55:00,62.7,0.0,29.83,NE,37,6.1,9.3,0,0.00,,---,0.00,VWS V14.00,2013-06-27 12:55:00,
2013-06-27 08:56:00,62.8,0.0,29.83,North,359,6.1,9.3,0,0.00,,---,0.00,VWS V14.00,2013-06-27 12:56:00,
2013-06-27 08:57:00,62.6,0.0,29.83,North,349,6.5,9.3,0,0.00,,---,0.00,VWS V14.00,2013-06-27 12:57:00,
2013-06-27 08:58:00,62.5,0.0,29.83,NNE,20,5.9,9.3,0,0.00,,---,0.00,VWS V14.00,2013-06-27 12:58:00,
2013-06-27 08:59:00,62.6,0.0,29.83,NNW,340,3.3,9.3,0,0.00,,---,0.00,VWS V14.00,2013-06-27 12:59:00,
2013-06-27 09:00:00,62.7,0.0,29.83,NNE,30,6.9,9.5,0,0.00,,---,0.00,VWS V14.00,2013-06-27 13:00:00,
2013-06-27 09:01:00,62.9,0.0,29.83,North,10,3.5,9.5,0,0.00,,---,0.00,VWS V14.00,2013-06-27 13:01:00,
2013-06-27 09:02:00,63.1,0.0,29.83,NNE,27,6.0,9.5,0,0.00,,---,0.00,VWS V14.00,2013-06-27 13:02:00,
2013-06-27 09:03:00,63.0,0.0,29.83,ENE,70,5.3,9.5,0,0.00,,---,0.00,VWS V14.00,2013-06-27 13:03:00,
2013-06-27 09:04:00,63.1,0.0,29.83,NE,44,3.4,9.5,0,0.00,,---,0.00,VWS V14.00,2013-06-27 13:04:00,
2013-06-27 09:05:00,63.2,0.0,29.83,NE,41,9.5,10.2,0,0.00,,---,0.00,VWS V14.00,2013-06-27 13:05:00,
2013-06-27 09:06:00,63.1,0.0,29.83,NNE,24,6.0,10.2,0,0.00,,---,0.00,VWS V14.00,2013-06-27 13:06:00,
2013-06-27 09:07:00,62.8,0.0,29.83,NE,35,6.5,10.2,0,0.00,,---,0.00,VWS V14.00,2013-06-27 13:07:00,
2013-06-27 09:08:00,62.6,0.0,29.83,ENE,69,6.2,10.2,0,0.00,,---,0.00,VWS V14.00,2013-06-27 13:08:00,
2013-06-27 09:09:00,62.6,0.0,29.83,NNE,22,4.4,10.2,0,0.00,,---,0.00,VWS V14.00,2013-06-27 13:09:00,
2013-06-27 09:10:00,62.5,0.0,29.84,NNE,22,6.9,9.9,0,0.00,,---,0.00,VWS V14.00,2013-06-27 13:10:00,
2013-06-27 09:11:00,62.7,0.0,29.83,NE,38,6.5,9.9,0,0.00,,---,0.00,VWS V14.00,2013-06-27 13:11:00,
2013-06-27 09:12:00,62.8,0.0,29.84,NE,34,4.8,9.9,0,0.00,,---,0.00,VWS V14.00,2013-06-27 13:12:00,
2013-06-27 09:13:00,62.9,0.0,29.84,North,8,6.2,9.9,0,0.00,,---,0.00,VWS V14.00,2013-06-27 13:13:00,
2013-06-27 09:14:00,63.0,0.0,29.83,North,4,0.0,9.9,0,0.00,,---,0.00,VWS V14.00,2013-06-27 13:14:00,
2013-06-27 09:15:00,62.8,0.0,29.83,North,3,5.0,9.3,0,0.00,,---,0.00,VWS V14.00,2013-06-27 13:15:00,
2013-06-27 09:16:00,62.6,0.0,29.83,North,359,2.5,9.3,0,0.00,,---,0.00,VWS V14.00,2013-06-27 13:16:00,
2013-06-27 09:17:00,62.6,0.0,29.83,NNE,32,6.0,9.3,0,0.00,,---,0.00,VWS V14.00,2013-06-27 13:17:00,
2013-06-27 09:18:00,62.6,0.0,29.83,ENE,72,4.7,9.3,0,0.00,,---,0.00,VWS V14.00,2013-06-27 13:18:00,
2013-06-27 09:19:00,62.5,0.0,29.83,NNE,24,0.0,9.3,0,0.00,,---,0.00,VWS V14.00,2013-06-27 13:19:00,
2013-06-27 09:20:00,62.4,0.0,29.83,NNW,343,8.1,9.3,0,0.00,,---,0.00,VWS V14.00,2013-06-27 13:20:00,
2013-06-27 09:21:00,62.5,0.0,29.84,North,359,4.3,9.3,0,0.00,,---,0.00,VWS V14.00,2013-06-27 13:21:00,
2013-06-27 09:22:00,62.4,0.0,29.84,NNE,24,7.1,9.3,0,0.00,,---,0.00,VWS V14.00,2013-06-27 13:22:00,
2013-06-27 09:23:00,62.4,0.0,29.83,NNE,30,6.1,9.3,0,0.00,,---,0.00,VWS V14.00,2013-06-27 13:23:00,
2013-06-27 09:24:00,62.5,0.0,29.84,North,4,3.5,9.3,0,0.00,,---,0.00,VWS V14.00,2013-06-27 13:24:00,
2013-06-27 09:25:00,62.3,0.0,29.84,NNE,24,3.3,9.3,0,0.00,,---,0.00,VWS V14.00,2013-06-27 13:25:00,
2013-06-27 09:26:00,62.2,0.0,29.84,NNE,32,0.0,9.7,0,0.00,,---,0.00,VWS V14.00,2013-06-27 13:26:00,
2013-06-27 09:27:00,62.0,0.0,29.84,NE,45,0.0,9.7,0,0.00,,---,0.00,VWS V14.00,2013-06-27 13:27:00,
2013-06-27 09:28:00,62.3,0.0,29.84,East,82,7.1,9.7,0,0.00,,---,0.00,VWS V14.00,2013-06-27 13:28:00,
2013-06-27 09:29:00,62.6,0.0,29.84,East,83,4.2,9.7,0,0.00,,---,0.00,VWS V14.00,2013-06-27 13:29:00,
2013-06-27 09:30:00,62.8,0.0,29.84,NE,34,8.3,9.0,0,0.00,,---,0.00,VWS V14.00,2013-06-27 13:30:00,
2013-06-27 09:31:00,62.8,0.0,29.84,NE,49,6.2,9.0,0,0.00,,---,0.00,VWS V14.00,2013-06-27 13:31:00,
2013-06-27 09:32:00,62.8,0.0,29.84,ENE,73,7.3,9.0,0,0.00,,---,0.00,VWS V14.00,2013-06-27 13:32:00,
2013-06-27 09:33:00,62.8,0.0,29.84,ENE,70,6.6,9.0,0,0.00,,---,0.00,VWS V14.00,2013-06-27 13:33:00,
2013-06-27 09:34:00,62.9,0.0,29.83,NE,56,5.8,9.0,0,0.00,,---,0.00,VWS V14.00,2013-06-27 13:34:00,
2013-06-27 09:35:00,63.1,0.0,29.83,ENE,58,8.5,9.6,0,0.00,,---,0.00,VWS V14.00,2013-06-27 13:35:00,
2013-06-27 09:36:00,63.2,0.0,29.83,ENE,70,6.0,9.6,0,0.00,,---,0.00,VWS V14.00,2013-06-27 13:36:00,
2013-06-27 09:37:00,63.2,0.0,29.83,ENE,58,5.6,9.6,0,0.00,,---,0.00,VWS V14.00,2013-06-27 13:37:00,
2013-06-27 09:38:00,63.1,0.0,29.83,NNE,30,7.0,9.6,0,0.00,,---,0.00,VWS V14.00,2013-06-27 13:38:00,
2013-06-27 09:39:00,63.1,0.0,29.83,ENE,69,6.2,9.6,0,0.00,,---,0.00,VWS V14.00,2013-06-27 13:39:00,
2013-06-27 09:40:00,62.9,0.0,29.83,NE,52,8.9,9.4,0,0.00,,---,0.00,VWS V14.00,2013-06-27 13:40:00,
2013-06-27 09:41:00,62.9,0.0,29.83,NE,48,5.5,9.4,0,0.00,,---,0.00,VWS V14.00,2013-06-27 13:41:00,
2013-06-27 09:42:00,62.9,0.0,29.84,ENE,58,7.3,9.4,0,0.00,,---,0.00,VWS V14.00,2013-06-27 13:42:00,
2013-06-27 09:43:00,63.0,0.0,29.83,NNE,22,5.9,9.4,0,0.00,,---,0.00,VWS V14.00,2013-06-27 13:43:00,
2013-06-27 09:44:00,63.1,0.0,29.83,NE,53,5.8,9.4,0,0.00,,---,0.00,VWS V14.00,2013-06-27 13:44:00,
2013-06-27 09:45:00,63.0,0.0,29.83,NE,34,5.5,9.4,0,0.00,,---,0.00,VWS V14.00,2013-06-27 13:45:00,
2013-06-27 09:46:00,63.1,0.0,29.83,NNE,22,5.5,9.4,0,0.00,,---,0.00,VWS V14.00,2013-06-27 13:46:00,
2013-06-27 09:47:00,63.1,0.0,29.83,NE,44,3.3,9.4,0,0.00,,---,0.00,VWS V14.00,2013-06-27 13:47:00,
2013-06-27 09:48:00,63.2,0.0,29.83,NE,41,6.7,9.4,0,0.00,,---,0.00,VWS V14.00,2013-06-27 13:48:00,
2013-06-27 09:49:00,63.4,0.0,29.83,NNE,21,5.5,9.4,0,0.00,,---,0.00,VWS V14.00,2013-06-27 13:49:00,
2013-06-27 09:50:00,63.4,0.0,29.83,NE,41,5.5,8.2,0,0.00,,---,0.00,VWS V14.00,2013-06-27 13:50:00,
2013-06-27 09:51:00,63.1,0.0,29.83,NE,53,0.0,8.2,0,0.00,,---,0.00,VWS V14.00,2013-06-27 13:51:00,
2013-06-27 09:52:00,63.0,0.0,29.83,NNE,15,0.0,8.2,0,0.00,,---,0.00,VWS V14.00,2013-06-27 13:52:00,
2013-06-27 09:53:00,62.9,0.0,29.83,NNE,15,0.0,8.2,0,0.00,,---,0.00,VWS V14.00,2013-06-27 13:53:00,
2013-06-27 09:54:00,62.6,0.0,29.83,North,7,2.5,8.2,0,0.00,,---,0.00,VWS V14.00,2013-06-27 13:54:00,
2013-06-27 09:55:00,62.6,0.0,29.83,NE,37,6.0,6.0,0,0.00,,---,0.00,VWS V14.00,2013-06-27 13:55:00,
2013-06-27 09:56:00,62.9,0.0,29.83,NE,39,0.0,5.6,0,0.00,,---,0.00,VWS V14.00,2013-06-27 13:56:00,
2013-06-27 09:57:00,63.1,0.0,29.83,ENE,69,5.2,5.6,0,0.00,,---,0.00,VWS V14.00,2013-06-27 13:57:00,
2013-06-27 09:58:00,63.2,0.0,29.83,ENE,60,7.8,7.8,0,0.00,,---,0.00,VWS V14.00,2013-06-27 13:58:00,
2013-06-27 09:59:00,63.1,0.0,29.83,NNE,32,7.0,7.0,0,0.00,,---,0.00,VWS V14.00,2013-06-27 13:59:00,
2013-06-27 10:00:00,63.1,0.0,29.83,ENE,65,7.1,10.6,0,0.00,,---,0.00,VWS V14.00,2013-06-27 14:00:00,
2013-06-27 10:01:00,63.1,0.0,29.84,North,8,6.1,10.6,0,0.00,,---,0.00,VWS V14.00,2013-06-27 14:01:00,
2013-06-27 10:02:00,63.1,0.0,29.83,NE,48,7.1,10.6,0,0.00,,---,0.00,VWS V14.00,2013-06-27 14:02:00,
2013-06-27 10:03:00,62.9,0.0,29.83,NE,34,5.8,10.6,0,0.00,,---,0.00,VWS V14.00,2013-06-27 14:03:00,
2013-06-27 10:04:00,63.0,0.0,29.84,NE,51,7.5,10.6,0,0.00,,---,0.00,VWS V14.00,2013-06-27 14:04:00,
2013-06-27 10:05:00,63.1,0.0,29.83,NE,35,6.6,9.8,0,0.00,,---,0.00,VWS V14.00,2013-06-27 14:05:00,
2013-06-27 10:06:00,63.1,0.0,29.84,NNE,21,6.5,9.8,0,0.00,,---,0.00,VWS V14.00,2013-06-27 14:06:00,
2013-06-27 10:07:00,63.0,0.0,29.84,North,6,3.2,9.8,0,0.00,,---,0.00,VWS V14.00,2013-06-27 14:07:00,
2013-06-27 10:08:00,63.1,0.0,29.83,NE,38,5.8,9.8,0,0.00,,---,0.00,VWS V14.00,2013-06-27 14:08:00,
2013-06-27 10:09:00,63.2,0.0,29.83,North,11,5.2,9.8,0,0.00,,---,0.00,VWS V14.00,2013-06-27 14:09:00,
2013-06-27 10:10:00,63.3,0.0,29.83,ENE,68,5.3,8.5,0,0.00,,---,0.00,VWS V14.00,2013-06-27 14:10:00,
2013-06-27 10:11:00,63.2,0.0,29.83,NE,45,5.3,8.5,0,0.00,,---,0.00,VWS V14.00,2013-06-27 14:11:00,
2013-06-27 10:12:00,63.3,0.0,29.83,East,98,6.8,8.5,0,0.00,,---,0.00,VWS V14.00,2013-06-27 14:12:00,
2013-06-27 10:13:00,63.2,0.0,29.83,NE,53,6.8,8.5,0,0.00,,---,0.00,VWS V14.00,2013-06-27 14:13:00,
2013-06-27 10:14:00,62.9,0.0,29.83,NE,41,7.4,8.5,0,0.00,,---,0.00,VWS V14.00,2013-06-27 14:14:00,
2013-06-27 10:15:00,63.1,0.0,29.83,ENE,63,5.8,10.4,0,0.00,,---,0.00,VWS V14.00,2013-06-27 14:15:00,
2013-06-27 10:16:00,63.3,0.0,29.83,NE,44,6.1,10.4,0,0.00,,---,0.00,VWS V14.00,2013-06-27 14:16:00,
2013-06-27 10:17:00,62.9,0.0,29.83,NE,55,0.0,10.4,0,0.00,,---,0.00,VWS V14.00,2013-06-27 14:17:00,
2013-06-27 10:18:00,63.1,0.0,29.83,ENE,60,3.5,10.4,0,0.00,,---,0.00,VWS V14.00,2013-06-27 14:18:00,
2013-06-27 10:19:00,63.0,0.0,29.83,NE,52,6.9,10.4,0,0.00,,---,0.00,VWS V14.00,2013-06-27 14:19:00,
2013-06-27 10:20:00,63.1,0.0,29.83,NE,49,3.2,7.6,0,0.00,,---,0.00,VWS V14.00,2013-06-27 14:20:00,
2013-06-27 10:21:00,63.2,0.0,29.83,NE,51,4.9,7.6,0,0.00,,---,0.00,VWS V14.00,2013-06-27 14:21:00,
2013-06-27 10:22:00,63.2,0.0,29.83,North,11,5.3,7.6,0,0.00,,---,0.00,VWS V14.00,2013-06-27 14:22:00,
2013-06-27 10:23:00,63.4,0.0,29.83,NNE,27,4.3,7.6,0,0.00,,---,0.00,VWS V14.00,2013-06-27 14:23:00,
2013-06-27 10:24:00,63.6,0.0,29.83,NNE,22,3.4,7.6,0,0.00,,---,0.00,VWS V14.00,2013-06-27 14:24:00,
2013-06-27 10:25:00,63.5,0.0,29.83,North,1,4.3,8.3,0,0.00,,---,0.00,VWS V14.00,2013-06-27 14:25:00,
2013-06-27 10:26:00,63.6,0.0,29.83,ENE,69,5.4,8.3,0,0.00,,---,0.00,VWS V14.00,2013-06-27 14:26:00,
2013-06-27 10:27:00,63.8,0.0,29.83,NNE,15,3.4,8.3,0,0.00,,---,0.00,VWS V14.00,2013-06-27 14:27:00,
2013-06-27 10:28:00,63.4,0.0,29.83,ENE,73,6.1,8.3,0,0.00,,---,0.00,VWS V14.00,2013-06-27 14:28:00,
2013-06-27 10:29:00,63.0,0.0,29.83,North,359,4.7,8.3,0,0.00,,---,0.00,VWS V14.00,2013-06-27 14:29:00,
2013-06-27 10:30:00,63.0,0.0,29.83,NE,53,5.4,8.3,0,0.00,,---,0.00,VWS V14.00,2013-06-27 14:30:00,
2013-06-27 10:31:00,62.8,0.0,29.83,NE,35,6.2,8.3,0,0.00,,---,0.00,VWS V14.00,2013-06-27 14:31:00,
2013-06-27 10:32:00,63.1,0.0,29.83,ENE,59,4.3,8.3,0,0.00,,---,0.00,VWS V14.00,2013-06-27 14:32:00,
2013-06-27 10:33:00,63.6,0.0,29.83,East,82,5.2,8.3,0,0.00,,---,0.00,VWS V14.00,2013-06-27 14:33:00,
2013-06-27 10:34:00,63.9,0.0,29.83,NE,46,8.7,8.7,0,0.00,,---,0.00,VWS V14.00,2013-06-27 14:34:00,
2013-06-27 10:35:00,64.1,0.0,29.83,NE,53,6.8,9.3,0,0.00,,---,0.00,VWS V14.00,2013-06-27 14:35:00,
2013-06-27 10:36:00,64.2,0.0,29.83,NNE,30,6.6,9.3,0,0.00,,---,0.00,VWS V14.00,2013-06-27 14:36:00,
2013-06-27 10:37:00,64.2,0.0,29.83,ENE,66,7.1,9.3,0,0.00,,---,0.00,VWS V14.00,2013-06-27 14:37:00,
2013-06-27 10:38:00,64.3,0.0,29.83,NE,42,5.8,9.3,0,0.00,,---,0.00,VWS V14.00,2013-06-27 14:38:00,
2013-06-27 10:39:00,64.1,0.0,29.83,North,11,2.9,9.3,0,0.00,,---,0.00,VWS V14.00,2013-06-27 14:39:00,
2013-06-27 10:40:00,63.8,0.0,29.83,ENE,58,2.5,9.8,0,0.00,,---,0.00,VWS V14.00,2013-06-27 14:40:00,
2013-06-27 10:41:00,63.7,0.0,29.83,NE,35,3.3,9.8,0,0.00,,---,0.00,VWS V14.00,2013-06-27 14:41:00,
2013-06-27 10:42:00,63.7,0.0,29.83,NE,37,6.1,9.8,0,0.00,,---,0.00,VWS V14.00,2013-06-27 14:42:00,
2013-06-27 10:43:00,63.7,0.0,29.83,ENE,58,8.2,9.8,0,0.00,,---,0.00,VWS V14.00,2013-06-27 14:43:00,
2013-06-27 10:44:00,63.7,0.0,29.83,NE,42,9.3,9.8,0,0.00,,---,0.00,VWS V14.00,2013-06-27 14:44:00,
2013-06-27 10:45:00,63.7,0.0,29.83,ENE,60,8.7,11.4,0,0.00,,---,0.00,VWS V14.00,2013-06-27 14:45:00,
2013-06-27 10:46:00,63.6,0.0,29.83,NE,44,9.3,11.4,0,0.00,,---,0.00,VWS V14.00,2013-06-27 14:46:00,
2013-06-27 10:47:00,63.7,0.0,29.83,East,91,5.7,11.4,0,0.00,,---,0.00,VWS V14.00,2013-06-27 14:47:00,
2013-06-27 10:48:00,63.7,0.0,29.83,NE,34,7.7,11.4,0,0.00,,---,0.00,VWS V14.00,2013-06-27 14:48:00,
2013-06-27 10:49:00,63.8,0.0,29.83,NE,56,3.0,11.4,0,0.00,,---,0.00,VWS V14.00,2013-06-27 14:49:00,
2013-06-27 10:50:00,63.9,0.0,29.83,NE,45,7.2,11.1,0,0.00,,---,0.00,VWS V14.00,2013-06-27 14:50:00,
2013-06-27 10:51:00,63.9,0.0,29.83,ENE,70,4.3,11.1,0,0.00,,---,0.00,VWS V14.00,2013-06-27 14:51:00,
2013-06-27 10:52:00,63.9,0.0,29.83,NNW,328,3.3,11.1,0,0.00,,---,0.00,VWS V14.00,2013-06-27 14:52:00,
2013-06-27 10:53:00,63.6,0.0,29.83,North,359,0.0,11.1,0,0.00,,---,0.00,VWS V14.00,2013-06-27 14:53:00,
2013-06-27 10:54:00,63.4,0.0,29.83,NNE,18,2.5,11.1,0,0.00,,---,0.00,VWS V14.00,2013-06-27 14:54:00,
2013-06-27 10:55:00,63.4,0.0,29.83,North,7,3.3,7.6,0,0.00,,---,0.00,VWS V14.00,2013-06-27 14:55:00,
2013-06-27 10:56:00,63.5,0.0,29.83,North,7,0.0,7.6,0,0.00,,---,0.00,VWS V14.00,2013-06-27 14:56:00,
2013-06-27 10:57:00,63.2,0.0,29.83,North,1,0.0,7.6,0,0.00,,---,0.00,VWS V14.00,2013-06-27 14:57:00,
2013-06-27 10:58:00,62.9,0.0,29.83,NNE,17,6.1,7.6,0,0.00,,---,0.00,VWS V14.00,2013-06-27 14:58:00,
2013-06-27 10:59:00,63.1,0.0,29.83,NNE,31,0.0,7.6,0,0.00,,---,0.00,VWS V14.00,2013-06-27 14:59:00,
2013-06-27 11:00:00,63.2,0.0,29.83,ENE,68,4.7,8.1,0,0.00,,---,0.00,VWS V14.00,2013-06-27 15:00:00,
2013-06-27 11:01:00,62.9,0.0,29.83,NE,41,4.5,8.1,0,0.00,,---,0.00,VWS V14.00,2013-06-27 15:01:00,
2013-06-27 11:02:00,62.8,0.0,29.83,North,359,3.2,8.1,0,0.00,,---,0.00,VWS V14.00,2013-06-27 15:02:00,
2013-06-27 11:03:00,62.6,0.0,29.83,NNE,31,5.3,8.1,0,0.00,,---,0.00,VWS V14.00,2013-06-27 15:03:00,
2013-06-27 11:04:00,62.6,0.0,29.83,NE,37,8.4,8.4,0,0.00,,---,0.00,VWS V14.00,2013-06-27 15:04:00,
2013-06-27 11:05:00,62.7,0.0,29.83,NE,39,3.0,8.5,0,0.00,,---,0.00,VWS V14.00,2013-06-27 15:05:00,
2013-06-27 11:06:00,62.6,0.0,29.83,NE,44,5.6,8.5,0,0.00,,---,0.00,VWS V14.00,2013-06-27 15:06:00,
2013-06-27 11:07:00,62.6,0.0,29.83,ENE,59,7.4,8.5,0,0.00,,---,0.00,VWS V14.00,2013-06-27 15:07:00,
2013-06-27 11:08:00,62.8,0.0,29.83,NNE,22,4.5,8.5,0,0.00,,---,0.00,VWS V14.00,2013-06-27 15:08:00,
2013-06-27 11:09:00,63.1,0.0,29.83,NNW,333,3.2,8.5,0,0.00,,---,0.00,VWS V14.00,2013-06-27 15:09:00,
2013-06-27 11:10:00,62.8,0.0,29.83,North,3,4.2,8.3,0,0.00,,---,0.00,VWS V14.00,2013-06-27 15:10:00,
2013-06-27 11:11:00,62.6,0.0,29.83,NE,39,5.7,8.3,0,0.00,,---,0.00,VWS V14.00,2013-06-27 15:11:00,
2013-06-27 11:12:00,62.8,0.0,29.83,NNE,27,5.7,8.3,0,0.00,,---,0.00,VWS V14.00,2013-06-27 15:12:00,
2013-06-27 11:13:00,62.8,0.0,29.82,NNE,25,6.3,8.3,0,0.00,,---,0.00,VWS V14.00,2013-06-27 15:13:00,
2013-06-27 11:14:00,62.9,0.0,29.82,North,359,4.8,8.3,0,0.00,,---,0.00,VWS V14.00,2013-06-27 15:14:00,
2013-06-27 11:15:00,62.9,0.0,29.82,NE,49,9.1,9.1,0,0.00,,---,0.00,VWS V14.00,2013-06-27 15:15:00,
2013-06-27 11:16:00,63.1,0.0,29.82,NE,44,8.9,8.9,0,0.00,,---,0.00,VWS V14.00,2013-06-27 15:16:00,
2013-06-27 11:17:00,63.0,0.0,29.82,North,359,0.0,8.5,0,0.00,,---,0.00,VWS V14.00,2013-06-27 15:17:00,
2013-06-27 11:18:00,63.0,0.0,29.82,NE,53,5.3,8.5,0,0.00,,---,0.00,VWS V14.00,2013-06-27 15:18:00,
2013-06-27 11:19:00,63.2,0.0,29.82,North,0,3.4,8.5,0,0.00,,---,0.00,VWS V14.00,2013-06-27 15:19:00,
2013-06-27 11:20:00,63.3,0.0,29.82,NNE,31,6.5,10.6,0,0.00,,---,0.00,VWS V14.00,2013-06-27 15:20:00,
2013-06-27 11:21:00,63.6,0.0,29.82,NE,45,8.8,10.6,0,0.00,,---,0.00,VWS V14.00,2013-06-27 15:21:00,
2013-06-27 11:22:00,63.8,0.0,29.82,NNE,20,8.8,10.6,0,0.00,,---,0.00,VWS V14.00,2013-06-27 15:22:00,
2013-06-27 11:23:00,63.8,0.0,29.82,NNE,25,5.8,10.6,0,0.00,,---,0.00,VWS V14.00,2013-06-27 15:23:00,
2013-06-27 11:24:00,63.8,0.0,29.82,NE,42,9.3,10.6,0,0.00,,---,0.00,VWS V14.00,2013-06-27 15:24:00,
2013-06-27 11:25:00,63.6,0.0,29.82,NE,34,6.0,10.5,0,0.00,,---,0.00,VWS V14.00,2013-06-27 15:25:00,
2013-06-27 11:26:00,63.5,0.0,29.82,NE,39,1.3,10.5,0,0.00,,---,0.00,VWS V14.00,2013-06-27 15:26:00,
2013-06-27 11:27:00,63.4,0.0,29.82,NE,49,7.6,10.5,0,0.00,,---,0.00,VWS V14.00,2013-06-27 15:27:00,
2013-06-27 11:28:00,63.5,0.0,29.82,ENE,68,6.1,10.5,0,0.00,,---,0.00,VWS V14.00,2013-06-27 15:28:00,
2013-06-27 11:29:00,63.4,0.0,29.82,NNE,31,5.5,10.5,0,0.00,,---,0.00,VWS V14.00,2013-06-27 15:29:00,
2013-06-27 11:30:00,63.4,0.0,29.82,NNE,31,6.0,10.5,0,0.00,,---,0.00,VWS V14.00,2013-06-27 15:30:00,
2013-06-27 11:31:00,63.7,0.0,29.82,NNE,20,9.6,10.8,0,0.00,,---,0.00,VWS V14.00,2013-06-27 15:31:00,
2013-06-27 11:32:00,63.8,0.0,29.82,NNE,27,6.5,10.8,0,0.00,,---,0.00,VWS V14.00,2013-06-27 15:32:00,
2013-06-27 11:33:00,63.8,0.0,29.82,NNE,21,5.0,10.8,0,0.00,,---,0.00,VWS V14.00,2013-06-27 15:33:00,
2013-06-27 11:34:00,63.9,0.0,29.82,NE,48,8.2,10.8,0,0.00,,---,0.00,VWS V14.00,2013-06-27 15:34:00,
2013-06-27 11:35:00,64.0,0.0,29.82,ENE,66,7.1,10.8,0,0.00,,---,0.00,VWS V14.00,2013-06-27 15:35:00,
2013-06-27 11:36:00,63.8,0.0,29.82,North,359,5.0,11.2,0,0.00,,---,0.00,VWS V14.00,2013-06-27 15:36:00,
2013-06-27 11:37:00,63.7,0.0,29.82,NE,42,6.8,11.2,0,0.00,,---,0.00,VWS V14.00,2013-06-27 15:37:00,
2013-06-27 11:38:00,63.9,0.0,29.82,NNE,31,6.6,11.2,0,0.00,,---,0.00,VWS V14.00,2013-06-27 15:38:00,
2013-06-27 11:39:00,64.0,0.0,29.82,NE,41,7.6,11.2,0,0.00,,---,0.00,VWS V14.00,2013-06-27 15:39:00,
2013-06-27 11:40:00,64.2,0.0,29.82,NNE,32,3.4,10.2,0,0.00,,---,0.00,VWS V14.00,2013-06-27 15:40:00,
2013-06-27 11:41:00,64.1,0.0,29.82,NNE,14,9.6,10.2,0,0.00,,---,0.00,VWS V14.00,2013-06-27 15:41:00,
2013-06-27 11:42:00,64.4,0.0,29.82,NNE,32,6.6,10.2,0,0.00,,---,0.00,VWS V14.00,2013-06-27 15:42:00,
2013-06-27 11:43:00,64.5,0.0,29.82,NE,51,7.0,10.2,0,0.00,,---,0.00,VWS V14.00,2013-06-27 15:43:00,
2013-06-27 11:44:00,64.7,0.0,29.82,NE,37,3.4,10.2,0,0.00,,---,0.00,VWS V14.00,2013-06-27 15:44:00,
2013-06-27 11:45:00,64.1,0.0,29.82,NNE,32,6.7,11.2,0,0.00,,---,0.00,VWS V14.00,2013-06-27 15:45:00,
2013-06-27 11:46:00,64.5,0.0,29.82,North,359,5.0,11.2,0,0.00,,---,0.00,VWS V14.00,2013-06-27 15:46:00,
2013-06-27 11:47:00,64.0,0.0,29.82,NE,48,6.3,11.2,0,0.00,,---,0.00,VWS V14.00,2013-06-27 15:47:00,
2013-06-27 11:48:00,63.9,0.0,29.82,NNE,17,6.2,11.2,0,0.00,,---,0.00,VWS V14.00,2013-06-27 15:48:00,
2013-06-27 11:49:00,64.0,0.0,29.83,ENE,58,6.1,11.2,0,0.00,,---,0.00,VWS V14.00,2013-06-27 15:49:00,
2013-06-27 11:50:00,64.3,0.0,29.83,North,359,5.9,10.4,0,0.00,,---,0.00,VWS V14.00,2013-06-27 15:50:00,
2013-06-27 11:51:00,64.3,0.0,29.83,NE,42,6.8,10.4,0,0.00,,---,0.00,VWS V14.00,2013-06-27 15:51:00,
2013-06-27 11:52:00,64.4,0.0,29.83,NW,304,3.4,10.4,0,0.00,,---,0.00,VWS V14.00,2013-06-27 15:52:00,
2013-06-27 11:53:00,64.3,0.0,29.83,North,6,3.4,10.4,0,0.00,,---,0.00,VWS V14.00,2013-06-27 15:53:00,
2013-06-27 11:54:00,64.2,0.0,29.83,NNW,345,3.4,10.4,0,0.00,,---,0.00,VWS V14.00,2013-06-27 15:54:00,
2013-06-27 11:55:00,64.2,0.0,29.83,North,359,5.9,11.1,0,0.00,,---,0.00,VWS V14.00,2013-06-27 15:55:00,
2013-06-27 11:56:00,64.4,0.0,29.83,NE,37,7.2,11.1,0,0.00,,---,0.00,VWS V14.00,2013-06-27 15:56:00,
2013-06-27 11:57:00,64.8,0.0,29.83,NE,42,7.8,11.1,0,0.00,,---,0.00,VWS V14.00,2013-06-27 15:57:00,
2013-06-27 11:58:00,64.8,0.0,29.83,NE,44,7.2,11.1,0,0.00,,---,0.00,VWS V14.00,2013-06-27 15:58:00,
2013-06-27 11:59:00,64.6,0.0,29.83,North,359,5.2,11.1,0,0.00,,---,0.00,VWS V14.00,2013-06-27 15:59:00,
2013-06-27 12:00:00,64.7,0.0,29.83,NNE,24,8.3,10.7,0,0.00,,---,0.00,VWS V14.00,2013-06-27 16:00:00,
2013-06-27 12:01:00,64.6,0.0,29.83,NE,35,0.0,10.7,0,0.00,,---,0.00,VWS V14.00,2013-06-27 16:01:00,
2013-06-27 12:02:00,64.7,0.0,29.83,NE,35,0.0,10.7,0,0.00,,---,0.00,VWS V14.00,2013-06-27 16:02:00,
2013-06-27 12:03:00,64.8,0.0,29.82,NE,35,0.0,10.7,0,0.00,,---,0.00,VWS V14.00,2013-06-27 16:03:00,
2013-06-27 12:04:00,64.7,0.0,29.82,NE,35,0.0,10.7,0,0.00,,---,0.00,VWS V14.00,2013-06-27 16:04:00,
2013-06-27 12:05:00,64.7,0.0,29.82,NE,35,0.0,8.3,0,0.00,,---,0.00,VWS V14.00,2013-06-27 16:05:00,
2013-06-27 12:06:00,64.8,0.0,29.82,NE,35,0.0,8.3,0,0.00,,---,0.00,VWS V14.00,2013-06-27 16:06:00,
2013-06-27 12:07:00,64.8,0.0,29.82,NE,35,0.0,8.3,0,0.00,,---,0.00,VWS V14.00,2013-06-27 16:07:00,
2013-06-27 12:08:00,64.6,0.0,29.82,NE,52,5.8,8.3,0,0.00,,---,0.00,VWS V14.00,2013-06-27 16:08:00,
2013-06-27 12:09:00,64.6,0.0,29.82,NNE,22,5.6,8.3,0,0.00,,---,0.00,VWS V14.00,2013-06-27 16:09:00,
2013-06-27 12:10:00,64.4,0.0,29.82,NNE,31,5.2,11.9,0,0.00,,---,0.00,VWS V14.00,2013-06-27 16:10:00,
2013-06-27 12:11:00,64.3,0.0,29.82,ENE,62,6.2,11.9,0,0.00,,---,0.00,VWS V14.00,2013-06-27 16:11:00,
2013-06-27 12:12:00,64.1,0.0,29.82,NE,51,8.0,11.9,0,0.00,,---,0.00,VWS V14.00,2013-06-27 16:12:00,
2013-06-27 12:13:00,63.9,0.0,29.82,NNE,32,9.1,11.9,0,0.00,,---,0.00,VWS V14.00,2013-06-27 16:13:00,
2013-06-27 12:14:00,63.7,0.0,29.82,NE,38,8.8,11.9,0,0.00,,---,0.00,VWS V14.00,2013-06-27 16:14:00,
2013-06-27 12:15:00,63.7,0.0,29.82,NE,38,6.5,13.9,0,0.00,,---,0.00,VWS V14.00,2013-06-27 16:15:00,
2013-06-27 12:16:00,63.5,0.0,29.83,NE,38,8.3,13.9,0,0.00,,---,0.00,VWS V14.00,2013-06-27 16:16:00,
2013-06-27 12:17:00,63.5,0.0,29.82,NNE,30,6.2,13.9,0,0.00,,---,0.00,VWS V14.00,2013-06-27 16:17:00,
2013-06-27 12:18:00,63.5,0.0,29.83,North,359,5.8,13.9,0,0.00,,---,0.00,VWS V14.00,2013-06-27 16:18:00,
2013-06-27 12:19:00,63.3,0.0,29.82,NNE,28,7.7,13.9,0,0.00,,---,0.00,VWS V14.00,2013-06-27 16:19:00,
2013-06-27 12:20:00,63.3,0.0,29.82,North,357,6.3,11.8,0,0.00,,---,0.00,VWS V14.00,2013-06-27 16:20:00,
2013-06-27 12:21:00,63.1,0.0,29.82,NE,46,5.1,11.8,0,0.00,,---,0.00,VWS V14.00,2013-06-27 16:21:00,
2013-06-27 12:22:00,63.2,0.0,29.83,ENE,68,5.9,11.8,0,0.00,,---,0.00,VWS V14.00,2013-06-27 16:22:00,
2013-06-27 12:23:00,63.4,0.0,29.83,North,7,4.3,11.8,0,0.00,,---,0.00,VWS V14.00,2013-06-27 16:23:00,
2013-06-27 12:24:00,63.2,0.0,29.82,NE,34,10.4,11.8,0,0.00,,---,0.00,VWS V14.00,2013-06-27 16:24:00,
2013-06-27 12:25:00,62.9,0.0,29.83,NNE,32,5.5,10.6,0,0.00,,---,0.00,VWS V14.00,2013-06-27 16:25:00,
2013-06-27 12:26:00,62.7,0.0,29.82,NNE,20,7.5,10.6,0,0.00,,---,0.00,VWS V14.00,2013-06-27 16:26:00,
2013-06-27 12:27:00,62.6,0.0,29.82,ENE,62,5.0,10.6,0,0.00,,---,0.00,VWS V14.00,2013-06-27 16:27:00,
2013-06-27 12:28:00,62.9,0.0,29.82,North,356,0.0,10.6,0,0.00,,---,0.00,VWS V14.00,2013-06-27 16:28:00,
2013-06-27 12:29:00,62.7,0.0,29.82,North,6,8.5,10.6,0,0.00,,---,0.00,VWS V14.00,2013-06-27 16:29:00,
2013-06-27 12:30:00,62.5,0.0,29.82,NNE,22,6.6,9.9,0,0.00,,---,0.00,VWS V14.00,2013-06-27 16:30:00,
2013-06-27 12:31:00,62.6,0.0,29.82,NNE,15,6.8,9.9,0,0.00,,---,0.00,VWS V14.00,2013-06-27 16:31:00,
2013-06-27 12:32:00,62.4,0.0,29.82,North,4,5.0,9.9,0,0.00,,---,0.00,VWS V14.00,2013-06-27 16:32:00,
2013-06-27 12:33:00,62.4,0.0,29.82,ENE,63,5.7,9.9,0,0.00,,---,0.00,VWS V14.00,2013-06-27 16:33:00,
2013-06-27 12:34:00,62.4,0.0,29.82,NNE,14,7.8,9.9,0,0.00,,---,0.00,VWS V14.00,2013-06-27 16:34:00,
2013-06-27 12:35:00,62.2,0.0,29.82,NE,48,6.6,9.9,0,0.00,,---,0.00,VWS V14.00,2013-06-27 16:35:00,
2013-06-27 12:36:00,62.1,0.0,29.82,North,4,5.8,11.2,0,0.00,,---,0.00,VWS V14.00,2013-06-27 16:36:00,
2013-06-27 12:37:00,62.3,0.0,29.82,NE,41,0.0,11.2,0,0.00,,---,0.00,VWS V14.00,2013-06-27 16:37:00,
2013-06-27 12:38:00,62.5,0.0,29.82,North,359,8.2,11.2,0,0.00,,---,0.00,VWS V14.00,2013-06-27 16:38:00,
2013-06-27 12:39:00,62.3,0.0,29.82,North,1,7.1,11.2,0,0.00,,---,0.00,VWS V14.00,2013-06-27 16:39:00,
2013-06-27 12:40:00,62.3,0.0,29.82,North,1,0.0,11.2,0,0.00,,---,0.00,VWS V14.00,2013-06-27 16:40:00,
2013-06-27 12:41:00,62.4,0.0,29.82,North,1,0.0,10.6,0,0.00,,---,0.00,VWS V14.00,2013-06-27 16:41:00,
2013-06-27 12:42:00,62.5,0.0,29.82,North,1,0.0,10.6,0,0.00,,---,0.00,VWS V14.00,2013-06-27 16:42:00,
2013-06-27 12:43:00,62.4,0.0,29.82,NNE,31,7.3,10.6,0,0.00,,---,0.00,VWS V14.00,2013-06-27 16:43:00,
2013-06-27 12:44:00,62.5,0.0,29.82,East,83,6.8,10.6,0,0.00,,---,0.00,VWS V14.00,2013-06-27 16:44:00,
2013-06-27 12:45:00,62.8,0.0,29.82,NNE,22,4.7,10.0,0,0.00,,---,0.00,VWS V14.00,2013-06-27 16:45:00,
2013-06-27 12:46:00,62.7,0.0,29.82,NNE,28,6.0,10.0,0,0.00,,---,0.00,VWS V14.00,2013-06-27 16:46:00,
2013-06-27 12:47:00,62.6,0.0,29.82,North,359,4.2,10.0,0,0.00,,---,0.00,VWS V14.00,2013-06-27 16:47:00,
2013-06-27 12:48:00,62.7,0.0,29.82,North,6,3.4,10.0,0,0.00,,---,0.00,VWS V14.00,2013-06-27 16:48:00,
2013-06-27 12:49:00,62.6,0.0,29.82,NE,41,4.2,10.0,0,0.00,,---,0.00,VWS V14.00,2013-06-27 16:49:00,
2013-06-27 12:50:00,62.7,0.0,29.82,East,83,7.2,8.9,0,0.00,,---,0.00,VWS V14.00,2013-06-27 16:50:00,
2013-06-27 12:51:00,63.1,0.0,29.82,NE,51,8.9,8.9,0,0.00,,---,0.00,VWS V14.00,2013-06-27 16:51:00,
2013-06-27 12:52:00,63.4,0.0,29.81,NE,37,9.4,9.4,0,0.00,,---,0.00,VWS V14.00,2013-06-27 16:52:00,
2013-06-27 12:53:00,63.5,0.0,29.81,North,359,4.5,8.9,0,0.00,,---,0.00,VWS V14.00,2013-06-27 16:53:00,
2013-06-27 12:54:00,63.6,0.0,29.81,North,359,0.0,8.9,0,0.00,,---,0.00,VWS V14.00,2013-06-27 16:54:00,
2013-06-27 12:55:00,63.7,0.0,29.81,North,359,0.0,12.8,0,0.00,,---,0.00,VWS V14.00,2013-06-27 16:55:00,
2013-06-27 12:56:00,63.9,0.0,29.81,NNE,28,12.3,12.8,0,0.00,,---,0.00,VWS V14.00,2013-06-27 16:56:00,
2013-06-27 12:57:00,63.8,0.0,29.81,North,10,5.7,12.8,0,0.00,,---,0.00,VWS V14.00,2013-06-27 16:57:00,
2013-06-27 12:58:00,63.5,0.0,29.81,ENE,75,6.5,12.8,0,0.00,,---,0.00,VWS V14.00,2013-06-27 16:58:00,
2013-06-27 12:59:00,63.5,0.0,29.81,East,100,8.5,12.8,0,0.00,,---,0.00,VWS V14.00,2013-06-27 16:59:00,
2013-06-27 13:00:00,63.6,0.0,29.81,NNE,15,6.6,12.3,0,0.00,,---,0.00,VWS V14.00,2013-06-27 17:00:00,
2013-06-27 13:01:00,63.6,0.0,29.81,NNE,15,0.0,12.3,0,0.00,,---,0.00,VWS V14.00,2013-06-27 17:01:00,
2013-06-27 13:02:00,63.6,0.0,29.81,NE,51,10.4,12.3,0,0.00,,---,0.00,VWS V14.00,2013-06-27 17:02:00,
2013-06-27 13:03:00,63.5,0.0,29.82,NNE,28,0.0,12.3,0,0.00,,---,0.00,VWS V14.00,2013-06-27 17:03:00,
2013-06-27 13:04:00,63.4,0.0,29.81,NE,48,6.6,12.3,0,0.00,,---,0.00,VWS V14.00,2013-06-27 17:04:00,
2013-06-27 13:05:00,63.4,0.0,29.82,NE,44,13.9,13.9,0,0.00,,---,0.00,VWS V14.00,2013-06-27 17:05:00,
2013-06-27 13:06:00,63.2,0.0,29.81,NNE,24,11.4,13.4,0,0.00,,---,0.00,VWS V14.00,2013-06-27 17:06:00,
2013-06-27 13:07:00,63.3,0.0,29.82,NNE,22,11.6,13.4,0,0.00,,---,0.00,VWS V14.00,2013-06-27 17:07:00,
2013-06-27 13:08:00,63.2,0.0,29.82,NE,52,6.4,13.4,0,0.00,,---,0.00,VWS V14.00,2013-06-27 17:08:00,
2013-06-27 13:09:00,63.1,0.0,29.82,NE,34,8.4,13.4,0,0.00,,---,0.00,VWS V14.00,2013-06-27 17:09:00,
2013-06-27 13:10:00,62.9,0.0,29.81,NE,35,9.8,14.0,0,0.00,,---,0.00,VWS V14.00,2013-06-27 17:10:00,
2013-06-27 13:11:00,62.7,0.0,29.81,NE,52,9.1,14.0,0,0.00,,---,0.00,VWS V14.00,2013-06-27 17:11:00,
2013-06-27 13:12:00,62.7,0.0,29.81,NNE,24,6.1,14.0,0,0.00,,---,0.00,VWS V14.00,2013-06-27 17:12:00,
2013-06-27 13:13:00,62.7,0.0,29.81,NE,35,11.0,14.0,0,0.00,,---,0.00,VWS V14.00,2013-06-27 17:13:00,
2013-06-27 13:14:00,62.7,0.0,29.81,NNE,22,7.8,14.0,0,0.00,,---,0.00,VWS V14.00,2013-06-27 17:14:00,
2013-06-27 13:15:00,62.8,0.0,29.81,NE,44,10.9,13.0,0,0.00,,---,0.00,VWS V14.00,2013-06-27 17:15:00,
2013-06-27 13:16:00,62.8,0.0,29.81,North,359,5.5,13.0,0,0.00,,---,0.00,VWS V14.00,2013-06-27 17:16:00,
2013-06-27 13:17:00,62.8,0.0,29.81,NE,46,10.4,13.0,0,0.00,,---,0.00,VWS V14.00,2013-06-27 17:17:00,
2013-06-27 13:18:00,62.8,0.0,29.81,ENE,58,10.1,13.0,0,0.00,,---,0.00,VWS V14.00,2013-06-27 17:18:00,
2013-06-27 13:19:00,62.8,0.0,29.81,NE,45,6.8,13.0,0,0.00,,---,0.00,VWS V14.00,2013-06-27 17:19:00,
2013-06-27 13:20:00,62.8,0.0,29.81,NE,41,7.2,14.3,0,0.00,,---,0.00,VWS V14.00,2013-06-27 17:20:00,
2013-06-27 13:21:00,62.6,0.0,29.81,ENE,63,7.0,14.3,0,0.00,,---,0.00,VWS V14.00,2013-06-27 17:21:00,
2013-06-27 13:22:00,62.6,0.0,29.81,ENE,75,10.5,14.3,0,0.00,,---,0.00,VWS V14.00,2013-06-27 17:22:00,
2013-06-27 13:23:00,62.7,0.0,29.81,NE,35,10.1,14.3,0,0.00,,---,0.00,VWS V14.00,2013-06-27 17:23:00,
2013-06-27 13:24:00,62.7,0.0,29.81,NNE,15,9.1,14.3,0,0.00,,---,0.00,VWS V14.00,2013-06-27 17:24:00,
2013-06-27 13:25:00,62.7,0.0,29.81,NE,39,0.0,12.9,0,0.00,,---,0.00,VWS V14.00,2013-06-27 17:25:00,
2013-06-27 13:26:00,62.7,0.0,29.81,NE,39,0.0,12.9,0,0.00,,---,0.00,VWS V14.00,2013-06-27 17:26:00,
2013-06-27 13:27:00,62.6,0.0,29.81,NE,39,0.0,12.9,0,0.00,,---,0.00,VWS V14.00,2013-06-27 17:27:00,
2013-06-27 13:28:00,62.7,0.0,29.81,NE,39,0.0,12.9,0,0.00,,---,0.00,VWS V14.00,2013-06-27 17:28:00,
2013-06-27 13:29:00,62.9,0.0,29.81,ENE,60,7.6,12.9,0,0.00,,---,0.00,VWS V14.00,2013-06-27 17:29:00,
2013-06-27 13:30:00,63.0,0.0,29.81,ENE,59,7.3,11.9,0,0.00,,---,0.00,VWS V14.00,2013-06-27 17:30:00,
2013-06-27 13:31:00,62.9,0.0,29.81,NE,49,7.5,11.9,0,0.00,,---,0.00,VWS V14.00,2013-06-27 17:31:00,
2013-06-27 13:32:00,62.9,0.0,29.81,NNE,32,8.3,11.9,0,0.00,,---,0.00,VWS V14.00,2013-06-27 17:32:00,
2013-06-27 13:33:00,62.8,0.0,29.81,NE,42,6.4,11.9,0,0.00,,---,0.00,VWS V14.00,2013-06-27 17:33:00,
2013-06-27 13:34:00,62.7,0.0,29.81,ENE,58,5.2,11.9,0,0.00,,---,0.00,VWS V14.00,2013-06-27 17:34:00,
2013-06-27 13:35:00,62.8,0.0,29.81,East,86,7.9,11.4,0,0.00,,---,0.00,VWS V14.00,2013-06-27 17:35:00,
2013-06-27 13:36:00,62.9,0.0,29.81,NE,34,10.8,11.4,0,0.00,,---,0.00,VWS V14.00,2013-06-27 17:36:00,
2013-06-27 13:37:00,63.1,0.0,29.81,North,359,5.5,11.4,0,0.00,,---,0.00,VWS V14.00,2013-06-27 17:37:00,
2013-06-27 13:38:00,63.0,0.0,29.81,ENE,68,9.9,11.4,0,0.00,,---,0.00,VWS V14.00,2013-06-27 17:38:00,
2013-06-27 13:39:00,63.0,0.0,29.81,NE,55,8.3,11.4,0,0.00,,---,0.00,VWS V14.00,2013-06-27 17:39:00,
2013-06-27 13:40:00,63.0,0.0,29.81,ENE,75,7.3,11.4,0,0.00,,---,0.00,VWS V14.00,2013-06-27 17:40:00,
2013-06-27 13:41:00,63.0,0.0,29.81,NE,55,10.9,12.1,0,0.00,,---,0.00,VWS V14.00,2013-06-27 17:41:00,
2013-06-27 13:42:00,63.0,0.0,29.81,ENE,58,10.3,12.1,0,0.00,,---,0.00,VWS V14.00,2013-06-27 17:42:00,
2013-06-27 13:43:00,63.0,0.0,29.81,NE,42,8.8,12.1,0,0.00,,---,0.00,VWS V14.00,2013-06-27 17:43:00,
2013-06-27 13:44:00,62.9,0.0,29.81,NE,41,6.4,12.1,0,0.00,,---,0.00,VWS V14.00,2013-06-27 17:44:00,
2013-06-27 13:45:00,63.0,0.0,29.81,NNE,17,0.0,12.2,0,0.00,,---,0.00,VWS V14.00,2013-06-27 17:45:00,
2013-06-27 13:46:00,63.1,0.0,29.81,ENE,68,8.0,12.2,0,0.00,,---,0.00,VWS V14.00,2013-06-27 17:46:00,
2013-06-27 13:47:00,63.1,0.0,29.81,NNE,17,9.6,12.2,0,0.00,,---,0.00,VWS V14.00,2013-06-27 17:47:00,
2013-06-27 13:48:00,63.2,0.0,29.81,NE,42,0.0,12.2,0,0.00,,---,0.00,VWS V14.00,2013-06-27 17:48:00,
2013-06-27 13:49:00,63.3,0.0,29.81,NE,42,0.0,12.2,0,0.00,,---,0.00,VWS V14.00,2013-06-27 17:49:00,
2013-06-27 13:50:00,63.4,0.0,29.81,NE,42,0.0,14.0,0,0.00,,---,0.00,VWS V14.00,2013-06-27 17:50:00,
2013-06-27 13:51:00,63.1,0.0,29.81,NE,42,0.0,14.0,0,0.00,,---,0.00,VWS V14.00,2013-06-27 17:51:00,
2013-06-27 13:52:00,63.0,0.0,29.81,NE,42,0.0,14.0,0,0.00,,---,0.00,VWS V14.00,2013-06-27 17:52:00,
2013-06-27 13:53:00,62.9,0.0,29.81,North,3,8.5,14.0,0,0.00,,---,0.00,VWS V14.00,2013-06-27 17:53:00,
2013-06-27 13:54:00,62.8,0.0,29.81,NNW,328,8.4,14.0,0,0.00,,---,0.00,VWS V14.00,2013-06-27 17:54:00,
2013-06-27 13:55:00,62.7,0.0,29.81,North,359,3.4,10.6,0,0.00,,---,0.00,VWS V14.00,2013-06-27 17:55:00,
2013-06-27 13:56:00,62.8,0.0,29.81,NE,35,4.3,10.6,0,0.00,,---,0.00,VWS V14.00,2013-06-27 17:56:00,
2013-06-27 13:57:00,62.8,0.0,29.81,North,359,5.7,10.6,0,0.00,,---,0.00,VWS V14.00,2013-06-27 17:57:00,
2013-06-27 13:58:00,62.8,0.0,29.81,North,8,4.2,10.6,0,0.00,,---,0.00,VWS V14.00,2013-06-27 17:58:00,
2013-06-27 13:59:00,62.7,0.0,29.81,NNE,25,10.1,10.6,0,0.00,,---,0.00,VWS V14.00,2013-06-27 17:59:00,
2013-06-27 14:00:00,62.6,0.0,29.81,ENE,77,6.7,10.1,0,0.00,,---,0.00,VWS V14.00,2013-06-27 18:00:00,
2013-06-27 14:01:00,62.5,0.0,29.81,North,359,5.4,10.1,0,0.00,,---,0.00,VWS V14.00,2013-06-27 18:01:00,
2013-06-27 14:02:00,62.5,0.0,29.81,NNE,20,6.6,10.1,0,0.00,,---,0.00,VWS V14.00,2013-06-27 18:02:00,
2013-06-27 14:03:00,62.5,0.0,29.81,NE,39,10.0,10.1,0,0.00,,---,0.00,VWS V14.00,2013-06-27 18:03:00,
2013-06-27 14:04:00,62.5,0.0,29.81,NNE,31,8.8,10.1,0,0.00,,---,0.00,VWS V14.00,2013-06-27 18:04:00,
2013-06-27 14:05:00,62.5,0.0,29.81,North,8,4.7,11.4,0,0.00,,---,0.00,VWS V14.00,2013-06-27 18:05:00,
2013-06-27 14:06:00,62.5,0.0,29.81,NNE,20,9.6,11.4,0,0.00,,---,0.00,VWS V14.00,2013-06-27 18:06:00,
2013-06-27 14:07:00,62.4,0.0,29.81,NNE,25,6.0,11.4,0,0.00,,---,0.00,VWS V14.00,2013-06-27 18:07:00,
2013-06-27 14:08:00,62.5,0.0,29.81,NNE,28,5.2,11.4,0,0.00,,---,0.00,VWS V14.00,2013-06-27 18:08:00,
2013-06-27 14:09:00,62.4,0.0,29.81,NE,42,5.3,11.4,0,0.00,,---,0.00,VWS V14.00,2013-06-27 18:09:00,
2013-06-27 14:10:00,62.5,0.0,29.81,North,359,2.3,10.0,0,0.00,,---,0.00,VWS V14.00,2013-06-27 18:10:00,
2013-06-27 14:11:00,62.5,0.0,29.81,North,359,0.0,10.0,0,0.00,,---,0.00,VWS V14.00,2013-06-27 18:11:00,
2013-06-27 14:12:00,62.8,0.0,29.81,North,359,0.0,10.0,0,0.00,,---,0.00,VWS V14.00,2013-06-27 18:12:00,
2013-06-27 14:13:00,62.9,0.0,29.81,North,359,0.0,10.0,0,0.00,,---,0.00,VWS V14.00,2013-06-27 18:13:00,
2013-06-27 14:14:00,62.9,0.0,29.81,North,359,0.0,10.0,0,0.00,,---,0.00,VWS V14.00,2013-06-27 18:14:00,
2013-06-27 14:15:00,62.7,0.0,29.81,North,359,0.0,0.0,0,0.00,,---,0.00,VWS V14.00,2013-06-27 18:15:00,
2013-06-27 14:16:00,62.6,0.0,29.81,North,359,0.0,0.0,0,0.00,,---,0.00,VWS V14.00,2013-06-27 18:16:00,
2013-06-27 14:17:00,62.5,0.0,29.81,North,359,0.0,0.0,0,0.00,,---,0.00,VWS V14.00,2013-06-27 18:17:00,
2013-06-27 14:18:00,62.4,0.0,29.81,ENE,63,5.5,0.0,0,0.00,,---,0.00,VWS V14.00,2013-06-27 18:18:00,
2013-06-27 14:19:00,62.4,0.0,29.81,ENE,58,4.2,0.0,0,0.00,,---,0.00,VWS V14.00,2013-06-27 18:19:00,
2013-06-27 14:20:00,62.5,0.0,29.81,NNE,30,5.8,7.1,0,0.00,,---,0.00,VWS V14.00,2013-06-27 18:20:00,
2013-06-27 14:21:00,62.7,0.0,29.81,North,4,3.4,7.1,0,0.00,,---,0.00,VWS V14.00,2013-06-27 18:21:00,
2013-06-27 14:22:00,62.8,0.0,29.81,ENE,60,8.0,8.0,0,0.00,,---,0.00,VWS V14.00,2013-06-27 18:22:00,
2013-06-27 14:23:00,62.8,0.0,29.81,ENE,69,8.8,8.8,0,0.00,,---,0.00,VWS V14.00,2013-06-27 18:23:00,
2013-06-27 14:24:00,62.8,0.0,29.81,NE,46,2.2,7.1,0,0.00,,---,0.00,VWS V14.00,2013-06-27 18:24:00,
2013-06-27 14:25:00,63.0,0.0,29.81,North,359,1.2,10.6,0,0.00,,---,0.00,VWS V14.00,2013-06-27 18:25:00,
2013-06-27 14:26:00,63.0,0.0,29.81,NE,35,8.8,10.6,0,0.00,,---,0.00,VWS V14.00,2013-06-27 18:26:00,
2013-06-27 14:27:00,63.0,0.0,29.81,ENE,58,9.9,10.6,0,0.00,,---,0.00,VWS V14.00,2013-06-27 18:27:00,
2013-06-27 14:28:00,63.1,0.0,29.81,NE,48,0.0,10.6,0,0.00,,---,0.00,VWS V14.00,2013-06-27 18:28:00,
2013-06-27 14:29:00,63.0,0.0,29.81,NE,48,0.0,10.6,0,0.00,,---,0.00,VWS V14.00,2013-06-27 18:29:00,
2013-06-27 14:30:00,63.1,0.0,29.81,NE,48,0.0,10.4,0,0.00,,---,0.00,VWS V14.00,2013-06-27 18:30:00,
2013-06-27 14:31:00,63.2,0.0,29.81,NE,48,0.0,10.4,0,0.00,,---,0.00,VWS V14.00,2013-06-27 18:31:00,
2013-06-27 14:32:00,63.2,0.0,29.81,NE,46,9.3,10.4,0,0.00,,---,0.00,VWS V14.00,2013-06-27 18:32:00,
2013-06-27 14:33:00,63.3,0.0,29.81,NNE,32,9.3,10.4,0,0.00,,---,0.00,VWS V14.00,2013-06-27 18:33:00,
2013-06-27 14:34:00,63.4,0.0,29.81,ENE,70,6.5,10.4,0,0.00,,---,0.00,VWS V14.00,2013-06-27 18:34:00,
2013-06-27 14:35:00,63.3,0.0,29.81,NE,35,8.5,11.4,0,0.00,,---,0.00,VWS V14.00,2013-06-27 18:35:00,
2013-06-27 14:36:00,63.2,0.0,29.81,North,359,5.7,11.4,0,0.00,,---,0.00,VWS V14.00,2013-06-27 18:36:00,
2013-06-27 14:37:00,63.1,0.0,29.81,NE,45,8.3,11.4,0,0.00,,---,0.00,VWS V14.00,2013-06-27 18:37:00,
2013-06-27 14:38:00,63.0,0.0,29.81,ENE,76,0.0,11.4,0,0.00,,---,0.00,VWS V14.00,2013-06-27 18:38:00,
2013-06-27 14:39:00,63.1,0.0,29.81,ENE,76,0.0,11.4,0,0.00,,---,0.00,VWS V14.00,2013-06-27 18:39:00,
2013-06-27 14:40:00,63.0,0.0,29.81,ENE,76,0.0,11.4,0,0.00,,---,0.00,VWS V14.00,2013-06-27 18:40:00,
2013-06-27 14:41:00,63.0,0.0,29.81,ENE,76,0.0,10.7,0,0.00,,---,0.00,VWS V14.00,2013-06-27 18:41:00,
2013-06-27 14:42:00,62.8,0.0,29.81,ENE,76,0.0,10.7,0,0.00,,---,0.00,VWS V14.00,2013-06-27 18:42:00,
2013-06-27 14:43:00,62.9,0.0,29.81,ENE,76,0.0,10.7,0,0.00,,---,0.00,VWS V14.00,2013-06-27 18:43:00,
2013-06-27 14:44:00,62.9,0.0,29.81,ENE,76,0.0,10.7,0,0.00,,---,0.00,VWS V14.00,2013-06-27 18:44:00,
2013-06-27 14:45:00,63.0,0.0,29.81,ENE,76,0.0,10.7,0,0.00,,---,0.00,VWS V14.00,2013-06-27 18:45:00,
2013-06-27 14:46:00,62.9,0.0,29.81,ENE,76,0.0,0.0,0,0.00,,---,0.00,VWS V14.00,2013-06-27 18:46:00,
2013-06-27 14:47:00,62.9,0.0,29.81,ENE,76,0.0,0.0,0,0.00,,---,0.00,VWS V14.00,2013-06-27 18:47:00,
2013-06-27 14:48:00,62.7,0.0,29.81,ENE,76,0.0,0.0,0,0.00,,---,0.00,VWS V14.00,2013-06-27 18:48:00,
2013-06-27 14:49:00,62.7,0.0,29.81,ENE,76,0.0,0.0,0,0.00,,---,0.00,VWS V14.00,2013-06-27 18:49:00,
2013-06-27 14:50:00,62.7,0.0,29.81,ENE,76,0.0,0.0,0,0.00,,---,0.00,VWS V14.00,2013-06-27 18:50:00,
2013-06-27 14:51:00,62.7,0.0,29.81,ENE,76,0.0,0.0,0,0.00,,---,0.00,VWS V14.00,2013-06-27 18:51:00,
2013-06-27 14:52:00,62.7,0.0,29.81,ENE,76,0.0,0.0,0,0.00,,---,0.00,VWS V14.00,2013-06-27 18:52:00,
2013-06-27 14:53:00,62.7,0.0,29.81,ENE,76,0.0,0.0,0,0.00,,---,0.00,VWS V14.00,2013-06-27 18:53:00,
2013-06-27 14:54:00,62.6,0.0,29.81,ENE,76,0.0,0.0,0,0.00,,---,0.00,VWS V14.00,2013-06-27 18:54:00,
2013-06-27 14:55:00,62.6,0.0,29.81,ENE,76,0.0,0.0,0,0.00,,---,0.00,VWS V14.00,2013-06-27 18:55:00,
2013-06-27 14:56:00,62.5,0.0,29.81,ENE,76,0.0,0.0,0,0.00,,---,0.00,VWS V14.00,2013-06-27 18:56:00,
2013-06-27 14:57:00,62.5,0.0,29.81,ENE,76,0.0,0.0,0,0.00,,---,0.00,VWS V14.00,2013-06-27 18:57:00,
2013-06-27 14:58:00,62.5,0.0,29.80,ENE,76,0.0,0.0,0,0.00,,---,0.00,VWS V14.00,2013-06-27 18:58:00,
2013-06-27 14:59:00,62.5,0.0,29.80,ENE,76,0.0,0.0,0,0.00,,---,0.00,VWS V14.00,2013-06-27 18:59:00,
2013-06-27 15:00:00,62.5,0.0,29.80,ENE,76,0.0,0.0,0,0.00,,---,0.00,VWS V14.00,2013-06-27 19:00:00,
2013-06-27 15:01:00,62.5,0.0,29.80,ENE,76,0.0,0.0,0,0.00,,---,0.00,VWS V14.00,2013-06-27 19:01:00,
2013-06-27 15:02:00,62.5,0.0,29.80,ENE,76,0.0,0.0,0,0.00,,---,0.00,VWS V14.00,2013-06-27 19:02:00,
2013-06-27 15:03:00,62.5,0.0,29.80,ENE,76,0.0,0.0,0,0.00,,---,0.00,VWS V14.00,2013-06-27 19:03:00,
2013-06-27 15:04:00,62.6,0.0,29.80,ENE,76,0.0,0.0,0,0.00,,---,0.00,VWS V14.00,2013-06-27 19:04:00,
2013-06-27 15:05:00,62.7,0.0,29.80,ENE,76,0.0,0.0,0,0.00,,---,0.00,VWS V14.00,2013-06-27 19:05:00,
2013-06-27 15:06:00,62.8,0.0,29.80,ENE,76,0.0,0.0,0,0.00,,---,0.00,VWS V14.00,2013-06-27 19:06:00,
2013-06-27 15:07:00,62.7,0.0,29.80,ENE,76,0.0,0.0,0,0.00,,---,0.00,VWS V14.00,2013-06-27 19:07:00,
2013-06-27 15:08:00,62.7,0.0,29.80,ENE,76,0.0,0.0,0,0.00,,---,0.00,VWS V14.00,2013-06-27 19:08:00,
2013-06-27 15:09:00,62.5,0.0,29.80,ENE,76,0.0,0.0,0,0.00,,---,0.00,VWS V14.00,2013-06-27 19:09:00,
2013-06-27 15:10:00,62.5,0.0,29.79,ENE,76,0.0,0.0,0,0.00,,---,0.00,VWS V14.00,2013-06-27 19:10:00,
2013-06-27 15:11:00,62.4,0.0,29.79,ENE,76,0.0,0.0,0,0.00,,---,0.00,VWS V14.00,2013-06-27 19:11:00,
2013-06-27 15:12:00,62.4,0.0,29.79,NE,38,9.0,0.0,0,0.00,,---,0.00,VWS V14.00,2013-06-27 19:12:00,
2013-06-27 15:13:00,62.5,0.0,29.79,NE,51,11.4,0.0,0,0.00,,---,0.00,VWS V14.00,2013-06-27 19:13:00,
2013-06-27 15:14:00,62.5,0.0,29.79,NE,46,10.7,0.0,0,0.00,,---,0.00,VWS V14.00,2013-06-27 19:14:00,
2013-06-27 15:15:00,62.4,0.0,29.80,NNE,32,11.4,11.9,0,0.00,,---,0.00,VWS V14.00,2013-06-27 19:15:00,
2013-06-27 15:16:00,62.4,0.0,29.80,ENE,72,8.6,11.9,0,0.00,,---,0.00,VWS V14.00,2013-06-27 19:16:00,
2013-06-27 15:17:00,62.4,0.0,29.80,NE,38,10.3,11.9,0,0.00,,---,0.00,VWS V14.00,2013-06-27 19:17:00,
2013-06-27 15:18:00,62.4,0.0,29.80,NE,53,11.1,11.9,0,0.00,,---,0.00,VWS V14.00,2013-06-27 19:18:00,
2013-06-27 15:19:00,62.5,0.0,29.80,NE,56,7.4,11.9,0,0.00,,---,0.00,VWS V14.00,2013-06-27 19:19:00,
2013-06-27 15:20:00,62.6,0.0,29.80,NE,46,3.5,11.7,0,0.00,,---,0.00,VWS V14.00,2013-06-27 19:20:00,
2013-06-27 15:21:00,62.7,0.0,29.80,NNE,30,6.4,11.7,0,0.00,,---,0.00,VWS V14.00,2013-06-27 19:21:00,
2013-06-27 15:22:00,62.7,0.0,29.80,NE,39,8.3,11.7,0,0.00,,---,0.00,VWS V14.00,2013-06-27 19:22:00,
2013-06-27 15:23:00,62.7,0.0,29.80,ENE,68,8.3,11.7,0,0.00,,---,0.00,VWS V14.00,2013-06-27 19:23:00,
2013-06-27 15:24:00,62.7,0.0,29.80,NNE,21,12.6,12.6,0,0.00,,---,0.00,VWS V14.00,2013-06-27 19:24:00,
2013-06-27 15:25:00,62.6,0.0,29.80,ENE,70,7.3,12.6,0,0.00,,---,0.00,VWS V14.00,2013-06-27 19:25:00,
2013-06-27 15:26:00,62.6,0.0,29.79,ENE,65,4.6,12.6,0,0.00,,---,0.00,VWS V14.00,2013-06-27 19:26:00,
2013-06-27 15:27:00,62.7,0.0,29.80,North,7,0.0,12.6,0,0.00,,---,0.00,VWS V14.00,2013-06-27 19:27:00,
2013-06-27 15:28:00,62.8,0.0,29.80,East,79,0.0,12.6,0,0.00,,---,0.00,VWS V14.00,2013-06-27 19:28:00,
2013-06-27 15:29:00,62.8,0.0,29.80,NE,35,3.2,12.6,0,0.00,,---,0.00,VWS V14.00,2013-06-27 19:29:00,
2013-06-27 15:30:00,62.8,0.0,29.80,NE,56,3.1,8.6,0,0.00,,---,0.00,VWS V14.00,2013-06-27 19:30:00,
2013-06-27 15:31:00,62.9,0.0,29.80,NNE,31,3.2,8.6,0,0.00,,---,0.00,VWS V14.00,2013-06-27 19:31:00,
2013-06-27 15:32:00,63.1,0.0,29.80,NNE,17,4.2,8.6,0,0.00,,---,0.00,VWS V14.00,2013-06-27 19:32:00,
2013-06-27 15:33:00,63.1,0.0,29.80,NNE,18,0.0,8.6,0,0.00,,---,0.00,VWS V14.00,2013-06-27 19:33:00,
2013-06-27 15:34:00,63.1,0.0,29.80,NNE,27,1.6,8.6,0,0.00,,---,0.00,VWS V14.00,2013-06-27 19:34:00,
2013-06-27 15:35:00,62.8,0.0,29.80,NE,48,2.7,7.6,0,0.00,,---,0.00,VWS V14.00,2013-06-27 19:35:00,
2013-06-27 15:36:00,62.6,0.0,29.80,NNE,31,4.8,7.6,0,0.00,,---,0.00,VWS V14.00,2013-06-27 19:36:00,
2013-06-27 15:37:00,62.5,0.0,29.80,NE,41,4.7,7.6,0,0.00,,---,0.00,VWS V14.00,2013-06-27 19:37:00,
2013-06-27 15:38:00,62.5,0.0,29.80,NE,46,6.5,7.6,0,0.00,,---,0.00,VWS V14.00,2013-06-27 19:38:00,
2013-06-27 15:39:00,62.4,0.0,29.80,ENE,73,7.1,7.6,0,0.00,,---,0.00,VWS V14.00,2013-06-27 19:39:00,
2013-06-27 15:40:00,62.4,0.0,29.80,NE,41,7.7,9.8,0,0.00,,---,0.00,VWS V14.00,2013-06-27 19:40:00,
2013-06-27 15:41:00,62.3,0.0,29.80,NE,38,7.2,9.8,0,0.00,,---,0.00,VWS V14.00,2013-06-27 19:41:00,
2013-06-27 15:42:00,62.4,0.0,29.80,NE,45,4.8,9.8,0,0.00,,---,0.00,VWS V14.00,2013-06-27 19:42:00,
2013-06-27 15:43:00,62.4,0.0,29.80,NE,49,3.5,9.8,0,0.00,,---,0.00,VWS V14.00,2013-06-27 19:43:00,
2013-06-27 15:44:00,62.5,0.0,29.80,NNE,25,3.1,9.8,0,0.00,,---,0.00,VWS V14.00,2013-06-27 19:44:00,
2013-06-27 15:45:00,62.5,0.0,29.80,North,359,0.0,9.8,0,0.00,,---,0.00,VWS V14.00,2013-06-27 19:45:00,
2013-06-27 15:46:00,62.5,0.0,29.80,ENE,58,4.5,9.8,0,0.00,,---,0.00,VWS V14.00,2013-06-27 19:46:00,
2013-06-27 15:47:00,62.6,0.0,29.80,NNE,27,5.2,9.8,0,0.00,,---,0.00,VWS V14.00,2013-06-27 19:47:00,
2013-06-27 15:48:00,62.5,0.0,29.80,ENE,70,6.8,9.8,0,0.00,,---,0.00,VWS V14.00,2013-06-27 19:48:00,
2013-06-27 15:49:00,62.5,0.0,29.79,NE,38,7.8,9.8,0,0.00,,---,0.00,VWS V14.00,2013-06-27 19:49:00,
2013-06-27 15:50:00,62.5,0.0,29.79,NE,44,9.3,10.9,0,0.00,,---,0.00,VWS V14.00,2013-06-27 19:50:00,
2013-06-27 15:51:00,62.5,0.0,29.79,North,11,7.3,10.9,0,0.00,,---,0.00,VWS V14.00,2013-06-27 19:51:00,
2013-06-27 15:52:00,62.5,0.0,29.79,NE,55,9.1,10.9,0,0.00,,---,0.00,VWS V14.00,2013-06-27 19:52:00,
2013-06-27 15:53:00,62.4,0.0,29.79,NNE,28,8.5,10.9,0,0.00,,---,0.00,VWS V14.00,2013-06-27 19:53:00,
2013-06-27 15:54:00,62.3,0.0,29.79,NE,37,7.5,10.9,0,0.00,,---,0.00,VWS V14.00,2013-06-27 19:54:00,
2013-06-27 15:55:00,62.3,0.0,29.79,NNE,27,6.3,11.2,0,0.00,,---,0.00,VWS V14.00,2013-06-27 19:55:00,
2013-06-27 15:56:00,62.3,0.0,29.79,NE,46,7.4,11.2,0,0.00,,---,0.00,VWS V14.00,2013-06-27 19:56:00,
2013-06-27 15:57:00,62.2,0.0,29.79,NE,41,8.5,11.2,0,0.00,,---,0.00,VWS V14.00,2013-06-27 19:57:00,
2013-06-27 15:58:00,62.1,0.0,29.79,NE,34,6.6,11.2,0,0.00,,---,0.00,VWS V14.00,2013-06-27 19:58:00,
2013-06-27 15:59:00,62.0,0.0,29.79,NE,41,5.7,11.2,0,0.00,,---,0.00,VWS V14.00,2013-06-27 19:59:00,
2013-06-27 16:00:00,62.0,0.0,29.79,NE,55,5.6,10.1,0,0.00,,---,0.00,VWS V14.00,2013-06-27 20:00:00,
2013-06-27 16:01:00,61.9,0.0,29.79,NNE,32,6.2,10.1,0,0.00,,---,0.00,VWS V14.00,2013-06-27 20:01:00,
2013-06-27 16:02:00,61.9,0.0,29.79,ENE,69,0.0,10.1,0,0.00,,---,0.00,VWS V14.00,2013-06-27 20:02:00,
2013-06-27 16:03:00,61.9,0.0,29.79,ENE,58,5.0,10.1,0,0.00,,---,0.00,VWS V14.00,2013-06-27 20:03:00,
2013-06-27 16:04:00,61.8,0.0,29.79,NE,45,6.6,10.1,0,0.00,,---,0.00,VWS V14.00,2013-06-27 20:04:00,
2013-06-27 16:05:00,61.8,0.0,29.79,ENE,59,5.8,8.5,0,0.00,,---,0.00,VWS V14.00,2013-06-27 20:05:00,
2013-06-27 16:06:00,61.8,0.0,29.79,NE,44,8.6,8.6,0,0.00,,---,0.00,VWS V14.00,2013-06-27 20:06:00,
2013-06-27 16:07:00,61.9,0.0,29.79,NNE,20,7.3,8.5,0,0.00,,---,0.00,VWS V14.00,2013-06-27 20:07:00,
2013-06-27 16:08:00,61.9,0.0,29.79,NE,39,2.2,8.5,0,0.00,,---,0.00,VWS V14.00,2013-06-27 20:08:00,
2013-06-27 16:09:00,61.8,0.0,29.79,NE,44,5.0,8.5,0,0.00,,---,0.00,VWS V14.00,2013-06-27 20:09:00,
2013-06-27 16:10:00,61.9,0.0,29.79,NNE,13,0.0,9.9,0,0.00,,---,0.00,VWS V14.00,2013-06-27 20:10:00,
2013-06-27 16:11:00,61.9,0.0,29.79,NNE,13,0.0,9.9,0,0.00,,---,0.00,VWS V14.00,2013-06-27 20:11:00,
2013-06-27 16:12:00,61.9,0.0,29.79,NNE,13,0.0,9.9,0,0.00,,---,0.00,VWS V14.00,2013-06-27 20:12:00,
2013-06-27 16:13:00,62.0,0.0,29.79,NNE,13,0.0,9.9,0,0.00,,---,0.00,VWS V14.00,2013-06-27 20:13:00,
2013-06-27 16:14:00,62.0,0.0,29.79,ENE,66,0.0,9.9,0,0.00,,---,0.00,VWS V14.00,2013-06-27 20:14:00,
2013-06-27 16:15:00,62.0,0.0,29.79,East,86,2.8,5.5,0,0.00,,---,0.00,VWS V14.00,2013-06-27 20:15:00,
2013-06-27 16:16:00,62.0,0.0,29.79,North,359,0.0,5.5,0,0.00,,---,0.00,VWS V14.00,2013-06-27 20:16:00,
2013-06-27 16:17:00,62.1,0.0,29.79,NE,48,2.5,5.5,0,0.00,,---,0.00,VWS V14.00,2013-06-27 20:17:00,
2013-06-27 16:18:00,62.2,0.0,29.79,NNE,32,0.0,5.5,0,0.00,,---,0.00,VWS V14.00,2013-06-27 20:18:00,
2013-06-27 16:19:00,62.2,0.0,29.79,ENE,65,5.1,5.5,0,0.00,,---,0.00,VWS V14.00,2013-06-27 20:19:00,
2013-06-27 16:20:00,62.2,0.0,29.79,ENE,76,5.6,8.5,0,0.00,,---,0.00,VWS V14.00,2013-06-27 20:20:00,
2013-06-27 16:21:00,62.1,0.0,29.79,ENE,66,4.2,8.5,0,0.00,,---,0.00,VWS V14.00,2013-06-27 20:21:00,
2013-06-27 16:22:00,62.2,0.0,29.79,NNE,27,5.4,8.5,0,0.00,,---,0.00,VWS V14.00,2013-06-27 20:22:00,
2013-06-27 16:23:00,62.3,0.0,29.79,NE,53,0.0,8.5,0,0.00,,---,0.00,VWS V14.00,2013-06-27 20:23:00,
2013-06-27 16:24:00,62.3,0.0,29.79,ENE,66,6.9,8.5,0,0.00,,---,0.00,VWS V14.00,2013-06-27 20:24:00,
2013-06-27 16:25:00,62.3,0.0,29.79,ENE,59,7.2,7.2,0,0.00,,---,0.00,VWS V14.00,2013-06-27 20:25:00,
2013-06-27 16:26:00,62.4,0.0,29.79,NE,46,6.6,7.2,0,0.00,,---,0.00,VWS V14.00,2013-06-27 20:26:00,
2013-06-27 16:27:00,62.3,0.0,29.78,NNE,28,6.2,7.2,0,0.00,,---,0.00,VWS V14.00,2013-06-27 20:27:00,
2013-06-27 16:28:00,62.4,0.0,29.79,NNE,28,3.2,7.2,0,0.00,,---,0.00,VWS V14.00,2013-06-27 20:28:00,
2013-06-27 16:29:00,62.4,0.0,29.78,NNE,27,3.4,7.2,0,0.00,,---,0.00,VWS V14.00,2013-06-27 20:29:00,
2013-06-27 16:30:00,62.3,0.0,29.79,NE,35,6.8,8.3,0,0.00,,---,0.00,VWS V14.00,2013-06-27 20:30:00,
2013-06-27 16:31:00,62.2,0.0,29.78,North,359,5.8,8.3,0,0.00,,---,0.00,VWS V14.00,2013-06-27 20:31:00,
2013-06-27 16:32:00,62.2,0.0,29.78,NE,35,5.7,8.3,0,0.00,,---,0.00,VWS V14.00,2013-06-27 20:32:00,
2013-06-27 16:33:00,62.1,0.0,29.78,North,6,4.6,8.3,0,0.00,,---,0.00,VWS V14.00,2013-06-27 20:33:00,
2013-06-27 16:34:00,62.0,0.0,29.78,NNE,24,6.5,8.3,0,0.00,,---,0.00,VWS V14.00,2013-06-27 20:34:00,
2013-06-27 16:35:00,62.0,0.0,29.78,NE,37,6.6,10.6,0,0.00,,---,0.00,VWS V14.00,2013-06-27 20:35:00,
2013-06-27 16:36:00,62.0,0.0,29.78,North,10,7.4,10.6,0,0.00,,---,0.00,VWS V14.00,2013-06-27 20:36:00,
2013-06-27 16:37:00,61.9,0.0,29.78,NE,42,8.8,10.6,0,0.01,,---,0.01,VWS V14.00,2013-06-27 20:37:00,
2013-06-27 16:38:00,61.8,0.0,29.78,NE,37,8.7,10.6,0,0.01,,---,0.01,VWS V14.00,2013-06-27 20:38:00,
2013-06-27 16:39:00,61.8,0.0,29.78,NNE,15,8.9,10.6,0,0.01,,---,0.01,VWS V14.00,2013-06-27 20:39:00,
2013-06-27 16:40:00,61.8,0.0,29.78,ENE,59,5.8,10.4,0,0.01,,---,0.01,VWS V14.00,2013-06-27 20:40:00,
2013-06-27 16:41:00,61.7,0.0,29.78,ENE,63,6.3,10.4,0,0.01,,---,0.01,VWS V14.00,2013-06-27 20:41:00,
2013-06-27 16:42:00,61.7,0.0,29.78,NNE,32,8.3,10.4,0,0.01,,---,0.01,VWS V14.00,2013-06-27 20:42:00,
2013-06-27 16:43:00,61.7,0.0,29.78,NNE,22,4.2,10.4,0,0.01,,---,0.01,VWS V14.00,2013-06-27 20:43:00,
2013-06-27 16:44:00,61.8,0.0,29.78,ENE,73,0.0,10.4,0,0.01,,---,0.01,VWS V14.00,2013-06-27 20:44:00,
2013-06-27 16:45:00,61.7,0.0,29.78,NNE,28,4.3,9.9,0,0.01,,---,0.01,VWS V14.00,2013-06-27 20:45:00,
2013-06-27 16:46:00,61.6,0.0,29.78,ENE,75,0.0,9.9,0,0.01,,---,0.01,VWS V14.00,2013-06-27 20:46:00,
2013-06-27 16:47:00,61.7,0.0,29.78,NE,56,0.0,9.9,0,0.01,,---,0.01,VWS V14.00,2013-06-27 20:47:00,
2013-06-27 16:48:00,61.7,0.0,29.78,NE,48,0.0,9.9,0,0.01,,---,0.01,VWS V14.00,2013-06-27 20:48:00,
2013-06-27 16:49:00,61.7,0.0,29.78,NE,48,0.0,9.9,0,0.01,,---,0.01,VWS V14.00,2013-06-27 20:49:00,
2013-06-27 16:50:00,61.7,0.0,29.78,NE,48,0.0,9.9,0,0.01,,---,0.01,VWS V14.00,2013-06-27 20:50:00,
2013-06-27 16:51:00,61.6,0.0,29.78,NE,48,0.0,5.0,0,0.01,,---,0.01,VWS V14.00,2013-06-27 20:51:00,
2013-06-27 16:52:00,61.6,0.0,29.78,NE,48,0.0,5.0,0,0.01,,---,0.01,VWS V14.00,2013-06-27 20:52:00,
2013-06-27 16:53:00,61.7,0.0,29.78,NE,51,6.2,6.2,0,0.01,,---,0.01,VWS V14.00,2013-06-27 20:53:00,
2013-06-27 16:54:00,61.6,0.0,29.78,NE,51,0.0,5.0,0,0.01,,---,0.01,VWS V14.00,2013-06-27 20:54:00,
2013-06-27 16:55:00,61.5,0.0,29.78,ENE,62,6.0,7.1,0,0.01,,---,0.01,VWS V14.00,2013-06-27 20:55:00,
2013-06-27 16:56:00,61.5,0.0,29.78,North,359,0.0,7.1,0,0.01,,---,0.01,VWS V14.00,2013-06-27 20:56:00,
2013-06-27 16:57:00,61.5,0.0,29.78,North,359,6.0,7.1,0,0.01,,---,0.01,VWS V14.00,2013-06-27 20:57:00,
2013-06-27 16:58:00,61.5,0.0,29.78,ENE,62,1.2,7.1,0,0.01,,---,0.01,VWS V14.00,2013-06-27 20:58:00,
2013-06-27 16:59:00,61.5,0.0,29.78,NE,35,3.0,7.1,0,0.01,,---,0.01,VWS V14.00,2013-06-27 20:59:00,
2013-06-27 17:00:00,61.5,0.0,29.78,NNE,20,5.7,8.3,0,0.01,,---,0.01,VWS V14.00,2013-06-27 21:00:00,
2013-06-27 17:01:00,61.5,0.0,29.78,NE,42,8.5,8.5,0,0.01,,---,0.01,VWS V14.00,2013-06-27 21:01:00,
2013-06-27 17:02:00,61.5,0.0,29.78,NNE,14,5.0,8.3,0,0.01,,---,0.01,VWS V14.00,2013-06-27 21:02:00,
2013-06-27 17:03:00,61.5,0.0,29.78,NE,35,5.7,8.3,0,0.01,,---,0.01,VWS V14.00,2013-06-27 21:03:00,
2013-06-27 17:04:00,61.5,0.0,29.78,ENE,62,7.0,8.3,0,0.01,,---,0.01,VWS V14.00,2013-06-27 21:04:00,
2013-06-27 17:05:00,61.5,0.0,29.78,NNE,20,5.1,9.1,0,0.01,,---,0.01,VWS V14.00,2013-06-27 21:05:00,
2013-06-27 17:06:00,61.5,0.0,29.78,NE,51,5.3,9.1,0,0.01,,---,0.01,VWS V14.00,2013-06-27 21:06:00,
2013-06-27 17:07:00,61.5,0.0,29.78,NNE,22,4.3,9.1,0,0.01,,---,0.01,VWS V14.00,2013-06-27 21:07:00,
2013-06-27 17:08:00,61.4,0.0,29.78,NE,56,2.5,9.1,0,0.01,,---,0.01,VWS V14.00,2013-06-27 21:08:00,
2013-06-27 17:09:00,61.5,0.0,29.78,NNE,22,5.4,9.1,0,0.02,,---,0.02,VWS V14.00,2013-06-27 21:09:00,
2013-06-27 17:10:00,61.5,0.0,29.78,NNE,27,3.5,8.1,0,0.02,,---,0.02,VWS V14.00,2013-06-27 21:10:00,
2013-06-27 17:11:00,61.6,0.0,29.78,NE,55,3.2,8.1,0,0.02,,---,0.02,VWS V14.00,2013-06-27 21:11:00,
2013-06-27 17:12:00,61.5,0.0,29.78,ENE,72,4.7,8.1,0,0.02,,---,0.02,VWS V14.00,2013-06-27 21:12:00,
2013-06-27 17:13:00,61.5,0.0,29.78,NNE,13,0.0,8.1,0,0.02,,---,0.02,VWS V14.00,2013-06-27 21:13:00,
2013-06-27 17:14:00,61.5,0.0,29.78,NNE,13,0.0,8.1,0,0.02,,---,0.02,VWS V14.00,2013-06-27 21:14:00,
2013-06-27 17:15:00,61.6,0.0,29.78,NNE,13,0.0,6.3,0,0.02,,---,0.02,VWS V14.00,2013-06-27 21:15:00,
2013-06-27 17:16:00,61.5,0.0,29.78,NNE,13,0.0,6.3,0,0.02,,---,0.02,VWS V14.00,2013-06-27 21:16:00,
2013-06-27 17:17:00,61.5,0.0,29.78,NNE,13,0.0,6.3,0,0.02,,---,0.02,VWS V14.00,2013-06-27 21:17:00,
2013-06-27 17:18:00,61.6,0.0,29.78,NNE,13,0.0,6.3,0,0.02,,---,0.02,VWS V14.00,2013-06-27 21:18:00,
2013-06-27 17:19:00,61.6,0.0,29.78,NNE,13,0.0,6.3,0,0.02,,---,0.02,VWS V14.00,2013-06-27 21:19:00,
2013-06-27 17:20:00,61.6,0.0,29.78,NNE,13,0.0,0.0,0,0.02,,---,0.02,VWS V14.00,2013-06-27 21:20:00,
2013-06-27 17:21:00,61.7,0.0,29.78,NNE,13,0.0,0.0,0,0.02,,---,0.02,VWS V14.00,2013-06-27 21:21:00,
2013-06-27 17:22:00,61.7,0.0,29.78,NNE,13,0.0,0.0,0,0.02,,---,0.02,VWS V14.00,2013-06-27 21:22:00,
2013-06-27 17:23:00,61.7,0.0,29.78,NNE,13,0.0,0.0,0,0.02,,---,0.02,VWS V14.00,2013-06-27 21:23:00,
2013-06-27 17:24:00,61.7,0.0,29.78,NNE,13,0.0,0.0,0,0.02,,---,0.02,VWS V14.00,2013-06-27 21:24:00,
2013-06-27 17:25:00,61.8,0.0,29.78,NNE,13,0.0,0.0,0,0.02,,---,0.02,VWS V14.00,2013-06-27 21:25:00,
2013-06-27 17:26:00,61.7,0.0,29.78,NNE,13,0.0,0.0,0,0.02,,---,0.02,VWS V14.00,2013-06-27 21:26:00,
2013-06-27 17:27:00,61.7,0.0,29.78,NNE,13,0.0,0.0,0,0.02,,---,0.02,VWS V14.00,2013-06-27 21:27:00,
2013-06-27 17:28:00,61.7,0.0,29.78,NNE,13,0.0,0.0,0,0.02,,---,0.02,VWS V14.00,2013-06-27 21:28:00,
2013-06-27 17:29:00,61.6,0.0,29.78,NNE,13,0.0,0.0,0,0.02,,---,0.02,VWS V14.00,2013-06-27 21:29:00,
2013-06-27 17:30:00,61.5,0.0,29.78,NNE,13,0.0,0.0,0,0.02,,---,0.02,VWS V14.00,2013-06-27 21:30:00,
2013-06-27 17:31:00,61.5,0.0,29.78,NNE,13,0.0,0.0,0,0.02,,---,0.02,VWS V14.00,2013-06-27 21:31:00,
2013-06-27 17:32:00,61.5,0.0,29.78,NNE,13,0.0,0.0,0,0.02,,---,0.02,VWS V14.00,2013-06-27 21:32:00,
2013-06-27 17:33:00,61.5,0.0,29.78,NNE,13,0.0,0.0,0,0.02,,---,0.02,VWS V14.00,2013-06-27 21:33:00,
2013-06-27 17:34:00,61.5,0.0,29.78,NNE,13,0.0,0.0,0,0.02,,---,0.02,VWS V14.00,2013-06-27 21:34:00,
2013-06-27 17:35:00,61.5,0.0,29.78,NNE,13,0.0,0.0,0,0.02,,---,0.02,VWS V14.00,2013-06-27 21:35:00,
2013-06-27 17:36:00,61.5,0.0,29.78,NNE,13,0.0,0.0,0,0.02,,---,0.02,VWS V14.00,2013-06-27 21:36:00,
2013-06-27 17:37:00,61.5,0.0,29.78,NE,49,0.0,0.0,0,0.02,,---,0.02,VWS V14.00,2013-06-27 21:37:00,
2013-06-27 17:38:00,61.6,0.0,29.78,NE,49,0.0,0.0,0,0.02,,---,0.02,VWS V14.00,2013-06-27 21:38:00,
2013-06-27 17:39:00,61.6,0.0,29.78,NE,49,0.0,0.0,0,0.02,,---,0.02,VWS V14.00,2013-06-27 21:39:00,
2013-06-27 17:40:00,61.6,0.0,29.78,NE,49,0.0,4.6,0,0.02,,---,0.02,VWS V14.00,2013-06-27 21:40:00,
2013-06-27 17:41:00,61.6,0.0,29.78,NE,49,0.0,4.6,0,0.02,,---,0.02,VWS V14.00,2013-06-27 21:41:00,
2013-06-27 17:42:00,61.5,0.0,29.78,NE,49,0.0,4.6,0,0.02,,---,0.02,VWS V14.00,2013-06-27 21:42:00,
2013-06-27 17:43:00,61.5,0.0,29.78,NE,49,0.0,4.6,0,0.02,,---,0.02,VWS V14.00,2013-06-27 21:43:00,
2013-06-27 17:44:00,61.5,0.0,29.78,NE,49,0.0,4.6,0,0.02,,---,0.02,VWS V14.00,2013-06-27 21:44:00,
2013-06-27 17:45:00,61.4,0.0,29.78,NE,49,0.0,0.0,0,0.03,,---,0.03,VWS V14.00,2013-06-27 21:45:00,
2013-06-27 17:46:00,61.4,0.0,29.78,NE,49,0.0,0.0,0,0.04,,---,0.04,VWS V14.00,2013-06-27 21:46:00,
2013-06-27 17:47:00,61.5,0.0,29.78,NE,49,0.0,0.0,0,0.05,,---,0.05,VWS V14.00,2013-06-27 21:47:00,
2013-06-27 17:48:00,61.5,0.0,29.78,NE,49,0.0,0.0,0,0.05,,---,0.05,VWS V14.00,2013-06-27 21:48:00,
2013-06-27 17:49:00,61.5,0.0,29.78,NE,49,0.0,0.0,0,0.05,,---,0.05,VWS V14.00,2013-06-27 21:49:00,
2013-06-27 17:50:00,61.5,0.0,29.78,NE,49,0.0,0.0,0,0.05,,---,0.05,VWS V14.00,2013-06-27 21:50:00,
2013-06-27 17:51:00,61.6,0.0,29.78,NE,49,0.0,0.0,0,0.05,,---,0.05,VWS V14.00,2013-06-27 21:51:00,
2013-06-27 17:52:00,61.5,0.0,29.78,NE,49,0.0,0.0,0,0.06,,---,0.06,VWS V14.00,2013-06-27 21:52:00,
2013-06-27 17:53:00,61.5,0.0,29.78,NE,49,0.0,0.0,0,0.06,,---,0.06,VWS V14.00,2013-06-27 21:53:00,
2013-06-27 17:54:00,61.5,0.0,29.79,NE,49,0.0,0.0,0,0.06,,---,0.06,VWS V14.00,2013-06-27 21:54:00,
2013-06-27 17:55:00,61.5,0.0,29.79,NE,49,0.0,0.0,0,0.06,,---,0.06,VWS V14.00,2013-06-27 21:55:00,
2013-06-27 17:56:00,61.6,0.0,29.78,NE,49,0.0,0.0,0,0.06,,---,0.06,VWS V14.00,2013-06-27 21:56:00,
2013-06-27 17:57:00,61.5,0.0,29.79,NE,49,0.0,0.0,0,0.06,,---,0.06,VWS V14.00,2013-06-27 21:57:00,
2013-06-27 17:58:00,61.5,0.0,29.79,NE,49,0.0,0.0,0,0.06,,---,0.06,VWS V14.00,2013-06-27 21:58:00,
2013-06-27 17:59:00,61.5,0.0,29.79,NE,49,0.0,0.0,0,0.06,,---,0.06,VWS V14.00,2013-06-27 21:59:00,
2013-06-27 18:00:00,61.3,0.0,29.79,NE,49,0.0,0.0,0,0.06,,---,0.06,VWS V14.00,2013-06-27 22:00:00,
2013-06-27 18:01:00,61.3,0.0,29.79,NE,49,0.0,0.0,0,0.06,,---,0.06,VWS V14.00,2013-06-27 22:01:00,
2013-06-27 18:02:00,61.3,0.0,29.79,NE,49,0.0,0.0,0,0.06,,---,0.06,VWS V14.00,2013-06-27 22:02:00,
2013-06-27 18:03:00,61.3,0.0,29.79,NE,34,0.0,0.0,0,0.06,,---,0.06,VWS V14.00,2013-06-27 22:03:00,
2013-06-27 18:04:00,61.4,0.0,29.79,NE,34,0.0,0.0,0,0.06,,---,0.06,VWS V14.00,2013-06-27 22:04:00,
2013-06-27 18:05:00,61.4,0.0,29.79,NE,34,0.0,2.4,0,0.06,,---,0.06,VWS V14.00,2013-06-27 22:05:00,
2013-06-27 18:06:00,61.4,0.0,29.79,NE,34,0.0,2.4,0,0.06,,---,0.06,VWS V14.00,2013-06-27 22:06:00,
2013-06-27 18:07:00,61.3,0.0,29.79,NE,34,0.0,2.4,0,0.07,,---,0.07,VWS V14.00,2013-06-27 22:07:00,
2013-06-27 18:08:00,61.3,0.0,29.79,NE,34,0.0,2.4,0,0.07,,---,0.07,VWS V14.00,2013-06-27 22:08:00,
2013-06-27 18:09:00,61.3,0.0,29.79,NE,34,0.0,2.4,0,0.07,,---,0.07,VWS V14.00,2013-06-27 22:09:00,
2013-06-27 18:10:00,61.4,0.0,29.79,NE,34,0.0,0.0,0,0.07,,---,0.07,VWS V14.00,2013-06-27 22:10:00,
2013-06-27 18:11:00,61.5,0.0,29.79,NE,34,0.0,0.0,0,0.08,,---,0.08,VWS V14.00,2013-06-27 22:11:00,
2013-06-27 18:12:00,61.4,0.0,29.78,NNE,32,0.0,0.0,0,0.09,,---,0.09,VWS V14.00,2013-06-27 22:12:00,
2013-06-27 18:13:00,61.5,0.0,29.78,NE,38,3.2,0.0,0,0.09,,---,0.09,VWS V14.00,2013-06-27 22:13:00,
2013-06-27 18:14:00,61.5,0.0,29.78,ENE,60,0.0,0.0,0,0.09,,---,0.09,VWS V14.00,2013-06-27 22:14:00,
2013-06-27 18:15:00,61.5,0.0,29.78,ENE,60,0.0,3.4,0,0.09,,---,0.09,VWS V14.00,2013-06-27 22:15:00,
2013-06-27 18:16:00,61.5,0.0,29.78,ENE,60,0.0,3.4,0,0.09,,---,0.09,VWS V14.00,2013-06-27 22:16:00,
2013-06-27 18:17:00,61.4,0.0,29.78,ENE,60,0.0,3.4,0,0.09,,---,0.09,VWS V14.00,2013-06-27 22:17:00,
2013-06-27 18:18:00,61.4,0.0,29.78,ENE,60,0.0,3.4,0,0.09,,---,0.09,VWS V14.00,2013-06-27 22:18:00,
2013-06-27 18:19:00,61.4,0.0,29.78,ENE,60,0.0,3.4,0,0.09,,---,0.09,VWS V14.00,2013-06-27 22:19:00,
2013-06-27 18:20:00,61.3,0.0,29.78,ENE,60,0.0,0.0,0,0.09,,---,0.09,VWS V14.00,2013-06-27 22:20:00,
2013-06-27 18:21:00,61.3,0.0,29.78,ENE,60,0.0,0.0,0,0.09,,---,0.09,VWS V14.00,2013-06-27 22:21:00,
2013-06-27 18:22:00,-999.0,-99.9,-100.00,North,-999,-999.0,-999.0,-999,-99.99,,,-99.99,,2013-06-27 22:22:00,
2013-06-27 18:23:00,61.3,0.0,29.79,ENE,60,0.0,0.0,0,0.10,,---,0.10,VWS V14.00,2013-06-27 22:23:00,
2013-06-27 18:24:00,61.3,0.0,29.78,ENE,60,0.0,0.0,0,0.10,,---,0.10,VWS V14.00,2013-06-27 22:24:00,
2013-06-27 18:25:00,61.4,0.0,29.78,ENE,60,0.0,0.0,0,0.10,,---,0.10,VWS V14.00,2013-06-27 22:25:00,
2013-06-27 18:26:00,61.3,0.0,29.78,ENE,60,0.0,0.0,0,0.10,,---,0.10,VWS V14.00,2013-06-27 22:26:00,
2013-06-27 18:27:00,61.4,0.0,29.78,ENE,60,0.0,0.0,0,0.10,,---,0.10,VWS V14.00,2013-06-27 22:27:00,
2013-06-27 18:28:00,61.4,0.0,29.78,NE,51,4.2,0.0,0,0.10,,---,0.10,VWS V14.00,2013-06-27 22:28:00,
2013-06-27 18:29:00,61.3,0.0,29.78,NNE,27,7.2,0.0,0,0.10,,---,0.10,VWS V14.00,2013-06-27 22:29:00,
2013-06-27 18:30:00,61.3,0.0,29.78,NNE,31,6.2,8.5,0,0.10,,---,0.10,VWS V14.00,2013-06-27 22:30:00,
2013-06-27 18:31:00,61.2,0.0,29.78,NE,34,0.0,8.5,0,0.10,,---,0.10,VWS V14.00,2013-06-27 22:31:00,
2013-06-27 18:32:00,61.1,0.0,29.78,ENE,59,5.2,8.5,0,0.10,,---,0.10,VWS V14.00,2013-06-27 22:32:00,
2013-06-27 18:33:00,61.2,0.0,29.78,NNE,31,4.2,8.5,0,0.10,,---,0.10,VWS V14.00,2013-06-27 22:33:00,
2013-06-27 18:34:00,61.2,0.0,29.78,NE,45,6.3,8.5,0,0.10,,---,0.10,VWS V14.00,2013-06-27 22:34:00,
2013-06-27 18:35:00,61.1,0.0,29.78,NNE,21,5.0,8.6,0,0.10,,---,0.10,VWS V14.00,2013-06-27 22:35:00,
2013-06-27 18:36:00,61.1,0.0,29.78,NE,48,4.9,8.6,0,0.10,,---,0.10,VWS V14.00,2013-06-27 22:36:00,
2013-06-27 18:37:00,61.1,0.0,29.78,NE,56,7.9,8.6,0,0.10,,---,0.10,VWS V14.00,2013-06-27 22:37:00,
2013-06-27 18:38:00,61.1,0.0,29.78,NNE,15,4.5,8.6,0,0.10,,---,0.10,VWS V14.00,2013-06-27 22:38:00,
2013-06-27 18:39:00,61.1,0.0,29.78,East,86,6.8,8.6,0,0.10,,---,0.10,VWS V14.00,2013-06-27 22:39:00,
2013-06-27 18:40:00,61.0,0.0,29.78,NE,42,5.2,8.3,0,0.10,,---,0.10,VWS V14.00,2013-06-27 22:40:00,
2013-06-27 18:41:00,61.0,0.0,29.78,NE,35,7.1,8.3,0,0.10,,---,0.10,VWS V14.00,2013-06-27 22:41:00,
2013-06-27 18:42:00,61.1,0.0,29.78,North,10,5.5,8.3,0,0.10,,---,0.10,VWS V14.00,2013-06-27 22:42:00,
2013-06-27 18:43:00,61.0,0.0,29.78,NNE,27,6.3,8.3,0,0.10,,---,0.10,VWS V14.00,2013-06-27 22:43:00,
2013-06-27 18:44:00,61.0,0.0,29.78,ENE,75,7.4,8.3,0,0.10,,---,0.10,VWS V14.00,2013-06-27 22:44:00,
2013-06-27 18:45:00,61.0,0.0,29.78,North,8,3.5,8.9,0,0.10,,---,0.10,VWS V14.00,2013-06-27 22:45:00,
2013-06-27 18:46:00,61.0,0.0,29.78,ENE,58,4.7,8.9,0,0.10,,---,0.10,VWS V14.00,2013-06-27 22:46:00,
2013-06-27 18:47:00,61.0,0.0,29.78,NNE,24,3.0,8.9,0,0.10,,---,0.10,VWS V14.00,2013-06-27 22:47:00,
2013-06-27 18:48:00,61.0,0.0,29.78,ENE,58,7.0,8.9,0,0.10,,---,0.10,VWS V14.00,2013-06-27 22:48:00,
2013-06-27 18:49:00,61.0,0.0,29.78,NE,52,0.0,8.9,0,0.10,,---,0.10,VWS V14.00,2013-06-27 22:49:00,
2013-06-27 18:50:00,61.1,0.0,29.78,NE,52,0.0,8.1,0,0.10,,---,0.10,VWS V14.00,2013-06-27 22:50:00,
2013-06-27 18:51:00,61.1,0.0,29.78,NE,52,0.0,8.1,0,0.10,,---,0.10,VWS V14.00,2013-06-27 22:51:00,
2013-06-27 18:52:00,61.1,0.0,29.78,NE,52,0.0,8.1,0,0.10,,---,0.10,VWS V14.00,2013-06-27 22:52:00,
2013-06-27 18:53:00,61.2,0.0,29.78,NE,52,0.0,8.1,0,0.10,,---,0.10,VWS V14.00,2013-06-27 22:53:00,
2013-06-27 18:54:00,61.1,0.0,29.78,NE,52,0.0,8.1,0,0.10,,---,0.10,VWS V14.00,2013-06-27 22:54:00,
2013-06-27 18:55:00,61.1,0.0,29.78,NE,52,0.0,8.1,0,0.10,,---,0.10,VWS V14.00,2013-06-27 22:55:00,
2013-06-27 18:56:00,61.1,0.0,29.78,NE,52,0.0,0.0,0,0.10,,---,0.10,VWS V14.00,2013-06-27 22:56:00,
2013-06-27 18:57:00,61.2,0.0,29.78,NE,52,0.0,0.0,0,0.10,,---,0.10,VWS V14.00,2013-06-27 22:57:00,
2013-06-27 18:58:00,61.2,0.0,29.78,ENE,62,0.0,0.0,0,0.10,,---,0.10,VWS V14.00,2013-06-27 22:58:00,
2013-06-27 18:59:00,61.2,0.0,29.79,ENE,62,0.0,0.0,0,0.10,,---,0.10,VWS V14.00,2013-06-27 22:59:00,
2013-06-27 19:00:00,61.2,0.0,29.79,ENE,62,0.0,4.5,0,0.10,,---,0.10,VWS V14.00,2013-06-27 23:00:00,
2013-06-27 19:01:00,61.2,0.0,29.78,ENE,62,0.0,4.5,0,0.10,,---,0.10,VWS V14.00,2013-06-27 23:01:00,
2013-06-27 19:02:00,61.3,0.0,29.78,ENE,62,0.0,4.5,0,0.10,,---,0.10,VWS V14.00,2013-06-27 23:02:00,
2013-06-27 19:03:00,61.3,0.0,29.78,ENE,62,0.0,4.5,0,0.10,,---,0.10,VWS V14.00,2013-06-27 23:03:00,
2013-06-27 19:04:00,61.3,0.0,29.78,ENE,62,0.0,4.5,0,0.10,,---,0.10,VWS V14.00,2013-06-27 23:04:00,
2013-06-27 19:05:00,61.3,0.0,29.78,ENE,62,0.0,3.5,0,0.10,,---,0.10,VWS V14.00,2013-06-27 23:05:00,
2013-06-27 19:06:00,61.2,0.0,29.78,NE,39,7.3,7.3,0,0.10,,---,0.10,VWS V14.00,2013-06-27 23:06:00,
2013-06-27 19:07:00,61.2,0.0,29.78,NE,39,2.4,3.5,0,0.10,,---,0.10,VWS V14.00,2013-06-27 23:07:00,
2013-06-27 19:08:00,61.2,0.0,29.78,NE,49,4.8,4.8,0,0.10,,---,0.10,VWS V14.00,2013-06-27 23:08:00,
2013-06-27 19:09:00,61.2,0.0,29.78,North,10,5.5,5.5,0,0.10,,---,0.10,VWS V14.00,2013-06-27 23:09:00,
2013-06-27 19:10:00,61.2,0.0,29.78,NNE,31,7.1,8.4,0,0.10,,---,0.10,VWS V14.00,2013-06-27 23:10:00,
2013-06-27 19:11:00,61.1,0.0,29.78,NNE,15,6.0,8.4,0,0.10,,---,0.10,VWS V14.00,2013-06-27 23:11:00,
2013-06-27 19:12:00,61.2,0.0,29.78,NNE,32,7.0,8.4,0,0.10,,---,0.10,VWS V14.00,2013-06-27 23:12:00,
2013-06-27 19:13:00,61.2,0.0,29.78,NE,38,6.2,8.4,0,0.10,,---,0.10,VWS V14.00,2013-06-27 23:13:00,
2013-06-27 19:14:00,61.2,0.0,29.78,East,97,0.0,8.4,0,0.10,,---,0.10,VWS V14.00,2013-06-27 23:14:00,
2013-06-27 19:15:00,61.2,0.0,29.78,East,97,0.0,8.5,0,0.10,,---,0.10,VWS V14.00,2013-06-27 23:15:00,
2013-06-27 19:16:00,61.1,0.0,29.78,East,97,0.0,8.5,0,0.10,,---,0.10,VWS V14.00,2013-06-27 23:16:00,
2013-06-27 19:17:00,61.2,0.0,29.78,East,97,0.0,8.5,0,0.10,,---,0.10,VWS V14.00,2013-06-27 23:17:00,
2013-06-27 19:18:00,61.1,0.0,29.78,East,97,0.0,8.5,0,0.10,,---,0.10,VWS V14.00,2013-06-27 23:18:00,
2013-06-27 19:19:00,61.2,0.0,29.78,East,97,0.0,8.5,0,0.10,,---,0.10,VWS V14.00,2013-06-27 23:19:00,
2013-06-27 19:20:00,61.1,0.0,29.78,East,97,0.0,0.0,0,0.10,,---,0.10,VWS V14.00,2013-06-27 23:20:00,
2013-06-27 19:21:00,61.1,0.0,29.78,East,97,0.0,0.0,0,0.10,,---,0.10,VWS V14.00,2013-06-27 23:21:00,
2013-06-27 19:22:00,61.2,0.0,29.78,East,97,0.0,0.0,0,0.10,,---,0.10,VWS V14.00,2013-06-27 23:22:00,
2013-06-27 19:23:00,61.2,0.0,29.78,East,97,0.0,0.0,0,0.10,,---,0.10,VWS V14.00,2013-06-27 23:23:00,
2013-06-27 19:24:00,61.1,0.0,29.78,East,97,0.0,0.0,0,0.10,,---,0.10,VWS V14.00,2013-06-27 23:24:00,
2013-06-27 19:25:00,61.1,0.0,29.78,East,97,0.0,0.0,0,0.10,,---,0.10,VWS V14.00,2013-06-27 23:25:00,
2013-06-27 19:26:00,61.1,0.0,29.78,East,97,0.0,0.0,0,0.10,,---,0.10,VWS V14.00,2013-06-27 23:26:00,
2013-06-27 19:27:00,61.2,0.0,29.78,NE,52,0.0,0.0,0,0.10,,---,0.10,VWS V14.00,2013-06-27 23:27:00,
2013-06-27 19:28:00,61.2,0.0,29.77,NNE,30,0.0,0.0,0,0.10,,---,0.10,VWS V14.00,2013-06-27 23:28:00,
2013-06-27 19:29:00,61.2,0.0,29.77,NNE,22,0.0,0.0,0,0.10,,---,0.10,VWS V14.00,2013-06-27 23:29:00,
2013-06-27 19:30:00,61.2,0.0,29.77,NE,45,8.0,8.0,0,0.10,,---,0.10,VWS V14.00,2013-06-27 23:30:00,
2013-06-27 19:31:00,61.3,0.0,29.77,NE,42,6.9,6.9,0,0.10,,---,0.10,VWS V14.00,2013-06-27 23:31:00,
2013-06-27 19:32:00,61.2,0.0,29.78,North,349,0.0,6.3,0,0.10,,---,0.10,VWS V14.00,2013-06-27 23:32:00,
2013-06-27 19:33:00,61.2,0.0,29.78,North,349,0.0,6.3,0,0.10,,---,0.10,VWS V14.00,2013-06-27 23:33:00,
2013-06-27 19:34:00,61.3,0.0,29.78,North,349,0.0,6.3,0,0.10,,---,0.10,VWS V14.00,2013-06-27 23:34:00,
2013-06-27 19:35:00,61.3,0.0,29.78,North,349,0.0,8.3,0,0.10,,---,0.10,VWS V14.00,2013-06-27 23:35:00,
2013-06-27 19:36:00,61.3,0.0,29.78,North,349,0.0,8.3,0,0.10,,---,0.10,VWS V14.00,2013-06-27 23:36:00,
2013-06-27 19:37:00,61.3,0.0,29.78,North,349,0.0,8.3,0,0.10,,---,0.10,VWS V14.00,2013-06-27 23:37:00,
2013-06-27 19:38:00,61.3,0.0,29.78,North,349,0.0,8.3,0,0.10,,---,0.10,VWS V14.00,2013-06-27 23:38:00,
2013-06-27 19:39:00,61.3,0.0,29.78,North,349,0.0,8.3,0,0.10,,---,0.10,VWS V14.00,2013-06-27 23:39:00,
2013-06-27 19:40:00,61.3,0.0,29.78,North,349,0.0,0.0,0,0.10,,---,0.10,VWS V14.00,2013-06-27 23:40:00,
2013-06-27 19:41:00,61.4,0.0,29.78,North,349,0.0,0.0,0,0.10,,---,0.10,VWS V14.00,2013-06-27 23:41:00,
2013-06-27 19:42:00,61.4,0.0,29.78,North,349,0.0,0.0,0,0.10,,---,0.10,VWS V14.00,2013-06-27 23:42:00,
2013-06-27 19:43:00,61.5,0.0,29.78,North,349,0.0,0.0,0,0.10,,---,0.10,VWS V14.00,2013-06-27 23:43:00,
2013-06-27 19:44:00,61.5,0.0,29.78,North,349,0.0,0.0,0,0.10,,---,0.10,VWS V14.00,2013-06-27 23:44:00,
2013-06-27 19:45:00,61.5,0.0,29.78,North,349,0.0,4.7,0,0.10,,---,0.10,VWS V14.00,2013-06-27 23:45:00,
2013-06-27 19:46:00,61.5,0.0,29.78,North,349,0.0,4.7,0,0.10,,---,0.10,VWS V14.00,2013-06-27 23:46:00,
2013-06-27 19:47:00,61.4,0.0,29.78,North,349,0.0,4.7,0,0.10,,---,0.10,VWS V14.00,2013-06-27 23:47:00,
2013-06-27 19:48:00,61.5,0.0,29.78,NNE,21,3.4,4.7,0,0.10,,---,0.10,VWS V14.00,2013-06-27 23:48:00,
2013-06-27 19:49:00,61.5,0.0,29.78,NNE,27,0.0,4.7,0,0.10,,---,0.10,VWS V14.00,2013-06-27 23:49:00,
2013-06-27 19:50:00,61.3,0.0,29.78,NNE,27,0.0,5.0,0,0.10,,---,0.10,VWS V14.00,2013-06-27 23:50:00,
2013-06-27 19:51:00,61.3,0.0,29.78,NE,35,6.6,6.6,0,0.10,,---,0.10,VWS V14.00,2013-06-27 23:51:00,
2013-06-27 19:52:00,61.3,0.0,29.78,North,8,3.4,5.0,0,0.10,,---,0.10,VWS V14.00,2013-06-27 23:52:00,
2013-06-27 19:53:00,61.3,0.0,29.78,NE,35,5.7,5.7,0,0.10,,---,0.10,VWS V14.00,2013-06-27 23:53:00,
2013-06-27 19:54:00,61.3,0.0,29.78,NE,44,0.0,5.0,0,0.10,,---,0.10,VWS V14.00,2013-06-27 23:54:00,
2013-06-27 19:55:00,61.2,0.0,29.78,NE,44,0.0,7.0,0,0.10,,---,0.10,VWS V14.00,2013-06-27 23:55:00,
2013-06-27 19:56:00,61.2,0.0,29.78,NE,44,3.5,7.0,0,0.10,,---,0.10,VWS V14.00,2013-06-27 23:56:00,
2013-06-27 19:57:00,61.2,0.0,29.78,NNE,27,5.2,7.0,0,0.10,,---,0.10,VWS V14.00,2013-06-27 23:57:00,
2013-06-27 19:58:00,61.1,0.0,29.78,NNE,27,0.0,7.0,0,0.10,,---,0.10,VWS V14.00,2013-06-27 23:58:00,
2013-06-27 19:59:00,61.1,0.0,29.78,North,8,0.0,7.0,0,0.10,,---,0.10,VWS V14.00,2013-06-27 23:59:00,
2013-06-27 20:00:00,61.1,0.0,29.78,NE,39,3.1,6.2,0,0.10,,---,0.10,VWS V14.00,2013-06-28 00:00:00,
2013-06-27 20:01:00,61.0,0.0,29.78,NE,35,0.0,6.2,0,0.10,,---,0.10,VWS V14.00,2013-06-28 00:01:00,
2013-06-27 20:02:00,61.0,0.0,29.78,North,359,3.2,6.2,0,0.10,,---,0.10,VWS V14.00,2013-06-28 00:02:00,
2013-06-27 20:03:00,61.0,0.0,29.78,NE,37,0.0,6.2,0,0.10,,---,0.10,VWS V14.00,2013-06-28 00:03:00,
2013-06-27 20:04:00,61.0,0.0,29.78,NE,41,4.8,6.2,0,0.10,,---,0.10,VWS V14.00,2013-06-28 00:04:00,
2013-06-27 20:05:00,60.9,0.0,29.78,NE,38,4.5,8.1,0,0.10,,---,0.10,VWS V14.00,2013-06-28 00:05:00,
2013-06-27 20:06:00,60.8,0.0,29.78,NE,42,3.1,8.1,0,0.10,,---,0.10,VWS V14.00,2013-06-28 00:06:00,
2013-06-27 20:07:00,60.8,0.0,29.78,NW,321,4.2,8.1,0,0.10,,---,0.10,VWS V14.00,2013-06-28 00:07:00,
2013-06-27 20:08:00,60.7,0.0,29.78,ENE,60,7.0,8.1,0,0.10,,---,0.10,VWS V14.00,2013-06-28 00:08:00,
2013-06-27 20:09:00,60.7,0.0,29.78,NE,46,0.0,8.1,0,0.10,,---,0.10,VWS V14.00,2013-06-28 00:09:00,
2013-06-27 20:10:00,60.7,0.0,29.78,NE,44,5.6,9.4,0,0.10,,---,0.10,VWS V14.00,2013-06-28 00:10:00,
2013-06-27 20:11:00,60.6,0.0,29.78,NNE,13,1.6,9.4,0,0.10,,---,0.10,VWS V14.00,2013-06-28 00:11:00,
2013-06-27 20:12:00,60.6,0.0,29.78,NNE,32,6.3,9.4,0,0.10,,---,0.10,VWS V14.00,2013-06-28 00:12:00,
2013-06-27 20:13:00,60.6,0.0,29.78,NE,51,5.8,9.4,0,0.10,,---,0.10,VWS V14.00,2013-06-28 00:13:00,
2013-06-27 20:14:00,60.5,0.0,29.78,NE,39,2.1,9.4,0,0.10,,---,0.10,VWS V14.00,2013-06-28 00:14:00,
2013-06-27 20:15:00,60.5,0.0,29.78,ENE,66,7.5,12.1,0,0.10,,---,0.10,VWS V14.00,2013-06-28 00:15:00,
2013-06-27 20:16:00,60.6,0.0,29.78,North,359,0.0,12.1,0,0.10,,---,0.10,VWS V14.00,2013-06-28 00:16:00,
2013-06-27 20:17:00,60.6,0.0,29.78,NNE,15,5.8,12.1,0,0.10,,---,0.10,VWS V14.00,2013-06-28 00:17:00,
2013-06-27 20:18:00,60.6,0.0,29.78,NE,35,5.4,12.1,0,0.10,,---,0.10,VWS V14.00,2013-06-28 00:18:00,
2013-06-27 20:19:00,60.5,0.0,29.78,North,359,0.0,12.1,0,0.10,,---,0.10,VWS V14.00,2013-06-28 00:19:00,
2013-06-27 20:20:00,60.5,0.0,29.78,ENE,63,3.5,10.8,0,0.10,,---,0.10,VWS V14.00,2013-06-28 00:20:00,
2013-06-27 20:21:00,60.5,0.0,29.78,NE,56,4.5,10.8,0,0.10,,---,0.10,VWS V14.00,2013-06-28 00:21:00,
2013-06-27 20:22:00,60.5,0.0,29.78,North,359,2.6,10.8,0,0.10,,---,0.10,VWS V14.00,2013-06-28 00:22:00,
2013-06-27 20:23:00,60.5,0.0,29.78,NE,39,3.2,10.8,0,0.10,,---,0.10,VWS V14.00,2013-06-28 00:23:00,
2013-06-27 20:24:00,60.5,0.0,29.78,NNE,31,2.7,10.8,0,0.10,,---,0.10,VWS V14.00,2013-06-28 00:24:00,
2013-06-27 20:25:00,60.5,0.0,29.78,North,8,3.1,9.9,0,0.10,,---,0.10,VWS V14.00,2013-06-28 00:25:00,
2013-06-27 20:26:00,60.5,0.0,29.78,North,359,6.3,9.9,0,0.10,,---,0.10,VWS V14.00,2013-06-28 00:26:00,
2013-06-27 20:27:00,60.5,0.0,29.78,NNE,18,6.1,9.9,0,0.10,,---,0.10,VWS V14.00,2013-06-28 00:27:00,
2013-06-27 20:28:00,60.5,0.0,29.78,NE,46,5.0,9.9,0,0.10,,---,0.10,VWS V14.00,2013-06-28 00:28:00,
2013-06-27 20:29:00,60.5,0.0,29.78,NE,41,4.8,9.9,0,0.10,,---,0.10,VWS V14.00,2013-06-28 00:29:00,
2013-06-27 20:30:00,60.5,0.0,29.78,NNE,30,0.0,9.9,0,0.10,,---,0.10,VWS V14.00,2013-06-28 00:30:00,
2013-06-27 20:31:00,60.5,0.0,29.78,West,270,4.5,9.9,0,0.10,,---,0.10,VWS V14.00,2013-06-28 00:31:00,
2013-06-27 20:32:00,60.5,0.0,29.78,NE,56,7.8,9.9,0,0.10,,---,0.10,VWS V14.00,2013-06-28 00:32:00,
2013-06-27 20:33:00,60.5,0.0,29.78,NNE,21,0.0,9.9,0,0.10,,---,0.10,VWS V14.00,2013-06-28 00:33:00,
2013-06-27 20:34:00,60.6,0.0,29.78,North,359,3.5,9.9,0,0.10,,---,0.10,VWS V14.00,2013-06-28 00:34:00,
2013-06-27 20:35:00,60.6,0.0,29.78,North,359,2.0,11.3,0,0.10,,---,0.10,VWS V14.00,2013-06-28 00:35:00,
2013-06-27 20:36:00,60.5,0.0,29.79,NE,35,0.0,11.3,0,0.10,,---,0.10,VWS V14.00,2013-06-28 00:36:00,
2013-06-27 20:37:00,60.6,0.0,29.78,NE,35,0.0,11.3,0,0.10,,---,0.10,VWS V14.00,2013-06-28 00:37:00,
2013-06-27 20:38:00,60.6,0.0,29.79,NE,55,3.4,11.3,0,0.10,,---,0.10,VWS V14.00,2013-06-28 00:38:00,
2013-06-27 20:39:00,60.5,0.0,29.78,North,7,5.7,11.3,0,0.10,,---,0.10,VWS V14.00,2013-06-28 00:39:00,
2013-06-27 20:40:00,60.5,0.0,29.78,North,3,2.1,10.2,0,0.10,,---,0.10,VWS V14.00,2013-06-28 00:40:00,
2013-06-27 20:41:00,60.6,0.0,29.79,North,359,5.9,10.2,0,0.10,,---,0.10,VWS V14.00,2013-06-28 00:41:00,
2013-06-27 20:42:00,60.5,0.0,29.79,NNE,14,3.3,10.2,0,0.10,,---,0.10,VWS V14.00,2013-06-28 00:42:00,
2013-06-27 20:43:00,60.6,0.0,29.78,NE,52,5.1,10.2,0,0.10,,---,0.10,VWS V14.00,2013-06-28 00:43:00,
2013-06-27 20:44:00,60.5,0.0,29.78,North,7,8.5,10.2,0,0.10,,---,0.10,VWS V14.00,2013-06-28 00:44:00,
2013-06-27 20:45:00,60.5,0.0,29.79,NE,42,8.7,10.3,0,0.10,,---,0.10,VWS V14.00,2013-06-28 00:45:00,
2013-06-27 20:46:00,60.6,0.0,29.78,NNE,17,5.2,10.3,0,0.10,,---,0.10,VWS V14.00,2013-06-28 00:46:00,
2013-06-27 20:47:00,60.6,0.0,29.79,NNE,20,0.0,10.3,0,0.10,,---,0.10,VWS V14.00,2013-06-28 00:47:00,
2013-06-27 20:48:00,60.5,0.0,29.79,NNE,27,11.1,11.1,0,0.10,,---,0.10,VWS V14.00,2013-06-28 00:48:00,
2013-06-27 20:49:00,60.5,0.0,29.79,North,11,5.3,10.3,0,0.10,,---,0.10,VWS V14.00,2013-06-28 00:49:00,
2013-06-27 20:50:00,60.5,0.0,29.79,North,359,3.4,12.1,0,0.10,,---,0.10,VWS V14.00,2013-06-28 00:50:00,
2013-06-27 20:51:00,60.6,0.0,29.79,NE,48,0.0,12.1,0,0.10,,---,0.10,VWS V14.00,2013-06-28 00:51:00,
2013-06-27 20:52:00,60.5,0.0,29.79,North,6,0.0,12.1,0,0.10,,---,0.10,VWS V14.00,2013-06-28 00:52:00,
2013-06-27 20:53:00,60.5,0.0,29.79,NNE,14,1.7,12.1,0,0.10,,---,0.10,VWS V14.00,2013-06-28 00:53:00,
2013-06-27 20:54:00,60.5,0.0,29.79,NNE,24,0.0,12.1,0,0.10,,---,0.10,VWS V14.00,2013-06-28 00:54:00,
2013-06-27 20:55:00,60.5,0.0,29.79,NE,38,0.0,9.8,0,0.10,,---,0.10,VWS V14.00,2013-06-28 00:55:00,
2013-06-27 20:56:00,60.5,0.0,29.79,NNE,32,0.0,9.8,0,0.10,,---,0.10,VWS V14.00,2013-06-28 00:56:00,
2013-06-27 20:57:00,60.5,0.0,29.79,North,356,2.9,9.8,0,0.10,,---,0.10,VWS V14.00,2013-06-28 00:57:00,
2013-06-27 20:58:00,60.5,0.0,29.79,NNE,24,0.0,9.8,0,0.10,,---,0.10,VWS V14.00,2013-06-28 00:58:00,
2013-06-27 20:59:00,60.5,0.0,29.79,North,359,5.0,9.8,0,0.10,,---,0.10,VWS V14.00,2013-06-28 00:59:00,
2013-06-27 21:00:00,60.5,0.0,29.79,NNE,22,0.0,11.7,0,0.10,,---,0.10,VWS V14.00,2013-06-28 01:00:00,
2013-06-27 21:01:00,60.5,0.0,29.79,NE,35,4.7,11.7,0,0.10,,---,0.10,VWS V14.00,2013-06-28 01:01:00,
2013-06-27 21:02:00,60.5,0.0,29.79,NE,35,5.0,11.7,0,0.10,,---,0.10,VWS V14.00,2013-06-28 01:02:00,
2013-06-27 21:03:00,60.4,0.0,29.79,NNE,32,4.3,11.7,0,0.10,,---,0.10,VWS V14.00,2013-06-28 01:03:00,
2013-06-27 21:04:00,60.4,0.0,29.79,NE,52,9.5,11.7,0,0.10,,---,0.10,VWS V14.00,2013-06-28 01:04:00,
2013-06-27 21:05:00,60.5,0.0,29.78,NE,44,6.4,10.3,0,0.10,,---,0.10,VWS V14.00,2013-06-28 01:05:00,
2013-06-27 21:06:00,60.5,0.0,29.78,NE,52,4.3,10.3,0,0.10,,---,0.10,VWS V14.00,2013-06-28 01:06:00,
2013-06-27 21:07:00,60.4,0.0,29.78,NE,37,1.7,10.3,0,0.10,,---,0.10,VWS V14.00,2013-06-28 01:07:00,
2013-06-27 21:08:00,60.5,0.0,29.78,NNE,31,9.3,10.3,0,0.10,,---,0.10,VWS V14.00,2013-06-28 01:08:00,
2013-06-27 21:09:00,60.5,0.0,29.78,NE,53,0.0,10.3,0,0.10,,---,0.10,VWS V14.00,2013-06-28 01:09:00,
2013-06-27 21:10:00,60.5,0.0,29.78,NE,35,9.6,13.3,0,0.10,,---,0.10,VWS V14.00,2013-06-28 01:10:00,
2013-06-27 21:11:00,60.5,0.0,29.78,North,359,0.0,13.3,0,0.10,,---,0.10,VWS V14.00,2013-06-28 01:11:00,
2013-06-27 21:12:00,60.5,0.0,29.78,North,3,4.7,13.3,0,0.10,,---,0.10,VWS V14.00,2013-06-28 01:12:00,
2013-06-27 21:13:00,60.5,0.0,29.78,NNW,339,7.5,13.3,0,0.10,,---,0.10,VWS V14.00,2013-06-28 01:13:00,
2013-06-27 21:14:00,60.5,0.0,29.78,NE,37,3.5,13.3,0,0.10,,---,0.10,VWS V14.00,2013-06-28 01:14:00,
2013-06-27 21:15:00,60.5,0.0,29.78,NNE,20,8.8,10.4,0,0.10,,---,0.10,VWS V14.00,2013-06-28 01:15:00,
2013-06-27 21:16:00,60.4,0.0,29.78,NE,35,2.9,10.4,0,0.10,,---,0.10,VWS V14.00,2013-06-28 01:16:00,
2013-06-27 21:17:00,60.4,0.0,29.78,North,7,0.0,10.4,0,0.10,,---,0.10,VWS V14.00,2013-06-28 01:17:00,
2013-06-27 21:18:00,60.4,0.0,29.79,NNW,335,4.5,10.4,0,0.10,,---,0.10,VWS V14.00,2013-06-28 01:18:00,
2013-06-27 21:19:00,60.4,0.0,29.79,NE,46,3.4,10.4,0,0.10,,---,0.10,VWS V14.00,2013-06-28 01:19:00,
2013-06-27 21:20:00,60.4,0.0,29.78,NE,44,6.8,11.6,0,0.10,,---,0.10,VWS V14.00,2013-06-28 01:20:00,
2013-06-27 21:21:00,60.5,0.0,29.78,North,6,0.0,11.6,0,0.10,,---,0.10,VWS V14.00,2013-06-28 01:21:00,
2013-06-27 21:22:00,60.5,0.0,29.79,North,359,0.0,11.6,0,0.10,,---,0.10,VWS V14.00,2013-06-28 01:22:00,
2013-06-27 21:23:00,60.4,0.0,29.79,NNE,21,0.0,11.6,0,0.10,,---,0.10,VWS V14.00,2013-06-28 01:23:00,
2013-06-27 21:24:00,60.4,0.0,29.79,NNE,25,0.0,11.6,0,0.10,,---,0.10,VWS V14.00,2013-06-28 01:24:00,
2013-06-27 21:25:00,60.4,0.0,29.79,North,11,2.1,11.7,0,0.10,,---,0.10,VWS V14.00,2013-06-28 01:25:00,
2013-06-27 21:26:00,60.4,0.0,29.79,North,359,4.3,11.7,0,0.10,,---,0.10,VWS V14.00,2013-06-28 01:26:00,
2013-06-27 21:27:00,60.3,0.0,29.78,NE,45,8.6,11.7,0,0.10,,---,0.10,VWS V14.00,2013-06-28 01:27:00,
2013-06-27 21:28:00,60.3,0.0,29.79,NE,34,6.4,11.7,0,0.10,,---,0.10,VWS V14.00,2013-06-28 01:28:00,
2013-06-27 21:29:00,60.4,0.0,29.79,WNW,298,0.0,11.7,0,0.10,,---,0.10,VWS V14.00,2013-06-28 01:29:00,
2013-06-27 21:30:00,60.3,0.0,29.79,WNW,300,0.0,12.8,0,0.10,,---,0.10,VWS V14.00,2013-06-28 01:30:00,
2013-06-27 21:31:00,60.4,0.0,29.79,North,359,2.3,12.8,0,0.10,,---,0.10,VWS V14.00,2013-06-28 01:31:00,
2013-06-27 21:32:00,60.3,0.0,29.78,NE,42,5.9,12.8,0,0.10,,---,0.10,VWS V14.00,2013-06-28 01:32:00,
2013-06-27 21:33:00,60.3,0.0,29.78,North,359,5.3,12.8,0,0.10,,---,0.10,VWS V14.00,2013-06-28 01:33:00,
2013-06-27 21:34:00,60.3,0.0,29.78,North,359,0.0,12.8,0,0.10,,---,0.10,VWS V14.00,2013-06-28 01:34:00,
2013-06-27 21:35:00,60.3,0.0,29.78,North,11,0.0,11.8,0,0.10,,---,0.10,VWS V14.00,2013-06-28 01:35:00,
2013-06-27 21:36:00,60.2,0.0,29.78,NNE,21,0.0,11.8,0,0.10,,---,0.10,VWS V14.00,2013-06-28 01:36:00,
2013-06-27 21:37:00,60.3,0.0,29.78,ENE,66,4.6,11.8,0,0.10,,---,0.10,VWS V14.00,2013-06-28 01:37:00,
2013-06-27 21:38:00,60.2,0.0,29.78,ENE,66,0.0,11.8,0,0.10,,---,0.10,VWS V14.00,2013-06-28 01:38:00,
2013-06-27 21:39:00,60.2,0.0,29.78,NNW,343,0.0,11.8,0,0.10,,---,0.10,VWS V14.00,2013-06-28 01:39:00,
2013-06-27 21:40:00,60.2,0.0,29.78,NE,49,3.0,11.1,0,0.10,,---,0.10,VWS V14.00,2013-06-28 01:40:00,
2013-06-27 21:41:00,60.1,0.0,29.78,NNE,17,4.4,11.1,0,0.10,,---,0.10,VWS V14.00,2013-06-28 01:41:00,
2013-06-27 21:42:00,60.1,0.0,29.78,North,3,0.0,11.1,0,0.10,,---,0.10,VWS V14.00,2013-06-28 01:42:00,
2013-06-27 21:43:00,60.1,0.0,29.78,North,359,5.2,11.1,0,0.10,,---,0.10,VWS V14.00,2013-06-28 01:43:00,
2013-06-27 21:44:00,60.0,0.0,29.78,NNE,15,1.3,11.1,0,0.10,,---,0.10,VWS V14.00,2013-06-28 01:44:00,
2013-06-27 21:45:00,60.0,0.0,29.78,NNE,31,11.6,11.6,0,0.10,,---,0.10,VWS V14.00,2013-06-28 01:45:00,
2013-06-27 21:46:00,59.9,0.0,29.78,North,10,3.5,11.2,0,0.10,,---,0.10,VWS V14.00,2013-06-28 01:46:00,
2013-06-27 21:47:00,59.8,0.0,29.78,NE,34,10.6,11.2,0,0.10,,---,0.10,VWS V14.00,2013-06-28 01:47:00,
2013-06-27 21:48:00,59.8,0.0,29.78,NE,34,5.9,11.2,0,0.10,,---,0.10,VWS V14.00,2013-06-28 01:48:00,
2013-06-27 21:49:00,59.8,0.0,29.78,NE,42,0.0,11.2,0,0.10,,---,0.10,VWS V14.00,2013-06-28 01:49:00,
2013-06-27 21:50:00,59.8,0.0,29.78,NNE,21,13.5,13.5,0,0.10,,---,0.10,VWS V14.00,2013-06-28 01:50:00,
2013-06-27 21:51:00,59.8,0.0,29.78,NNE,27,5.6,13.3,0,0.10,,---,0.10,VWS V14.00,2013-06-28 01:51:00,
2013-06-27 21:52:00,59.7,0.0,29.78,NNE,25,5.0,13.3,0,0.10,,---,0.10,VWS V14.00,2013-06-28 01:52:00,
2013-06-27 21:53:00,59.7,0.0,29.78,NE,38,9.6,13.3,0,0.10,,---,0.10,VWS V14.00,2013-06-28 01:53:00,
2013-06-27 21:54:00,59.5,0.0,29.78,NNE,21,7.6,13.3,0,0.10,,---,0.10,VWS V14.00,2013-06-28 01:54:00,
2013-06-27 21:55:00,59.5,0.0,29.78,NNE,27,7.7,14.7,0,0.10,,---,0.10,VWS V14.00,2013-06-28 01:55:00,
2013-06-27 21:56:00,59.5,0.0,29.78,ENE,66,4.4,14.7,0,0.10,,---,0.10,VWS V14.00,2013-06-28 01:56:00,
2013-06-27 21:57:00,59.5,0.0,29.78,NE,37,12.1,14.7,0,0.10,,---,0.10,VWS V14.00,2013-06-28 01:57:00,
2013-06-27 21:58:00,59.4,0.0,29.78,NE,35,15.0,15.0,0,0.10,,---,0.10,VWS V14.00,2013-06-28 01:58:00,
2013-06-27 21:59:00,59.5,0.0,29.78,North,3,5.0,14.7,0,0.10,,---,0.10,VWS V14.00,2013-06-28 01:59:00,
2013-06-27 22:00:00,59.5,0.0,29.78,North,3,4.9,15.0,0,0.10,,---,0.10,VWS V14.00,2013-06-28 02:00:00,
2013-06-27 22:01:00,59.5,0.0,29.78,NNE,21,7.1,15.0,0,0.10,,---,0.10,VWS V14.00,2013-06-28 02:01:00,
2013-06-27 22:02:00,59.4,0.0,29.78,NE,51,7.2,15.0,0,0.10,,---,0.10,VWS V14.00,2013-06-28 02:02:00,
2013-06-27 22:03:00,59.4,0.0,29.78,NNE,14,3.2,15.0,0,0.10,,---,0.10,VWS V14.00,2013-06-28 02:03:00,
2013-06-27 22:04:00,59.4,0.0,29.77,NNE,15,13.1,15.0,0,0.10,,---,0.10,VWS V14.00,2013-06-28 02:04:00,
2013-06-27 22:05:00,59.3,0.0,29.77,NE,53,7.1,17.0,0,0.10,,---,0.10,VWS V14.00,2013-06-28 02:05:00,
2013-06-27 22:06:00,59.3,0.0,29.77,NE,34,8.4,17.0,0,0.10,,---,0.10,VWS V14.00,2013-06-28 02:06:00,
2013-06-27 22:07:00,59.3,0.0,29.77,North,359,2.2,17.0,0,0.10,,---,0.10,VWS V14.00,2013-06-28 02:07:00,
2013-06-27 22:08:00,59.2,0.0,29.77,NE,55,4.9,17.0,0,0.10,,---,0.10,VWS V14.00,2013-06-28 02:08:00,
2013-06-27 22:09:00,59.1,0.0,29.77,NE,51,11.2,17.0,0,0.10,,---,0.10,VWS V14.00,2013-06-28 02:09:00,
2013-06-27 22:10:00,59.1,0.0,29.77,East,87,7.2,17.0,0,0.10,,---,0.10,VWS V14.00,2013-06-28 02:10:00,
2013-06-27 22:11:00,59.1,0.0,29.78,NE,37,10.5,17.0,0,0.10,,---,0.10,VWS V14.00,2013-06-28 02:11:00,
2013-06-27 22:12:00,59.1,0.0,29.78,North,349,5.5,17.0,0,0.10,,---,0.10,VWS V14.00,2013-06-28 02:12:00,
2013-06-27 22:13:00,59.1,0.0,29.77,North,359,8.4,17.0,0,0.10,,---,0.10,VWS V14.00,2013-06-28 02:13:00,
2013-06-27 22:14:00,59.0,0.0,29.77,ENE,60,8.3,17.0,0,0.10,,---,0.10,VWS V14.00,2013-06-28 02:14:00,
2013-06-27 22:15:00,59.0,0.0,29.77,NNE,14,5.9,15.8,0,0.10,,---,0.10,VWS V14.00,2013-06-28 02:15:00,
2013-06-27 22:16:00,59.0,0.0,29.77,NNE,30,4.9,15.8,0,0.10,,---,0.10,VWS V14.00,2013-06-28 02:16:00,
2013-06-27 22:17:00,59.0,0.0,29.77,NNE,28,7.6,15.8,0,0.11,,---,0.11,VWS V14.00,2013-06-28 02:17:00,
2013-06-27 22:18:00,59.0,0.0,29.77,NNE,14,8.5,15.8,0,0.11,,---,0.11,VWS V14.00,2013-06-28 02:18:00,
2013-06-27 22:19:00,59.0,0.0,29.77,NE,35,8.8,15.8,0,0.11,,---,0.11,VWS V14.00,2013-06-28 02:19:00,
2013-06-27 22:20:00,58.9,0.0,29.77,NE,44,0.0,15.5,0,0.11,,---,0.11,VWS V14.00,2013-06-28 02:20:00,
2013-06-27 22:21:00,58.9,0.0,29.78,NNE,22,7.0,15.5,0,0.11,,---,0.11,VWS V14.00,2013-06-28 02:21:00,
2013-06-27 22:22:00,58.9,0.0,29.77,NE,51,8.5,15.5,0,0.11,,---,0.11,VWS V14.00,2013-06-28 02:22:00,
2013-06-27 22:23:00,58.9,0.0,29.78,NNE,31,12.6,15.5,0,0.11,,---,0.11,VWS V14.00,2013-06-28 02:23:00,
2013-06-27 22:24:00,58.8,0.0,29.78,NE,45,9.8,15.5,0,0.11,,---,0.11,VWS V14.00,2013-06-28 02:24:00,
2013-06-27 22:25:00,58.8,0.0,29.78,NE,39,8.0,17.1,0,0.11,,---,0.11,VWS V14.00,2013-06-28 02:25:00,
2013-06-27 22:26:00,58.8,0.0,29.78,NNE,32,8.0,17.1,0,0.11,,---,0.11,VWS V14.00,2013-06-28 02:26:00,
2013-06-27 22:27:00,58.8,0.0,29.77,NE,41,13.1,17.1,0,0.11,,---,0.11,VWS V14.00,2013-06-28 02:27:00,
2013-06-27 22:28:00,58.8,0.0,29.77,North,10,7.3,17.1,0,0.11,,---,0.11,VWS V14.00,2013-06-28 02:28:00,
2013-06-27 22:29:00,58.7,0.0,29.78,NNW,339,6.5,17.1,0,0.11,,---,0.11,VWS V14.00,2013-06-28 02:29:00,
2013-06-27 22:30:00,58.7,0.0,29.77,NNE,27,12.8,17.9,0,0.11,,---,0.11,VWS V14.00,2013-06-28 02:30:00,
2013-06-27 22:31:00,58.7,0.0,29.77,NNE,24,6.9,17.9,0,0.11,,---,0.11,VWS V14.00,2013-06-28 02:31:00,
2013-06-27 22:32:00,58.7,0.0,29.77,NNE,32,10.6,17.9,0,0.11,,---,0.11,VWS V14.00,2013-06-28 02:32:00,
2013-06-27 22:33:00,58.7,0.0,29.77,NE,46,0.0,17.9,0,0.11,,---,0.11,VWS V14.00,2013-06-28 02:33:00,
2013-06-27 22:34:00,58.7,0.0,29.77,NNE,32,10.7,17.9,0,0.11,,---,0.11,VWS V14.00,2013-06-28 02:34:00,
2013-06-27 22:35:00,58.7,0.0,29.77,NNE,28,11.5,16.5,0,0.11,,---,0.11,VWS V14.00,2013-06-28 02:35:00,
2013-06-27 22:36:00,58.6,0.0,29.77,NNE,31,12.5,16.5,0,0.11,,---,0.11,VWS V14.00,2013-06-28 02:36:00,
2013-06-27 22:37:00,58.6,0.0,29.77,ENE,72,8.4,16.5,0,0.11,,---,0.11,VWS V14.00,2013-06-28 02:37:00,
2013-06-27 22:38:00,58.6,0.0,29.77,North,0,8.1,16.5,0,0.11,,---,0.11,VWS V14.00,2013-06-28 02:38:00,
2013-06-27 22:39:00,58.5,0.0,29.77,NNE,17,9.4,16.5,0,0.11,,---,0.11,VWS V14.00,2013-06-28 02:39:00,
2013-06-27 22:40:00,58.4,0.0,29.77,North,359,8.3,17.0,0,0.11,,---,0.11,VWS V14.00,2013-06-28 02:40:00,
2013-06-27 22:41:00,58.5,0.0,29.77,NNE,15,11.5,17.0,0,0.11,,---,0.11,VWS V14.00,2013-06-28 02:41:00,
2013-06-27 22:42:00,58.5,0.0,29.77,NNE,28,10.3,17.0,0,0.11,,---,0.11,VWS V14.00,2013-06-28 02:42:00,
2013-06-27 22:43:00,58.6,0.0,29.78,NNE,18,11.1,17.0,0,0.11,,---,0.11,VWS V14.00,2013-06-28 02:43:00,
2013-06-27 22:44:00,58.5,0.0,29.77,NNE,31,11.7,17.0,0,0.11,,---,0.11,VWS V14.00,2013-06-28 02:44:00,
2013-06-27 22:45:00,58.4,0.0,29.77,North,359,9.9,15.5,0,0.11,,---,0.11,VWS V14.00,2013-06-28 02:45:00,
2013-06-27 22:46:00,58.4,0.0,29.77,NNE,13,9.3,15.5,0,0.11,,---,0.11,VWS V14.00,2013-06-28 02:46:00,
2013-06-27 22:47:00,58.4,0.0,29.77,NNE,14,8.7,15.5,0,0.11,,---,0.11,VWS V14.00,2013-06-28 02:47:00,
2013-06-27 22:48:00,58.3,0.0,29.77,NNE,32,7.7,15.5,0,0.11,,---,0.11,VWS V14.00,2013-06-28 02:48:00,
2013-06-27 22:49:00,58.2,0.0,29.77,ENE,77,7.0,15.5,0,0.11,,---,0.11,VWS V14.00,2013-06-28 02:49:00,
2013-06-27 22:50:00,58.2,0.0,29.77,North,353,11.2,16.2,0,0.11,,---,0.11,VWS V14.00,2013-06-28 02:50:00,
2013-06-27 22:51:00,58.2,0.0,29.77,NNE,31,9.6,16.2,0,0.11,,---,0.11,VWS V14.00,2013-06-28 02:51:00,
2013-06-27 22:52:00,58.2,0.0,29.77,North,8,9.6,16.2,0,0.11,,---,0.11,VWS V14.00,2013-06-28 02:52:00,
2013-06-27 22:53:00,58.2,0.0,29.77,North,359,8.3,16.2,0,0.11,,---,0.11,VWS V14.00,2013-06-28 02:53:00,
2013-06-27 22:54:00,58.3,0.0,29.77,North,359,7.2,16.2,0,0.11,,---,0.11,VWS V14.00,2013-06-28 02:54:00,
2013-06-27 22:55:00,58.2,0.0,29.77,North,359,10.9,16.7,0,0.11,,---,0.11,VWS V14.00,2013-06-28 02:55:00,
2013-06-27 22:56:00,58.2,0.0,29.77,North,359,5.7,16.7,0,0.11,,---,0.11,VWS V14.00,2013-06-28 02:56:00,
2013-06-27 22:57:00,58.2,0.0,29.76,NNE,20,8.5,16.7,0,0.11,,---,0.11,VWS V14.00,2013-06-28 02:57:00,
2013-06-27 22:58:00,58.2,0.0,29.76,ENE,70,12.3,16.7,0,0.11,,---,0.11,VWS V14.00,2013-06-28 02:58:00,
2013-06-27 22:59:00,58.2,0.0,29.76,NE,38,10.4,16.7,0,0.11,,---,0.11,VWS V14.00,2013-06-28 02:59:00,
2013-06-27 23:00:00,58.1,0.0,29.76,North,4,6.5,19.1,0,0.11,,---,0.11,VWS V14.00,2013-06-28 03:00:00,
2013-06-27 23:01:00,58.1,0.0,29.76,NE,34,10.4,19.1,0,0.11,,---,0.11,VWS V14.00,2013-06-28 03:01:00,
2013-06-27 23:02:00,58.1,0.0,29.76,North,359,3.5,19.1,0,0.11,,---,0.11,VWS V14.00,2013-06-28 03:02:00,
2013-06-27 23:03:00,58.0,0.0,29.76,NNE,27,8.9,19.1,0,0.11,,---,0.11,VWS V14.00,2013-06-28 03:03:00,
2013-06-27 23:04:00,58.0,0.0,29.76,NE,34,7.8,19.1,0,0.11,,---,0.11,VWS V14.00,2013-06-28 03:04:00,
2013-06-27 23:05:00,57.9,0.0,29.76,North,359,9.8,17.2,0,0.11,,---,0.11,VWS V14.00,2013-06-28 03:05:00,
2013-06-27 23:06:00,57.9,0.0,29.76,NE,42,11.1,17.2,0,0.11,,---,0.11,VWS V14.00,2013-06-28 03:06:00,
2013-06-27 23:07:00,57.9,0.0,29.76,NE,34,13.4,17.2,0,0.11,,---,0.11,VWS V14.00,2013-06-28 03:07:00,
2013-06-27 23:08:00,57.9,0.0,29.76,NNE,32,8.6,17.2,0,0.11,,---,0.11,VWS V14.00,2013-06-28 03:08:00,
2013-06-27 23:09:00,57.9,0.0,29.76,NE,45,12.4,17.2,0,0.11,,---,0.11,VWS V14.00,2013-06-28 03:09:00,
2013-06-27 23:10:00,57.8,0.0,29.76,North,7,18.5,21.2,0,0.11,,---,0.11,VWS V14.00,2013-06-28 03:10:00,
2013-06-27 23:11:00,57.7,0.0,29.76,North,10,5.6,21.2,0,0.11,,---,0.11,VWS V14.00,2013-06-28 03:11:00,
2013-06-27 23:12:00,57.7,0.0,29.76,NE,46,12.7,21.2,0,0.11,,---,0.11,VWS V14.00,2013-06-28 03:12:00,